[[{"header":{"parameterUnit":"m.s-1","parameterCategory":1,"la1":31.0,"la2":29.5877,"lo1":-88.7671,"lo2":-86.6584,"dy":0.0162,"dx":0.0185,"nx":115,"ny":88,"refTime":"2023-07-02T06:00:00:Z","depth":0,"parameterNumber":2,"parameterNumberName":"U-component_of_WINDS"},"data":[0.0,0.0,0.0,0.0,0.0,0.0,0.0,0.0,0.0,0.0,0.0,0.0,0.0,0.0,0.0,0.0,0.0,0.0,0.0,0.0,0.0,0.0,0.0,0.0,0.0,0.0,0.0,0.0,0.0,0.0,0.0,0.0,0.0,0.0,0.0,0.0,0.0,0.0,0.0,0.0,0.0,0.0,0.0,0.0,0.0,0.0,0.0,0.0,0.0,0.0,0.0,0.0,0.0,0.0,0.0,0.0,0.0,0.0,0.0,0.0,0.0,0.0,0.0,0.0,0.0,0.0,0.0,0.0,0.0,0.0,0.0,0.0,0.0,0.0,0.0,0.0,0.0,0.0,0.0,0.0,0.0,0.0,0.0,0.0,0.0,0.0,0.0,0.0,0.0,0.0,0.0,0.0,0.0,0.0,0.0,0.0,0.0,0.0,0.0,0.0,0.0,0.0,0.0,0.0,0.0,0.0,0.0,0.0,0.0,0.0,0.0,0.0,0.0,0.0,0.0,0.0,0.0,0.0,0.0,0.0,0.0,0.0,0.0,0.0,0.0,0.0,0.0,0.0,0.0,0.0,0.0,0.0,0.0,0.0,0.0,0.0,0.0,0.0,0.0,0.0,0.0,0.0,0.0,0.0,0.0,0.0,0.0,0.0,0.0,0.0,0.0,0.0,0.0,0.0,0.0,0.0,0.0,0.0,0.0,0.0,0.0,0.0,0.0,0.0,0.0,0.0,0.0,0.0,0.0,0.0,0.0,0.0,0.0,0.0,0.0,0.0,0.0,0.0,0.0,0.0,0.0,0.0,0.0,0.0,0.0,0.0,0.0,0.0,0.0,0.0,0.0,0.0,0.0,0.0,0.0,0.0,0.0,0.0,0.0,0.0,0.0,0.0,0.0,0.0,0.0,0.0,0.0,0.0,0.0,0.0,0.0,0.0,0.0,0.0,0.0,0.0,0.0,0.0,0.0,0.0,0.0,0.0,0.0,0.0,0.0,0.0,0.0,0.0,0.0,0.0,0.0,0.0,0.0,0.0,0.0,0.0,0.0,0.0,0.0,0.0,0.0,0.0,0.0,0.0,0.0,0.0,0.0,0.0,0.0,0.0,0.0,0.0,0.0,0.0,0.0,0.0,0.0,0.0,0.0,0.0,0.0,0.0,0.0,0.0,0.0,0.0,0.0,0.0,0.0,0.0,0.0,0.0,0.0,0.0,0.0,0.0,0.0,0.0,0.0,0.0,0.0,0.0,0.0,0.0,0.0,0.0,0.0,0.0,0.0,0.0,0.0,0.0,0.0,0.0,0.0,0.0,0.0,0.0,0.0,0.0,0.0,0.0,0.0,0.0,0.0,0.0,0.0,0.0,0.0,0.0,0.0,0.0,0.0,0.0,0.0,0.0,0.0,0.0,0.0,0.0,0.0,0.0,0.0,0.0,0.0,0.0,0.0,0.0,0.0,0.0,0.0,0.0,0.0,0.0,0.0,0.0,0.0,0.0,0.0,0.0,0.0,0.0,0.0,0.0,0.0,0.0,0.0,0.0,0.0,0.0,0.0,0.0,0.0,0.0,0.0,0.0,0.0,0.0,0.0,0.0,0.0,0.0,0.0,0.0,0.0,0.0,0.0,0.0,0.0,0.0,0.0,0.0,0.0,0.0,0.0,0.0,0.0,0.0,0.0,0.0,0.0,0.0,0.0,0.0,0.0,0.0,0.0,0.0,0.0,0.0,0.0,0.0,0.0,0.0,0.0,0.0,0.0,0.0,0.0,0.0,0.0,0.0,0.0,0.0,0.0,0.0,0.0,0.0,0.0,0.0,0.0,0.0,0.0,0.0,0.0,0.0,0.0,0.0,0.0,0.0,0.0,0.0,0.0,0.0,0.0,0.0,0.0,0.0,0.0,0.0,0.0,0.0,0.0,0.0,0.0,0.0,0.0,0.0,0.0,0.0,0.0,0.0,0.0,0.0,0.0,0.0,0.0,0.0,0.0,0.0,0.0,0.0,0.0,0.0,0.0,0.0,0.0,0.0,0.0,0.0,0.0,0.0,0.0,0.0,0.0,0.0,0.0,0.0,0.0,0.0,0.0,0.0,0.0,0.0,0.0,0.0,0.0,0.0,0.0,0.0,0.0,0.0,0.0,0.0,0.0,0.0,0.0,0.0,0.0,0.0,0.0,0.0,0.0,0.0,0.0,0.0,0.0,0.0,0.0,0.0,0.0,0.0,0.0,0.0,0.0,0.0,0.0,0.0,0.0,0.0,0.0,0.0,0.0,0.0,0.0,0.0,0.0,0.0,0.0,0.0,0.0,0.0,0.0,0.0,0.0,0.0,0.0,0.0,0.0,0.0,0.0,0.0,0.0,0.0,0.0,0.0,0.0,0.0,0.0,0.0,0.0,0.0,0.0,0.0,0.0,0.0,0.0,0.0,0.0,0.0,0.0,0.0,0.0,0.0,0.0,0.0,0.0,0.0,0.0,0.0,0.0,0.0,0.0,0.0,0.0,0.0,0.0,0.0,0.0,0.0,0.0,0.0,0.0,0.0,0.0,0.0,0.0,0.0,0.0,0.0,0.0,0.0,0.0,0.0,0.0,0.0,0.0,0.0,0.0,0.0,0.0,0.0,0.0,0.0,0.0,0.0,0.0,0.0,0.0,0.0,0.0,0.0,0.0,0.0,0.0,0.0,0.0,0.0,0.0,0.0,0.0,0.0,0.0,0.0,0.0,0.0,0.0,0.0,0.0,0.0,0.0,0.0,0.0,0.0,0.0,0.0,0.0,0.0,0.0,0.0,0.0,0.0,0.0,0.0,0.0,0.0,0.0,0.0,0.0,0.0,0.0,0.0,0.0,0.0,0.0,0.0,0.0,0.0,0.0,0.0,0.0,0.0,0.0,0.0,0.0,0.0,0.0,0.0,0.0,0.0,0.0,0.0,0.0,0.0,0.0,0.0,0.0,0.0,0.0,0.0,0.0,0.0,0.0,0.0,0.0,0.0,0.0,0.0,0.0,0.0,0.0,0.0,0.0,0.0,0.0,0.0,0.0,0.0,0.0,0.0,0.0,0.0,0.0,0.0,0.0,0.0,0.0,0.0,0.0,0.0,0.0,0.0,0.0,0.0,0.0,0.0,0.0,0.0,0.0,0.0,0.0,0.0,0.0,0.0,0.0,0.0,0.0,0.0,0.0,0.0,0.0,0.0,0.0,0.0,0.0,0.0,0.0,0.0,0.0,0.0,0.0,0.0,0.0,0.0,0.0,0.0,0.0,0.0,0.0,0.0,0.0,0.0,0.0,0.0,0.0,0.0,0.0,0.0,0.0,0.0,0.0,0.0,0.0,0.0,0.0,0.0,0.0,0.0,0.0,0.0,0.0,0.0,0.0,0.0,0.0,0.0,0.0,0.0,0.0,0.0,0.0,0.0,0.0,0.0,0.0,0.0,0.0,0.0,0.0,0.0,0.0,0.0,0.0,0.0,0.0,0.0,0.0,0.0,0.0,0.0,0.0,0.0,0.0,0.0,0.0,0.0,0.0,0.0,0.0,0.0,0.0,0.0,0.0,0.0,0.0,0.0,0.0,0.0,0.0,0.0,0.0,0.0,0.0,0.0,0.0,0.0,0.0,0.0,0.0,0.0,0.0,0.0,0.0,0.0,0.0,0.0,0.0,0.0,0.0,0.0,0.0,0.0,0.0,0.0,0.0,0.0,0.0,0.0,0.0,0.0,0.0,0.0,0.0,0.0,0.0,0.0,0.0,0.0,0.0,0.0,0.0,0.0,0.0,0.0,0.0,0.0,0.0,0.0,0.0,0.0,0.0,0.0,0.0,0.0,0.0,0.0,0.0,0.0,0.0,0.0,0.0,0.0,0.0,0.0,0.0,0.0,0.0,0.0,0.0,0.0,0.0,0.0,0.0,0.0,0.0,0.0,0.0,0.0,0.0,0.0,0.0,0.0,0.0,0.0,0.0,0.0,0.0,0.0,0.0,0.0,0.0,0.0,0.0,0.0,0.0,0.0,0.0,0.0,0.0,0.0,0.0,0.0,0.0,0.0,0.0,0.0,0.0,0.0,0.0,0.0,0.0,0.0,0.0,0.0,0.0,0.0,0.0,0.0,0.0,0.0,0.0,0.0,0.0,0.0,0.0,0.0,0.0,0.0,0.0,0.0,0.0,0.0,0.0,0.0,0.0,0.0,0.0,0.0,0.0,0.0,0.0,0.0,0.0,0.0,0.0,0.0,0.0,0.0,0.0,0.0,0.0,0.0,0.0,0.0,0.0,0.0,-2.7509,0.0,0.0,0.0,0.0,0.0,0.0,0.0,0.0,0.0,0.0,0.0,0.0,0.0,0.0,0.0,0.0,0.0,0.0,0.0,0.0,0.0,0.0,0.0,0.0,0.0,0.0,0.0,0.0,0.0,0.0,0.0,0.0,0.0,0.0,0.0,0.0,0.0,0.0,0.0,0.0,0.0,0.0,0.0,0.0,0.0,0.0,0.0,0.0,0.0,0.0,0.0,0.0,0.0,0.0,0.0,0.0,0.0,0.0,0.0,0.0,0.0,0.0,0.0,0.0,0.0,0.0,0.0,0.0,0.0,0.0,0.0,0.0,0.0,0.0,0.0,0.0,0.0,0.0,0.0,0.0,0.0,0.0,0.0,0.0,0.0,0.0,0.0,0.0,0.0,0.0,0.0,0.0,0.0,0.0,0.0,0.0,0.0,0.0,0.0,0.0,0.0,0.0,0.0,0.0,0.0,0.0,0.0,0.0,0.0,0.0,-2.7336,-2.7083,-2.7131,-2.7117,-2.6975,0.0,0.0,0.0,0.0,0.0,0.0,0.0,0.0,0.0,0.0,0.0,0.0,0.0,0.0,0.0,0.0,0.0,0.0,0.0,0.0,0.0,0.0,0.0,0.0,0.0,0.0,0.0,0.0,0.0,0.0,0.0,0.0,0.0,0.0,0.0,0.0,0.0,0.0,0.0,0.0,0.0,0.0,0.0,0.0,0.0,0.0,0.0,0.0,0.0,0.0,0.0,0.0,0.0,0.0,0.0,0.0,0.0,0.0,0.0,0.0,0.0,0.0,0.0,0.0,0.0,0.0,0.0,0.0,0.0,0.0,0.0,0.0,0.0,0.0,0.0,0.0,0.0,0.0,0.0,0.0,0.0,0.0,0.0,0.0,0.0,0.0,0.0,0.0,0.0,0.0,0.0,0.0,0.0,0.0,0.0,0.0,0.0,0.0,0.0,0.0,0.0,0.0,0.0,0.0,0.0,0.0,0.0,0.0,0.0,0.0,0.0,0.0,-2.6858,-2.6742,-2.6502,0.0,0.0,0.0,0.0,0.0,0.0,0.0,0.0,0.0,0.0,0.0,0.0,0.0,0.0,0.0,0.0,0.0,0.0,0.0,0.0,0.0,0.0,0.0,0.0,0.0,0.0,0.0,0.0,0.0,0.0,0.0,0.0,0.0,0.0,0.0,0.0,0.0,0.0,0.0,0.0,0.0,0.0,0.0,0.0,0.0,0.0,0.0,0.0,0.0,0.0,0.0,0.0,0.0,0.0,0.0,0.0,0.0,0.0,0.0,0.0,0.0,0.0,0.0,0.0,0.0,0.0,0.0,0.0,0.0,0.0,0.0,0.0,0.0,0.0,0.0,0.0,0.0,0.0,0.0,0.0,0.0,0.0,0.0,0.0,0.0,0.0,0.0,0.0,0.0,0.0,0.0,0.0,0.0,0.0,0.0,0.0,0.0,0.0,0.0,0.0,0.0,0.0,0.0,0.0,0.0,0.0,0.0,0.0,0.0,0.0,-2.7103,-2.7053,-2.6624,0.0,-2.6485,0.0,0.0,0.0,0.0,0.0,0.0,0.0,0.0,0.0,0.0,0.0,0.0,0.0,0.0,0.0,0.0,0.0,0.0,0.0,0.0,0.0,0.0,0.0,0.0,0.0,0.0,0.0,0.0,0.0,0.0,0.0,0.0,0.0,0.0,0.0,0.0,0.0,0.0,0.0,0.0,0.0,0.0,0.0,0.0,0.0,0.0,0.0,0.0,0.0,0.0,0.0,0.0,0.0,0.0,0.0,0.0,0.0,0.0,0.0,0.0,0.0,0.0,0.0,0.0,0.0,0.0,0.0,0.0,0.0,0.0,0.0,0.0,0.0,0.0,0.0,0.0,0.0,0.0,0.0,0.0,0.0,0.0,0.0,0.0,0.0,0.0,0.0,0.0,0.0,0.0,0.0,0.0,0.0,0.0,0.0,0.0,0.0,0.0,0.0,0.0,0.0,0.0,0.0,0.0,0.0,0.0,0.0,0.0,0.0,0.0,-2.6875,-2.7038,-2.6674,-2.6486,0.0,0.0,0.0,0.0,0.0,0.0,0.0,0.0,0.0,0.0,0.0,0.0,0.0,0.0,0.0,0.0,0.0,0.0,0.0,0.0,0.0,0.0,0.0,0.0,0.0,0.0,0.0,0.0,0.0,0.0,0.0,0.0,0.0,0.0,0.0,0.0,0.0,0.0,0.0,0.0,0.0,0.0,0.0,0.0,0.0,0.0,0.0,0.0,0.0,0.0,0.0,0.0,0.0,0.0,0.0,0.0,0.0,0.0,0.0,0.0,0.0,0.0,0.0,0.0,0.0,0.0,0.0,0.0,0.0,0.0,0.0,0.0,0.0,0.0,0.0,0.0,0.0,0.0,0.0,0.0,0.0,0.0,0.0,0.0,0.0,0.0,0.0,0.0,0.0,0.0,0.0,0.0,0.0,0.0,0.0,0.0,0.0,0.0,0.0,0.0,0.0,0.0,0.0,0.0,0.0,0.0,0.0,0.0,0.0,0.0,-2.7384,-2.708,-2.7131,-2.7181,-2.7142,-2.7052,0.0,0.0,0.0,0.0,0.0,0.0,0.0,0.0,0.0,0.0,0.0,0.0,0.0,0.0,0.0,0.0,0.0,0.0,0.0,0.0,0.0,0.0,0.0,0.0,0.0,0.0,0.0,0.0,0.0,0.0,0.0,0.0,0.0,0.0,0.0,0.0,0.0,0.0,0.0,0.0,0.0,0.0,0.0,0.0,0.0,0.0,0.0,0.0,0.0,0.0,0.0,0.0,0.0,0.0,0.0,0.0,0.0,0.0,0.0,0.0,0.0,0.0,0.0,0.0,0.0,0.0,0.0,0.0,0.0,0.0,0.0,0.0,0.0,0.0,0.0,0.0,0.0,0.0,0.0,0.0,0.0,0.0,0.0,0.0,0.0,0.0,0.0,0.0,0.0,0.0,0.0,0.0,0.0,0.0,0.0,0.0,0.0,0.0,0.0,0.0,0.0,0.0,0.0,0.0,0.0,0.0,0.0,0.0,-2.9197,-2.8493,-2.793,-2.7526,-2.8199,-2.8546,0.0,0.0,0.0,0.0,0.0,0.0,0.0,0.0,0.0,0.0,0.0,0.0,0.0,0.0,0.0,0.0,0.0,0.0,0.0,0.0,0.0,0.0,0.0,0.0,0.0,0.0,0.0,0.0,0.0,0.0,0.0,0.0,0.0,0.0,0.0,0.0,0.0,0.0,0.0,0.0,0.0,0.0,0.0,0.0,0.0,0.0,0.0,0.0,0.0,0.0,0.0,0.0,0.0,0.0,0.0,0.0,0.0,0.0,0.0,0.0,0.0,0.0,0.0,0.0,0.0,0.0,0.0,0.0,0.0,0.0,0.0,0.0,0.0,0.0,0.0,0.0,0.0,0.0,0.0,0.0,0.0,0.0,0.0,0.0,0.0,0.0,0.0,0.0,0.0,0.0,0.0,0.0,0.0,0.0,0.0,0.0,0.0,0.0,0.0,0.0,0.0,0.0,0.0,0.0,0.0,0.0,0.0,0.0,0.0,-2.9608,-2.9162,-2.8766,-2.8482,-2.8498,-2.8441,0.0,0.0,0.0,0.0,0.0,0.0,0.0,0.0,0.0,0.0,0.0,0.0,0.0,0.0,0.0,0.0,0.0,0.0,0.0,0.0,0.0,0.0,0.0,0.0,0.0,0.0,0.0,0.0,0.0,0.0,0.0,0.0,0.0,0.0,0.0,0.0,0.0,0.0,0.0,0.0,0.0,0.0,0.0,0.0,0.0,0.0,0.0,0.0,0.0,0.0,0.0,0.0,0.0,0.0,0.0,0.0,0.0,0.0,0.0,0.0,0.0,0.0,0.0,0.0,0.0,0.0,0.0,0.0,0.0,0.0,0.0,0.0,0.0,0.0,0.0,0.0,0.0,0.0,0.0,0.0,0.0,0.0,0.0,0.0,0.0,0.0,0.0,0.0,0.0,0.0,0.0,0.0,0.0,0.0,0.0,0.0,0.0,0.0,0.0,0.0,0.0,0.0,0.0,0.0,0.0,0.0,0.0,0.0,0.0,-2.9763,0.0,-2.9516,-2.913,-2.9098,-2.9016,0.0,0.0,0.0,0.0,0.0,0.0,0.0,0.0,0.0,0.0,0.0,0.0,0.0,0.0,0.0,0.0,0.0,0.0,0.0,0.0,0.0,0.0,0.0,0.0,0.0,0.0,0.0,0.0,0.0,0.0,0.0,0.0,0.0,0.0,0.0,0.0,0.0,0.0,0.0,0.0,0.0,0.0,0.0,0.0,0.0,0.0,0.0,0.0,0.0,0.0,0.0,0.0,0.0,0.0,0.0,0.0,0.0,0.0,0.0,0.0,0.0,0.0,0.0,0.0,0.0,0.0,0.0,0.0,0.0,0.0,0.0,0.0,0.0,0.0,0.0,0.0,0.0,0.0,0.0,0.0,0.0,0.0,0.0,0.0,0.0,0.0,0.0,0.0,0.0,0.0,0.0,0.0,0.0,0.0,0.0,0.0,0.0,0.0,0.0,0.0,0.0,0.0,0.0,0.0,0.0,0.0,0.0,0.0,-3.0768,-2.9783,-3.0218,-3.0112,-2.9476,-3.0009,-3.0347,0.0,0.0,0.0,0.0,0.0,0.0,0.0,0.0,0.0,0.0,0.0,0.0,0.0,0.0,0.0,0.0,0.0,0.0,0.0,0.0,0.0,0.0,0.0,0.0,0.0,0.0,0.0,0.0,0.0,0.0,0.0,0.0,0.0,0.0,0.0,0.0,0.0,0.0,0.0,0.0,0.0,0.0,0.0,0.0,0.0,0.0,0.0,0.0,0.0,0.0,0.0,0.0,0.0,0.0,0.0,0.0,0.0,0.0,0.0,0.0,0.0,0.0,0.0,0.0,0.0,0.0,0.0,0.0,0.0,0.0,0.0,0.0,0.0,0.0,0.0,0.0,0.0,0.0,0.0,0.0,0.0,0.0,0.0,0.0,0.0,0.0,0.0,0.0,0.0,0.0,0.0,0.0,0.0,0.0,0.0,0.0,0.0,0.0,0.0,0.0,0.0,0.0,0.0,0.0,0.0,0.0,0.0,0.0,0.0,-3.0606,-3.0443,-3.0294,-3.0158,-3.0143,-3.0184,0.0,0.0,0.0,0.0,0.0,0.0,0.0,0.0,0.0,0.0,0.0,0.0,0.0,0.0,0.0,0.0,0.0,0.0,0.0,0.0,0.0,0.0,0.0,0.0,0.0,0.0,0.0,0.0,0.0,0.0,0.0,0.0,0.0,0.0,0.0,0.0,0.0,0.0,0.0,0.0,0.0,0.0,0.0,0.0,0.0,0.0,0.0,0.0,0.0,0.0,0.0,0.0,0.0,0.0,0.0,0.0,0.0,0.0,0.0,0.0,0.0,0.0,0.0,0.0,0.0,0.0,0.0,0.0,0.0,0.0,0.0,0.0,0.0,0.0,0.0,0.0,0.0,0.0,0.0,0.0,0.0,0.0,0.0,0.0,0.0,0.0,0.0,0.0,0.0,0.0,0.0,0.0,0.0,0.0,0.0,0.0,0.0,0.0,0.0,0.0,0.0,0.0,0.0,0.0,0.0,0.0,0.0,0.0,0.0,-3.1347,-3.109,-3.0959,-3.1063,-3.0903,-3.0614,-3.0222,0.0,0.0,0.0,0.0,0.0,0.0,0.0,0.0,0.0,0.0,0.0,0.0,0.0,0.0,0.0,0.0,0.0,0.0,0.0,0.0,0.0,0.0,0.0,0.0,0.0,0.0,0.0,0.0,0.0,0.0,0.0,0.0,0.0,0.0,0.0,0.0,0.0,0.0,0.0,0.0,0.0,0.0,0.0,0.0,0.0,0.0,0.0,0.0,0.0,0.0,0.0,0.0,0.0,0.0,0.0,0.0,0.0,0.0,0.0,0.0,0.0,0.0,0.0,0.0,0.0,0.0,0.0,0.0,0.0,0.0,0.0,0.0,0.0,0.0,0.0,0.0,0.0,0.0,0.0,0.0,0.0,0.0,0.0,0.0,0.0,0.0,0.0,0.0,0.0,0.0,0.0,0.0,0.0,0.0,0.0,0.0,0.0,0.0,0.0,0.0,0.0,0.0,0.0,0.0,0.0,0.0,0.0,0.0,-3.2174,-3.2222,-3.2222,-3.2109,-3.2169,-3.1593,0.0,0.0,0.0,0.0,0.0,0.0,0.0,0.0,0.0,0.0,0.0,0.0,0.0,0.0,0.0,0.0,0.0,0.0,0.0,0.0,0.0,0.0,0.0,0.0,0.0,0.0,0.0,0.0,0.0,0.0,0.0,0.0,0.0,0.0,0.0,0.0,0.0,0.0,0.0,0.0,0.0,0.0,0.0,0.0,0.0,0.0,0.0,0.0,0.0,0.0,0.0,0.0,0.0,0.0,0.0,0.0,0.0,0.0,0.0,0.0,0.0,0.0,0.0,0.0,0.0,0.0,0.0,0.0,0.0,0.0,0.0,0.0,0.0,0.0,0.0,0.0,0.0,0.0,0.0,0.0,0.0,0.0,0.0,0.0,0.0,0.0,0.0,0.0,0.0,0.0,0.0,0.0,0.0,0.0,0.0,0.0,0.0,0.0,0.0,0.0,0.0,0.0,0.0,0.0,0.0,0.0,0.0,0.0,0.0,-3.4336,-3.4894,-3.4667,-3.3582,-3.2744,-3.1948,0.0,0.0,0.0,0.0,0.0,0.0,0.0,0.0,0.0,0.0,0.0,0.0,0.0,0.0,0.0,0.0,0.0,0.0,0.0,0.0,0.0,0.0,0.0,0.0,0.0,0.0,0.0,0.0,0.0,0.0,0.0,0.0,0.0,0.0,0.0,0.0,0.0,0.0,0.0,0.0,0.0,0.0,0.0,0.0,0.0,0.0,0.0,0.0,0.0,0.0,0.0,0.0,0.0,0.0,0.0,0.0,0.0,0.0,0.0,0.0,0.0,0.0,0.0,0.0,0.0,0.0,0.0,0.0,0.0,0.0,0.0,0.0,0.0,0.0,0.0,0.0,0.0,0.0,0.0,0.0,0.0,0.0,0.0,0.0,0.0,0.0,0.0,0.0,0.0,0.0,0.0,0.0,0.0,0.0,0.0,0.0,0.0,0.0,0.0,0.0,0.0,0.0,0.0,0.0,0.0,0.0,0.0,0.0,-3.4385,-3.5211,-3.6497,-3.662,-3.5524,-3.3906,-3.2586,0.0,0.0,0.0,0.0,0.0,0.0,0.0,0.0,0.0,0.0,0.0,0.0,0.0,0.0,0.0,0.0,0.0,0.0,0.0,0.0,0.0,0.0,0.0,0.0,0.0,0.0,0.0,0.0,0.0,0.0,0.0,0.0,0.0,0.0,0.0,0.0,0.0,0.0,0.0,0.0,0.0,0.0,0.0,0.0,0.0,0.0,0.0,0.0,0.0,0.0,0.0,0.0,0.0,0.0,0.0,0.0,0.0,0.0,0.0,0.0,0.0,0.0,0.0,0.0,0.0,0.0,0.0,0.0,0.0,0.0,0.0,0.0,0.0,0.0,0.0,0.0,0.0,0.0,0.0,0.0,0.0,0.0,0.0,0.0,0.0,0.0,0.0,0.0,0.0,0.0,0.0,0.0,0.0,0.0,0.0,0.0,0.0,0.0,0.0,0.0,0.0,0.0,0.0,0.0,0.0,0.0,0.0,0.0,-3.5211,-3.5229,-3.7146,-3.7902,-3.7279,-3.5284,-3.3425,0.0,0.0,0.0,0.0,0.0,0.0,0.0,0.0,0.0,0.0,0.0,0.0,0.0,0.0,0.0,0.0,0.0,0.0,0.0,0.0,0.0,0.0,0.0,0.0,0.0,0.0,0.0,0.0,0.0,0.0,0.0,0.0,0.0,0.0,0.0,0.0,0.0,0.0,0.0,0.0,0.0,0.0,0.0,0.0,0.0,0.0,0.0,0.0,0.0,0.0,0.0,0.0,0.0,0.0,0.0,0.0,0.0,0.0,0.0,0.0,0.0,0.0,0.0,0.0,0.0,0.0,0.0,0.0,0.0,0.0,0.0,0.0,0.0,0.0,0.0,0.0,0.0,0.0,0.0,0.0,0.0,0.0,0.0,0.0,0.0,0.0,0.0,0.0,0.0,0.0,0.0,0.0,0.0,0.0,0.0,0.0,0.0,0.0,0.0,0.0,0.0,0.0,0.0,0.0,0.0,0.0,0.0,0.0,-3.5263,-3.5291,-3.6285,-3.6753,-3.66,-3.5403,-3.4139,0.0,0.0,0.0,0.0,0.0,0.0,0.0,0.0,0.0,0.0,0.0,0.0,0.0,0.0,0.0,0.0,0.0,0.0,0.0,0.0,0.0,0.0,0.0,0.0,0.0,0.0,0.0,0.0,0.0,0.0,0.0,0.0,0.0,0.0,0.0,0.0,0.0,0.0,0.0,0.0,0.0,0.0,0.0,0.0,0.0,0.0,0.0,0.0,-2.1903,0.0,0.0,0.0,0.0,0.0,0.0,0.0,0.0,0.0,0.0,0.0,0.0,0.0,0.0,0.0,0.0,0.0,0.0,0.0,0.0,0.0,0.0,0.0,0.0,0.0,0.0,0.0,0.0,0.0,0.0,0.0,0.0,0.0,0.0,0.0,0.0,0.0,0.0,0.0,0.0,0.0,0.0,0.0,0.0,0.0,0.0,0.0,0.0,0.0,0.0,0.0,0.0,0.0,0.0,0.0,0.0,0.0,0.0,0.0,-3.5087,-3.5323,-3.603,-3.6259,-3.5931,-3.5253,-3.4374,0.0,0.0,0.0,0.0,0.0,0.0,0.0,0.0,0.0,0.0,0.0,0.0,0.0,0.0,0.0,0.0,0.0,0.0,0.0,0.0,0.0,0.0,0.0,0.0,0.0,0.0,0.0,0.0,0.0,0.0,0.0,0.0,0.0,0.0,0.0,0.0,0.0,0.0,0.0,0.0,0.0,0.0,0.0,0.0,0.0,0.0,0.0,0.0,0.0,0.0,0.0,0.0,0.0,0.0,0.0,0.0,0.0,0.0,0.0,0.0,0.0,0.0,0.0,0.0,0.0,0.0,0.0,0.0,0.0,0.0,0.0,0.0,0.0,0.0,0.0,0.0,0.0,0.0,0.0,0.0,0.0,0.0,0.0,0.0,0.0,0.0,0.0,0.0,0.0,0.0,0.0,0.0,0.0,0.0,0.0,0.0,0.0,0.0,0.0,0.0,0.0,0.0,0.0,0.0,0.0,0.0,0.0,-3.4077,-3.4663,-3.5171,-3.5782,-3.5834,-3.5255,-3.4866,-3.4151,-3.3134,0.0,0.0,0.0,0.0,0.0,0.0,0.0,0.0,0.0,0.0,0.0,0.0,0.0,0.0,0.0,0.0,0.0,0.0,0.0,0.0,0.0,0.0,0.0,0.0,0.0,0.0,0.0,0.0,0.0,0.0,0.0,0.0,0.0,0.0,0.0,0.0,0.0,0.0,-1.782,-1.7745,0.0,0.0,0.0,0.0,0.0,0.0,0.0,0.0,-2.0898,0.0,0.0,0.0,0.0,0.0,0.0,0.0,0.0,0.0,0.0,0.0,0.0,0.0,0.0,0.0,0.0,0.0,0.0,0.0,0.0,0.0,0.0,0.0,0.0,0.0,0.0,0.0,0.0,0.0,0.0,0.0,0.0,0.0,0.0,0.0,0.0,0.0,0.0,0.0,0.0,0.0,0.0,0.0,0.0,0.0,0.0,0.0,0.0,0.0,0.0,0.0,0.0,0.0,0.0,0.0,0.0,-3.3547,-3.3698,-3.4007,-3.453,-3.4662,-3.4687,-3.4553,-3.386,-3.3273,-3.275,0.0,0.0,0.0,0.0,0.0,0.0,0.0,0.0,0.0,0.0,0.0,0.0,0.0,0.0,0.0,0.0,0.0,0.0,0.0,0.0,0.0,0.0,0.0,0.0,0.0,0.0,0.0,0.0,0.0,0.0,0.0,0.0,0.0,0.0,0.0,0.0,0.0,0.0,0.0,-1.8402,-1.8646,0.0,0.0,0.0,0.0,0.0,0.0,0.0,0.0,-2.0726,0.0,0.0,0.0,0.0,0.0,0.0,0.0,0.0,0.0,0.0,0.0,0.0,0.0,0.0,0.0,0.0,0.0,0.0,0.0,0.0,0.0,0.0,0.0,0.0,0.0,0.0,0.0,0.0,0.0,0.0,0.0,0.0,0.0,0.0,0.0,0.0,0.0,0.0,0.0,0.0,0.0,0.0,0.0,0.0,0.0,0.0,0.0,0.0,0.0,0.0,0.0,0.0,0.0,0.0,0.0,-3.3255,-3.3519,-3.3915,-3.437,-3.3894,-3.3638,-3.3589,-3.2788,-3.2067,0.0,0.0,0.0,0.0,0.0,0.0,0.0,0.0,0.0,0.0,0.0,0.0,0.0,0.0,0.0,0.0,0.0,0.0,0.0,0.0,0.0,0.0,0.0,0.0,0.0,0.0,0.0,0.0,0.0,0.0,0.0,0.0,0.0,0.0,0.0,0.0,0.0,0.0,0.0,0.0,-1.8568,-1.881,-1.9518,0.0,0.0,0.0,0.0,0.0,0.0,-2.0126,-2.0194,0.0,0.0,0.0,0.0,0.0,0.0,0.0,0.0,0.0,0.0,0.0,0.0,0.0,0.0,0.0,0.0,0.0,0.0,0.0,0.0,0.0,0.0,0.0,0.0,0.0,0.0,0.0,0.0,0.0,0.0,0.0,0.0,0.0,0.0,0.0,0.0,0.0,0.0,0.0,0.0,0.0,0.0,0.0,0.0,0.0,0.0,0.0,0.0,0.0,0.0,0.0,0.0,0.0,0.0,0.0,-3.3004,-3.3255,-3.3632,-3.4051,-3.3122,-3.2635,-3.2585,-3.1734,-3.0958,0.0,0.0,0.0,0.0,0.0,0.0,0.0,0.0,0.0,0.0,0.0,0.0,0.0,0.0,0.0,0.0,0.0,0.0,0.0,0.0,0.0,0.0,0.0,0.0,0.0,0.0,0.0,0.0,0.0,0.0,0.0,0.0,0.0,0.0,0.0,0.0,0.0,0.0,0.0,0.0,0.0,-1.8989,-1.9997,-1.9652,0.0,0.0,0.0,0.0,-1.9549,-1.9869,0.0,0.0,0.0,0.0,0.0,0.0,0.0,0.0,0.0,0.0,0.0,0.0,0.0,0.0,0.0,0.0,0.0,0.0,0.0,0.0,0.0,0.0,0.0,0.0,0.0,0.0,0.0,0.0,0.0,0.0,0.0,0.0,0.0,0.0,0.0,0.0,0.0,0.0,0.0,0.0,0.0,0.0,0.0,0.0,0.0,0.0,0.0,0.0,0.0,0.0,0.0,0.0,0.0,0.0,0.0,0.0,-3.2958,-3.2577,-3.2615,-3.301,-3.2169,-3.1646,-3.1669,-3.0883,-3.0391,0.0,0.0,0.0,0.0,0.0,0.0,0.0,0.0,0.0,0.0,0.0,0.0,0.0,0.0,0.0,0.0,0.0,0.0,0.0,0.0,0.0,0.0,0.0,0.0,0.0,0.0,0.0,0.0,0.0,0.0,0.0,0.0,0.0,0.0,0.0,0.0,0.0,0.0,0.0,0.0,0.0,-1.9583,-1.9909,-1.9555,-1.9379,0.0,0.0,-1.9985,-2.0078,-2.0571,0.0,0.0,0.0,0.0,0.0,0.0,0.0,0.0,0.0,0.0,0.0,0.0,0.0,0.0,0.0,0.0,0.0,0.0,0.0,0.0,0.0,0.0,0.0,0.0,0.0,0.0,0.0,0.0,0.0,0.0,0.0,0.0,0.0,0.0,0.0,0.0,0.0,0.0,0.0,0.0,0.0,0.0,0.0,0.0,0.0,0.0,0.0,0.0,0.0,0.0,0.0,0.0,0.0,0.0,0.0,-3.2351,-3.2051,-3.243,-3.2443,-3.2105,-3.1167,-3.0657,-3.0644,-2.9771,-2.9183,0.0,0.0,0.0,0.0,0.0,0.0,0.0,0.0,0.0,0.0,0.0,0.0,0.0,0.0,0.0,0.0,0.0,0.0,0.0,0.0,0.0,0.0,0.0,0.0,0.0,0.0,0.0,0.0,0.0,0.0,0.0,0.0,0.0,0.0,0.0,0.0,0.0,0.0,0.0,0.0,0.0,0.0,-1.9384,-1.959,0.0,0.0,0.0,-1.9938,-1.9684,0.0,0.0,0.0,0.0,0.0,0.0,0.0,0.0,0.0,0.0,0.0,0.0,0.0,0.0,0.0,0.0,0.0,0.0,0.0,0.0,0.0,0.0,0.0,0.0,0.0,0.0,0.0,0.0,0.0,0.0,0.0,0.0,0.0,0.0,0.0,0.0,0.0,0.0,0.0,0.0,0.0,0.0,0.0,0.0,0.0,0.0,0.0,0.0,0.0,0.0,0.0,0.0,0.0,0.0,0.0,0.0,0.0,-3.1216,-3.1838,-3.1842,-3.113,-3.0126,-2.9626,-2.9601,-2.87,0.0,0.0,0.0,0.0,0.0,0.0,0.0,0.0,0.0,0.0,0.0,0.0,0.0,0.0,0.0,0.0,0.0,0.0,0.0,0.0,0.0,0.0,0.0,0.0,0.0,0.0,0.0,-1.7413,0.0,0.0,0.0,0.0,0.0,0.0,0.0,0.0,0.0,0.0,0.0,0.0,0.0,0.0,-1.9495,-1.911,-1.967,-2.014,0.0,0.0,-2.0,-1.9652,-2.041,-2.0611,0.0,0.0,0.0,0.0,0.0,0.0,0.0,0.0,0.0,0.0,0.0,0.0,0.0,0.0,0.0,0.0,0.0,0.0,0.0,0.0,0.0,0.0,0.0,0.0,0.0,0.0,0.0,0.0,0.0,0.0,0.0,0.0,0.0,0.0,0.0,0.0,0.0,0.0,0.0,0.0,0.0,0.0,0.0,0.0,0.0,0.0,0.0,0.0,0.0,0.0,0.0,0.0,0.0,0.0,0.0,-3.0827,-3.0404,-3.0177,-3.0075,-2.9094,-2.859,-2.8578,-2.7741,-2.7394,0.0,0.0,0.0,0.0,0.0,0.0,0.0,0.0,0.0,0.0,0.0,0.0,0.0,0.0,0.0,0.0,0.0,0.0,0.0,0.0,0.0,0.0,0.0,0.0,0.0,0.0,0.0,0.0,0.0,0.0,0.0,0.0,0.0,0.0,0.0,0.0,0.0,0.0,0.0,0.0,0.0,-1.9119,-1.9512,-1.9887,-2.0263,0.0,0.0,-2.0254,-2.0612,-2.1209,-2.1282,-2.0211,0.0,0.0,0.0,0.0,0.0,0.0,0.0,0.0,0.0,0.0,0.0,0.0,0.0,0.0,0.0,0.0,0.0,0.0,0.0,0.0,0.0,0.0,0.0,0.0,0.0,0.0,0.0,0.0,0.0,0.0,0.0,0.0,0.0,0.0,0.0,0.0,0.0,0.0,0.0,0.0,0.0,0.0,0.0,0.0,0.0,0.0,0.0,0.0,0.0,0.0,0.0,0.0,0.0,-3.0365,-2.9731,-2.9888,-2.9691,-2.9055,-2.8155,-2.7696,-2.7684,-2.6805,-2.643,0.0,0.0,0.0,0.0,0.0,0.0,0.0,0.0,0.0,0.0,0.0,0.0,0.0,0.0,0.0,0.0,0.0,0.0,0.0,0.0,0.0,0.0,0.0,0.0,0.0,0.0,0.0,0.0,-1.6787,-1.6702,-1.6916,0.0,0.0,0.0,0.0,0.0,0.0,0.0,0.0,0.0,0.0,-1.9711,-1.9722,-2.0263,0.0,0.0,-2.0775,-2.0686,-2.074,-2.0765,-2.064,-1.9955,-1.971,0.0,0.0,0.0,0.0,0.0,0.0,0.0,0.0,0.0,0.0,0.0,0.0,0.0,0.0,0.0,0.0,0.0,0.0,0.0,0.0,0.0,0.0,0.0,0.0,0.0,0.0,0.0,0.0,0.0,0.0,0.0,0.0,0.0,0.0,0.0,0.0,0.0,0.0,0.0,0.0,0.0,0.0,0.0,0.0,0.0,0.0,0.0,0.0,0.0,0.0,0.0,0.0,-2.9821,-2.9145,-2.9404,-2.9094,-2.8139,-2.751,-2.7051,-2.6794,-2.588,-2.5458,0.0,0.0,0.0,0.0,0.0,0.0,0.0,0.0,0.0,0.0,0.0,0.0,0.0,0.0,0.0,0.0,0.0,0.0,0.0,0.0,0.0,0.0,0.0,0.0,0.0,0.0,0.0,0.0,-1.7327,-1.727,-1.7722,0.0,0.0,0.0,0.0,0.0,0.0,0.0,0.0,0.0,0.0,-1.9618,-1.9562,-2.0197,-2.0673,-2.0673,-2.0393,-2.0221,-2.0275,-2.0221,-2.0073,-1.9826,0.0,0.0,0.0,0.0,0.0,0.0,0.0,0.0,0.0,0.0,0.0,0.0,0.0,0.0,0.0,0.0,0.0,0.0,0.0,0.0,0.0,0.0,0.0,0.0,0.0,0.0,0.0,0.0,0.0,0.0,0.0,0.0,0.0,0.0,0.0,0.0,0.0,0.0,0.0,0.0,0.0,0.0,0.0,0.0,0.0,0.0,0.0,0.0,0.0,0.0,0.0,0.0,0.0,-2.974,-2.9397,-2.8836,-2.8087,-2.7267,-2.7174,-2.6712,-2.5861,-2.4978,-2.4682,-2.4976,0.0,0.0,0.0,0.0,0.0,0.0,0.0,0.0,0.0,0.0,0.0,0.0,0.0,0.0,0.0,0.0,0.0,0.0,0.0,0.0,0.0,0.0,0.0,0.0,0.0,0.0,-1.8843,-1.8406,-1.8145,0.0,0.0,0.0,0.0,0.0,0.0,0.0,0.0,0.0,0.0,-1.7862,-1.8515,-1.8993,-1.9524,-1.9985,-1.994,-1.9163,-1.8703,-1.9247,-1.9621,-1.9886,0.0,0.0,0.0,0.0,0.0,0.0,0.0,0.0,0.0,0.0,0.0,0.0,0.0,0.0,0.0,0.0,0.0,0.0,0.0,0.0,0.0,0.0,0.0,0.0,0.0,0.0,0.0,-3.5751,-3.5679,0.0,0.0,0.0,0.0,0.0,0.0,0.0,0.0,0.0,0.0,0.0,-3.4653,-3.3756,0.0,0.0,0.0,0.0,0.0,0.0,0.0,0.0,0.0,0.0,0.0,0.0,-2.9237,-2.9162,-2.8186,-2.751,-2.7174,-2.6008,-2.5253,-2.4946,-2.4079,-2.3738,-2.4147,0.0,0.0,0.0,0.0,0.0,0.0,0.0,0.0,0.0,0.0,0.0,0.0,0.0,0.0,0.0,0.0,0.0,0.0,0.0,0.0,0.0,0.0,0.0,0.0,0.0,-1.853,0.0,0.0,0.0,0.0,0.0,0.0,0.0,0.0,0.0,0.0,0.0,-1.7632,-1.8125,-1.8889,-1.9573,-1.999,-2.0144,-2.0229,0.0,0.0,0.0,0.0,0.0,0.0,0.0,0.0,0.0,0.0,0.0,0.0,0.0,0.0,-2.0462,-1.9955,-1.9993,-2.0108,-2.0118,0.0,0.0,0.0,0.0,0.0,0.0,0.0,0.0,0.0,0.0,0.0,0.0,0.0,0.0,0.0,0.0,-3.6156,0.0,0.0,0.0,0.0,0.0,0.0,0.0,0.0,-3.4909,-3.4729,-3.4459,-3.3568,-3.3127,0.0,-3.2807,-3.2565,0.0,0.0,0.0,0.0,0.0,0.0,0.0,0.0,-2.9176,-2.8923,-2.7782,-2.6887,-2.6257,-2.5126,-2.4327,-2.4036,-2.344,-2.3215,-2.3473,-2.3732,-2.398,0.0,0.0,0.0,0.0,0.0,0.0,0.0,0.0,0.0,0.0,0.0,0.0,0.0,0.0,0.0,0.0,0.0,0.0,0.0,0.0,0.0,0.0,0.0,-1.8752,0.0,0.0,0.0,0.0,0.0,0.0,0.0,0.0,0.0,-1.7091,-1.7506,-1.7937,-1.8255,-1.8877,-1.9445,-1.977,0.0,0.0,0.0,0.0,0.0,0.0,0.0,-1.8535,-1.9188,-1.9004,-1.918,-2.0555,-2.1122,-2.1347,-2.1284,0.0,0.0,-2.0506,-2.0452,-2.0521,-2.0521,-2.0521,-2.0521,-2.0521,-2.0521,-2.0521,0.0,0.0,0.0,0.0,0.0,0.0,0.0,0.0,-3.6768,-3.6619,0.0,-3.692,0.0,0.0,0.0,0.0,0.0,0.0,0.0,0.0,-3.638,-3.5643,-3.3345,-3.3551,-3.3604,-3.3312,-3.2826,-3.2368,-3.2119,-3.1949,0.0,0.0,0.0,0.0,0.0,0.0,-2.9498,-2.8655,-2.7585,-2.6257,-2.4627,-2.4498,-2.4036,-2.3135,-2.3047,-2.2994,-2.3071,-2.308,-2.3272,-2.3535,-2.2937,0.0,0.0,0.0,0.0,0.0,0.0,0.0,0.0,0.0,0.0,0.0,0.0,0.0,0.0,0.0,0.0,0.0,0.0,0.0,0.0,-1.8998,0.0,0.0,0.0,0.0,0.0,0.0,0.0,0.0,0.0,0.0,-1.8033,-1.7384,-1.7032,-1.7538,0.0,0.0,0.0,0.0,-1.8488,-1.8735,-1.8411,-1.8079,-1.7878,-1.7978,-1.8133,-1.8226,0.0,0.0,-2.1454,-2.1517,-2.1482,-2.1651,-2.1678,-2.1523,-2.0913,-2.068,-2.0561,-2.0552,-2.057,-2.0525,-2.0525,-2.0649,-2.0622,-3.7873,0.0,0.0,0.0,0.0,-3.7214,-3.7163,-3.7379,-3.7555,-3.7253,-3.6622,-3.6899,0.0,0.0,0.0,0.0,0.0,0.0,-3.5786,-3.5474,-3.5278,-3.5038,-3.4816,-3.4295,-3.4264,-3.4655,-3.4486,-3.3528,-3.1951,-3.1841,-3.145,-3.071,0.0,0.0,0.0,0.0,-2.8612,-2.7988,-2.6235,-2.4999,-2.4531,-2.3864,-2.3387,-2.3101,-2.2262,-2.18,-2.18,-2.1051,-2.0704,-2.0896,-2.0463,0.0,0.0,0.0,0.0,0.0,0.0,0.0,0.0,0.0,0.0,0.0,0.0,0.0,0.0,0.0,0.0,0.0,0.0,0.0,-1.9227,-1.9152,-1.9541,0.0,0.0,0.0,0.0,0.0,0.0,0.0,0.0,0.0,-1.8078,-1.8452,-1.8736,0.0,0.0,-1.9042,-1.8727,-1.8404,-1.8125,-1.8017,0.0,0.0,0.0,-1.8419,-1.8511,-1.994,-2.0645,-2.1114,-2.1437,-2.1562,-2.1597,-2.1687,-2.1687,-2.1641,-2.1505,-2.1386,-2.1339,-2.1339,-2.1348,-2.1339,-2.1348,-2.1348,-2.1374,-3.894,-3.8846,-3.8051,-3.777,-3.7886,-3.7666,-3.7799,-3.8103,-3.8103,-3.7821,-3.7306,-3.7436,-3.7009,-3.6181,-3.6181,0.0,0.0,0.0,-3.6472,-3.6596,-3.5749,-3.555,-3.5862,-3.5046,-3.4787,-3.5175,-3.4827,-3.3764,-3.2123,-3.1941,-3.1395,-3.0514,0.0,0.0,-2.9406,-2.8394,-2.7608,-2.6971,-2.5701,-2.4861,-2.4466,-2.3742,-2.3167,-2.2659,-2.1759,-2.1069,-2.0621,-1.9807,-1.9472,-1.9677,-1.9276,-1.9297,0.0,0.0,0.0,0.0,0.0,0.0,0.0,0.0,0.0,0.0,0.0,-1.9485,-2.0068,0.0,0.0,0.0,-1.8982,-1.9228,-1.9293,-1.9519,0.0,0.0,0.0,0.0,0.0,0.0,0.0,-1.9812,-1.8812,-1.8087,-1.8133,-1.8581,-1.8758,-1.8265,-1.8419,-1.8551,-1.8418,0.0,-1.7897,-1.8033,-1.869,-1.9115,-1.8981,-1.8405,-1.8454,-2.0038,-2.0678,-2.1114,-2.1472,-2.1616,-2.1687,-2.1687,-2.1687,-2.1687,-2.1687,-2.1687,-2.1687,-2.1687,-2.1687,-2.1687,-2.1687,-2.1687,-2.1687,-4.0496,-4.0353,-3.8442,-3.7809,-3.8024,-3.7976,-3.8103,-3.8391,-3.8391,-3.8234,-3.7972,-3.8262,-3.8062,-3.7476,-3.7417,0.0,0.0,-3.7833,-3.7874,-3.8029,-3.7157,-3.6679,-3.6514,-3.5673,-3.5287,-3.5307,-3.4396,-3.3496,-3.2659,-3.218,-3.1383,-3.0325,-2.8668,-2.8066,-2.8455,-2.7595,-2.6733,-2.5902,-2.5795,-2.5265,-2.4266,-2.3806,-2.2975,-2.1832,-2.1319,-2.052,-1.9405,-1.8993,-1.8948,-1.916,-1.8815,-1.8576,-1.8661,0.0,0.0,0.0,0.0,0.0,0.0,0.0,0.0,0.0,0.0,0.0,0.0,0.0,0.0,0.0,-1.8302,0.0,-1.8961,-1.9815,0.0,0.0,0.0,-1.9749,-1.8565,-1.8388,-1.8257,-1.8125,0.0,0.0,0.0,0.0,-1.7675,-1.6711,-1.6861,-1.7237,-1.7756,-1.7653,-1.7747,-1.8289,-1.8607,-1.8614,-1.8554,-1.8479,-1.8772,-1.9478,-1.9987,-2.0842,-2.1563,-2.1705,-2.1696,-2.1687,-2.1687,-2.1687,-2.1687,-2.1687,-2.1687,-2.1687,-2.1687,-2.1687,-2.1687,-2.1687,-2.1687,-4.0496,-4.0464,-3.996,-3.9495,-3.9066,-3.8533,-3.8335,-3.8391,-3.8391,-3.8363,-3.8307,-3.8363,-3.8307,-3.8119,-3.749,-3.7444,-3.7962,-3.7343,-3.696,-3.6822,-3.6596,-3.638,-3.6225,-3.5991,-3.6131,-3.649,-3.5684,-3.4593,-3.3301,-3.25,-3.136,-2.9875,-2.8788,-2.8691,-2.9528,-2.8134,-2.7162,-2.6668,-2.5982,-2.4762,-2.2934,-2.1789,-2.0929,-2.0416,-1.9397,-1.8621,-1.8149,-1.7117,-1.6608,-1.6655,-1.6584,-1.6793,-1.7394,-1.8682,0.0,0.0,0.0,0.0,0.0,0.0,0.0,0.0,0.0,-2.0659,-2.1275,0.0,-2.0721,0.0,-1.8762,-1.7926,-1.8002,-1.8234,0.0,0.0,-1.9231,-1.9185,-1.8742,-1.801,-1.7746,-1.8249,-1.7699,-1.7279,-1.7279,-1.7271,-1.7044,-1.647,-1.7229,-1.7841,-1.7794,-1.7648,-1.7399,-1.7356,-1.8481,-1.9382,-1.921,-2.0611,-2.1323,-2.0757,-2.1299,-2.1907,-2.2135,-2.1888,-2.1687,-2.1687,-2.1687,-2.1687,-2.1687,-2.1687,-2.1687,-2.1687,-2.1687,-2.1687,-2.1687,-2.1687,-2.1687,-4.1452,-4.1419,-4.1096,-4.0802,-4.0397,-3.9638,-3.9331,-3.9331,-3.9331,-3.9331,-3.9331,-3.9314,-3.9331,-3.9302,-3.8843,-3.8568,-3.8466,-3.8008,-3.7691,-3.7456,-3.7042,-3.6925,-3.7114,-3.6688,-3.6487,-3.6401,-3.5494,-3.4438,-3.327,-3.2414,-3.1522,-3.0568,-2.9078,-2.8801,-2.9616,-2.8177,-2.732,-2.7072,-2.651,-2.5139,-2.3024,-2.2026,-2.1165,-2.0367,-1.9407,-1.8887,-1.8826,-1.794,-1.7483,-1.7561,-1.7561,-1.7796,-1.8236,-1.9462,-2.0243,0.0,0.0,0.0,0.0,0.0,0.0,0.0,0.0,0.0,0.0,0.0,-2.0399,0.0,-1.8661,0.0,-1.828,-1.8319,-1.8319,-1.8326,-1.8326,-1.8087,-1.7544,-1.699,-1.6817,-1.7178,-1.681,-1.6487,-1.648,-1.6487,-1.6511,-1.6455,-1.7043,-1.7499,-1.7509,-1.7421,-1.7452,-1.7796,-1.8137,-1.8629,-1.9046,-2.045,-2.1531,-2.1536,-2.2088,-2.2501,-2.2318,-2.2099,-2.1906,-2.1733,-2.1687,-2.1687,-2.1687,-2.1687,-2.1687,-2.1687,-2.1687,-2.1687,-2.1687,-2.1687,-2.1687,-4.2602,-4.2554,-4.197,-4.1711,-4.1677,-4.1031,-4.0658,-4.0496,-4.0496,-4.0496,-4.0496,-4.0496,-4.0496,-4.0496,-4.0375,-3.9952,-3.925,-3.8978,-3.8844,-3.8672,-3.7775,-3.7644,-3.819,-3.7376,-3.6612,-3.583,-3.4802,-3.3888,-3.3164,-3.2164,-3.1661,-3.1572,-2.9521,-2.883,-2.935,-2.8058,-2.737,-2.7381,-2.6835,-2.5625,-2.3782,-2.3193,-2.2298,-2.0945,-2.0342,-2.0041,-2.0087,-1.9753,-1.9625,-1.9745,-1.979,-1.9745,-1.9563,-2.0642,-2.103,0.0,-2.1598,0.0,0.0,0.0,0.0,0.0,0.0,0.0,0.0,-1.9261,-1.9443,-1.9268,-1.8326,-1.7956,-1.8634,-1.8672,-1.8272,-1.7225,-1.7099,-1.6763,-1.592,-1.5825,-1.5825,-1.5825,-1.5825,-1.5825,-1.5825,-1.5825,-1.5997,-1.6567,-1.673,-1.6914,-1.7206,-1.7304,-1.7699,-1.8871,-1.7877,-1.7959,-1.9199,-1.9933,-2.0808,-2.1978,-2.2649,-2.2867,-2.2538,-2.24,-2.2236,-2.1888,-2.1797,-2.1769,-2.1705,-2.1687,-2.1687,-2.1687,-2.1687,-2.1687,-2.1687,-2.1687,-2.1687,-4.2602,-4.257,-4.2457,-4.2423,-4.2376,-4.2246,-4.1565,-4.0496,-4.0496,-4.0496,-4.0496,-4.0496,-4.0496,-4.045,-3.975,-3.9629,-3.9923,-3.8454,-3.8041,-3.8443,-3.7481,-3.7137,-3.7222,-3.7095,-3.69,-3.6652,-3.5102,-3.4223,-3.4014,-3.2457,-3.1572,-3.1339,-3.0136,-2.9498,-2.9428,0.0,0.0,0.0,-2.5712,-2.4433,-2.4029,-2.3038,-2.2013,-2.1018,-2.083,0.0,-1.9666,-1.9708,-1.9662,-1.9579,-1.9935,0.0,0.0,0.0,0.0,0.0,0.0,0.0,0.0,0.0,0.0,0.0,-1.9657,-1.9616,-1.9389,-1.9455,-1.9085,-1.8141,-1.7824,-1.7311,-1.652,-1.6433,-1.6332,-1.6109,-1.6109,-1.6015,-1.5825,-1.5825,-1.5825,-1.5825,-1.5825,-1.5825,-1.5825,-1.5825,-1.6052,-1.66,-1.6707,-1.6927,-1.7422,-1.7489,-1.7635,-1.7891,-1.8244,-1.9428,-2.1497,-2.1778,-2.2222,-2.3426,-2.3499,-2.337,-2.3233,-2.2977,-2.2648,-2.2245,-2.2163,-2.2053,-2.1769,-2.1687,-2.1687,-2.1687,-2.1687,-2.1687,-2.1687,-2.1687,-2.1687,-4.2602,0.0,-4.2602,-4.2602,0.0,-4.2602,-4.2182,-4.1549,-4.1518,-4.1549,-4.1549,-4.1549,-4.1549,-4.1518,-4.1068,-4.0544,-3.9961,-3.9063,-3.8311,-3.7691,-3.7222,-3.6978,-3.6978,-3.6978,-3.652,-3.5642,-3.4706,-3.3846,-3.2993,-3.212,-3.1617,-3.1484,-2.9749,-2.8819,-2.8656,-2.7067,-2.6648,-2.7468,-2.6003,-2.4513,-2.2968,-2.2349,-2.1428,-2.023,0.0,0.0,0.0,0.0,0.0,0.0,0.0,0.0,0.0,0.0,0.0,-1.8848,-1.9526,-1.9571,-1.8726,-1.871,-1.8426,-1.7708,-1.7662,-1.794,-1.8542,-1.8041,-1.7436,-1.6857,-1.6756,-1.648,-1.5872,-1.5825,-1.5825,-1.5825,-1.5825,-1.5825,-1.5825,-1.5825,-1.5825,-1.5825,-1.5825,-1.5825,-1.5825,-1.5825,-1.6017,-1.6593,-1.6707,-1.6921,-1.7448,-1.7483,-1.7378,-1.7259,-1.8753,-2.0135,-2.1226,-2.1996,-2.2769,-2.3809,-2.3978,-2.3776,-2.3526,-2.3334,-2.3068,-2.2675,-2.2428,-2.2245,-2.2071,-2.1833,-2.1687,-2.1687,-2.1687,-2.1687,-2.1687,-2.1687,-2.1687,-4.2602,-4.2602,-4.2602,-4.2602,-4.2602,-4.2602,-4.2602,-4.2602,0.0,0.0,0.0,-4.2602,-4.2602,-4.2602,-4.2602,-4.1641,-4.0074,-3.9864,-3.8862,-3.7275,-3.7081,-3.6978,-3.6978,-3.6978,-3.6229,-3.4802,-3.4472,-3.3564,-3.2164,-3.1869,-3.1705,-3.1472,-2.9189,-2.7782,-2.7274,-2.5528,-2.5265,-2.6524,-2.6418,-2.4905,-2.2156,-2.2106,-2.1327,-1.9729,-1.9486,-1.9915,-2.0945,-2.0367,-2.0091,-2.0204,-2.0058,-1.9758,-1.948,-1.9654,-1.96,-1.9152,-1.9289,-1.8802,-1.7451,-1.7515,-1.7095,-1.5872,-1.5825,-1.6251,-1.7318,-1.6433,-1.5825,-1.5825,-1.5825,-1.5825,-1.5825,-1.5825,-1.5825,-1.5825,-1.5825,-1.5825,-1.5825,-1.5825,-1.5825,-1.5825,-1.5825,-1.5825,-1.5825,-1.5825,-1.6019,-1.65,-1.6667,-1.6914,-1.7435,-1.743,-1.7325,-1.7516,-1.8902,-2.0231,-2.0853,-2.1574,-2.266,-2.3945,-2.4202,-2.4082,-2.3758,-2.3648,-2.3444,-2.3078,-2.2721,-2.2492,-2.2346,-2.2071,-2.1778,-2.1705,-2.1687,-2.1687,-2.1687,-2.1687,-2.1687,-4.2602,-4.2602,-4.2602,-4.2602,-4.2602,-4.2602,-4.2602,-4.2602,-4.2602,-4.2602,-4.2602,-4.2602,-4.2602,-4.2602,-4.2602,-4.2029,-4.0964,-4.0178,-3.9224,0.0,-3.7376,-3.6978,-3.6978,-3.6978,-3.6861,-3.652,-3.5061,-3.4181,-3.3804,-3.2413,-3.1705,-3.1427,-2.9383,-2.7284,-2.545,-2.4981,-2.5079,-2.5528,-2.5479,-2.4815,-2.3484,-2.3633,-2.2932,-2.1221,-2.1007,-2.0843,-2.0538,-2.0512,-2.0378,-1.9994,-2.0285,-1.9756,-1.8118,-1.8203,-1.7732,-1.6513,-1.6426,-1.6285,-1.6103,-1.6109,-1.6055,-1.5825,-1.5825,-1.5872,-1.6062,-1.592,-1.5825,-1.5825,-1.5825,-1.5825,-1.5825,-1.5825,-1.5825,-1.5825,-1.5825,-1.5825,-1.5825,-1.5825,-1.5825,-1.5825,-1.5825,-1.5825,-1.5825,-1.5825,-1.5952,-1.6286,-1.6567,-1.6914,-1.7368,-1.7582,-1.7943,-1.8603,-1.9117,-2.0151,-2.1641,-2.2266,-2.2979,-2.4003,-2.4211,-2.4183,-2.4091,-2.4064,-2.3877,-2.348,-2.3279,-2.2995,-2.2502,-2.2254,-2.2016,-2.1769,-2.1687,-2.1687,-2.1687,-2.1687,-2.1687,-4.2602,-4.2602,-4.2602,-4.2602,-4.2602,-4.2602,-4.2602,-4.2602,-4.2602,-4.2602,-4.2602,-4.2602,-4.2602,-4.2602,-4.2602,-4.1787,-4.042,-3.9969,-3.9037,-3.7653,-3.7197,-3.6978,-3.6978,-3.6978,-3.6744,-3.6243,-3.4938,-3.4056,-3.3522,-3.2326,-3.1705,-3.1516,-2.9292,-2.6941,-2.4824,-2.4587,-2.4646,-2.4883,-2.5137,-2.4766,-2.3741,-2.3692,-2.2639,-2.0506,-2.0253,-1.9778,-1.8926,-1.8799,-1.8686,-1.8447,-1.8334,-1.7842,-1.7018,-1.6834,-1.6506,-1.5872,-1.5825,-1.5825,-1.5825,-1.5825,-1.5825,-1.5825,-1.5825,-1.5825,-1.5825,-1.5825,-1.5825,-1.5825,-1.5825,-1.5825,-1.5825,-1.5825,-1.5825,-1.5825,-1.5825,-1.5825,-1.5825,-1.5825,-1.5825,-1.5825,-1.5825,-1.5825,-1.5825,-1.5825,-1.5939,-1.6233,-1.652,-1.682,-1.7125,-1.7626,-1.8249,-1.9096,-2.0158,-2.1285,-2.2358,-2.3088,-2.3596,-2.4152,-2.4211,-2.4211,-2.4211,-2.4202,-2.4101,-2.3877,-2.3547,-2.3068,-2.2629,-2.2236,-2.1934,-2.1778,-2.1687,-2.1687,-2.1687,-2.1687,-2.1687,-4.2732,-4.2602,-4.2602,-4.2602,-4.2602,-4.2602,-4.2602,-4.2602,-4.2602,-4.2602,-4.2602,-4.2602,-4.2602,-4.2602,-4.2602,-4.1591,-3.9969,-3.9793,-3.8789,-3.7134,-3.6978,-3.6978,-3.6978,-3.6978,-3.6665,-3.591,-3.4856,-3.393,-3.3237,-3.2251,-3.1516,-3.1104,-2.9269,-2.7216,-2.4952,-2.4775,-2.4677,-2.4627,-2.499,-2.4667,-2.3543,-2.3384,-2.2265,-2.029,-1.9834,-1.9324,-1.8537,-1.8281,-1.7972,-1.7633,-1.72,-1.675,-1.6321,-1.6052,-1.5851,-1.5838,-1.5825,-1.5825,-1.5825,-1.5825,-1.5825,-1.5825,-1.5825,-1.5825,-1.5825,-1.5825,-1.5825,-1.5825,-1.5825,-1.5825,-1.5825,-1.5825,-1.5825,-1.5825,-1.5825,-1.5825,-1.5825,-1.5825,-1.5825,-1.5825,-1.5825,-1.5825,-1.5825,-1.5825,-1.5952,-1.6233,-1.6473,-1.6663,-1.703,-1.7888,-1.881,-1.9737,-2.1143,-2.2177,-2.2527,-2.3251,-2.3742,-2.3877,-2.3898,-2.3813,-2.3822,-2.3859,-2.3868,-2.3749,-2.3373,-2.2913,-2.2748,-2.2309,-2.1879,-2.1733,-2.1687,-2.1687,-2.1687,-2.1687,-2.1687,-4.3217,-4.2651,-4.2619,-4.2602,-4.2602,-4.2602,-4.2602,-4.2602,-4.2602,-4.2602,-4.2602,-4.2602,-4.2602,-4.2602,-4.2602,-4.1575,-3.9864,-3.9793,-3.8803,-3.712,-3.6978,-3.6978,-3.6978,-3.6978,-3.694,-3.6652,-3.5142,-3.4223,-3.4014,-3.25,-3.1104,-3.0091,-2.9715,-2.8448,-2.6474,-2.6196,-2.5771,-2.4883,-2.4883,-2.4313,-2.3094,-2.3185,-2.2726,-2.155,-2.1269,-2.1167,-2.1143,-2.1084,-2.0323,-1.9179,-1.8938,-1.8145,-1.6591,-1.6295,-1.6161,-1.5899,-1.5825,-1.5825,-1.5825,-1.5825,-1.5825,-1.5825,-1.5825,-1.5825,-1.5825,-1.5825,-1.5825,-1.5825,-1.5825,-1.5825,-1.5825,-1.5825,-1.5825,-1.5825,-1.5825,-1.5825,-1.5825,-1.5825,-1.5825,-1.5825,-1.5825,-1.5825,-1.5825,-1.5825,-1.5939,-1.6179,-1.6405,-1.6821,-1.7689,-1.8844,-1.9822,-2.066,-2.1394,-2.187,-2.2593,-2.289,-2.3123,-2.3096,-2.305,-2.3114,-2.3151,-2.3123,-2.3041,-2.3233,-2.3004,-2.2748,-2.2501,-2.2272,-2.2071,-2.176,-2.1687,-2.1687,-2.1687,-2.1687,-2.1687,-4.3541,-4.3201,-4.278,-4.2602,-4.2602,-4.2602,-4.2602,-4.2602,-4.2602,-4.2602,-4.2602,-4.2602,-4.2602,-4.2602,-4.2602,-4.1591,-3.9864,-3.9793,-3.8803,-3.7095,-3.6978,-3.6978,-3.6978,-3.6978,-3.6978,-3.6822,-3.5183,-3.4293,-3.4014,-3.2531,-3.1059,-2.9897,-2.9761,-2.8958,-2.7358,-2.6559,-2.5945,-2.5518,-2.4971,-2.4381,-2.3967,-2.4115,-2.38,-2.2968,-2.2484,-2.1979,-2.1473,-2.1183,-2.0856,-2.0452,-2.0112,-1.9529,-1.8663,-1.8315,-1.7973,-1.7581,-1.699,-1.6723,-1.6676,-1.6157,-1.5825,-1.5825,-1.5825,-1.5825,-1.5825,-1.5825,-1.5825,-1.5825,-1.5825,-1.5825,-1.5825,-1.5825,-1.5825,-1.5825,-1.5825,-1.5825,-1.5825,-1.5825,-1.5825,-1.5825,-1.5825,-1.5825,-1.5825,-1.5825,-1.5879,-1.6088,-1.6484,-1.7189,-1.7713,-1.902,-2.0145,-2.0665,-2.1145,-2.1892,-2.2655,-2.2913,-2.2895,-2.2895,-2.2913,-2.2913,-2.2876,-2.2904,-2.2913,-2.2885,-2.2684,-2.2501,-2.2346,-2.2062,-2.1861,-2.1696,-2.1687,-2.1687,-2.1687,-2.1687,-2.1687,-4.3881,-4.3605,-4.291,-4.2602,-4.2602,-4.2602,-4.2602,-4.2602,-4.2602,-4.2602,-4.2602,-4.2602,-4.246,-4.2238,-4.2285,-4.1278,-3.9652,-3.9489,-3.8598,-3.7134,-3.6978,-3.6978,-3.6978,-3.6978,-3.6978,-3.6691,-3.5183,-3.4056,-3.3522,-3.2413,-3.1205,-3.0407,-3.0317,-2.9704,-2.8519,-2.7206,-2.6416,-2.6137,-2.506,-2.448,-2.4587,-2.4735,-2.4569,-2.4156,-2.3701,-2.3103,-2.2442,-2.2148,-2.1946,-2.1828,-2.1337,-2.0827,-2.0305,-1.9765,-1.9294,-1.8789,-1.8102,-1.7699,-1.7692,-1.681,-1.6204,-1.6211,-1.6015,-1.5825,-1.5825,-1.5825,-1.5825,-1.5825,-1.5825,-1.5825,-1.5825,-1.5825,-1.5825,-1.5825,-1.5825,-1.5825,-1.5825,-1.5825,-1.5825,-1.5825,-1.5825,-1.592,-1.6157,-1.6251,-1.6353,-1.677,-1.7326,-1.7878,-1.8195,-1.9409,-2.0374,-2.0619,-2.1329,-2.1844,-2.2455,-2.251,-2.2565,-2.2565,-2.251,-2.2501,-2.2574,-2.2565,-2.2565,-2.2309,-2.2199,-2.2135,-2.2053,-2.1833,-2.1714,-2.1696,-2.1687,-2.1687,-2.1687,-2.1687,-2.1687,-4.435,-4.3622,-4.291,-4.2602,-4.2602,-4.2602,-4.2602,-4.2602,-4.2602,-4.2602,-4.2602,-4.2539,-4.2094,-4.128,-4.1411,-4.0519,-3.8928,-3.8796,-3.8182,-3.7056,-3.6978,-3.6978,-3.6978,-3.6978,-3.6978,-3.6861,-3.5264,-3.3606,-3.2077,-3.1793,-3.1673,-3.1572,-3.1528,-3.1059,-2.9977,-2.8577,-2.7463,-2.6723,-2.5206,-2.444,-2.4735,-2.4637,-2.4735,-2.503,-2.4932,-2.4784,-2.4932,-2.4784,-2.4214,-2.3235,-2.2765,-2.199,-2.073,-2.0033,-1.9449,-1.8974,-1.8788,-1.875,-1.8603,-1.7785,-1.7232,-1.7145,-1.6527,-1.5872,-1.5967,-1.5967,-1.592,-1.5825,-1.5825,-1.5825,-1.5825,-1.5825,-1.5825,-1.5825,-1.5825,-1.5825,-1.5825,-1.5825,-1.5825,-1.5825,-1.5872,-1.6339,-1.7099,-1.7232,-1.7598,-1.8187,-1.865,-1.898,-1.9704,-2.0212,-2.0718,-2.1275,-2.1597,-2.1714,-2.176,-2.1934,-2.1888,-2.1916,-2.2007,-2.1851,-2.1769,-2.1742,-2.1787,-2.1815,-2.1824,-2.1806,-2.1742,-2.1714,-2.1696,-2.1687,-2.1687,-2.1687,-2.1687,-2.1687,-2.1687,-4.4755,-4.3654,-4.291,-4.2602,-4.2602,-4.2602,-4.2602,-4.2602,-4.2602,-4.2602,-4.2492,-4.1997,-4.1247,-4.0488,-3.9934,-3.929,-3.8561,-3.8487,-3.7956,-3.7056,-3.6978,-3.6978,-3.6978,-3.6978,-3.6978,-3.6822,-3.5776,-3.429,-3.2618,-3.1989,-3.1705,-3.1705,-3.1705,-3.1472,-3.0958,-2.9795,-2.8588,-2.7453,-2.6031,-2.5099,-2.4569,-2.435,-2.4498,-2.4794,-2.4883,-2.4941,-2.503,-2.4932,-2.4613,-2.3953,-2.365,-2.3074,-2.2241,-2.1588,-2.1139,-2.0871,-2.0212,-1.9749,-1.9658,-1.8834,-1.8241,-1.8241,-1.7956,-1.7358,-1.6904,-1.6763,-1.6534,-1.6015,-1.5825,-1.5825,-1.5825,-1.5825,-1.5825,-1.5825,-1.5825,-1.5825,-1.5825,-1.5825,-1.5825,-1.592,-1.6292,-1.7185,-1.7963,-1.8249,-1.838,-1.8788,-1.9338,-1.9886,-2.0303,-2.0763,-2.1311,-2.1597,-2.1687,-2.1687,-2.1687,-2.1705,-2.1705,-2.1705,-2.1723,-2.1742,-2.1705,-2.1696,-2.1751,-2.176,-2.1696,-2.1696,-2.1705,-2.1705,-2.1687,-2.1687,-2.1687,-2.1687,-2.1687,-2.1687,-2.1687,-4.4787,-4.3686,-4.2894,-4.2602,-4.2602,-4.2602,-4.2602,-4.2602,-4.2602,-4.2602,-4.2429,-4.1592,-4.0761,-3.9934,-3.9022,-3.8316,-3.7979,-3.7994,-3.7668,-3.7017,-3.6978,-3.6978,-3.6978,-3.6978,-3.6978,-3.6783,-3.5776,-3.4444,-3.3066,-3.2108,-3.1705,-3.1705,-3.1705,-3.1621,-3.1256,-3.0165,-2.9025,-2.8015,-2.677,-2.57,-2.5063,-2.4611,-2.4515,-2.4611,-2.4573,-2.46,-2.4684,-2.4684,-2.4543,-2.4222,-2.389,-2.3494,-2.3014,-2.2513,-2.2185,-2.2008,-2.1311,-2.0853,-2.0664,-1.984,-1.9293,-1.9247,-1.8926,-1.8473,-1.7831,-1.7785,-1.7412,-1.6943,-1.6756,-1.6756,-1.6756,-1.6803,-1.6527,-1.6062,-1.6062,-1.6109,-1.5879,-1.5825,-1.5967,-1.6386,-1.7225,-1.8149,-1.9063,-1.9247,-1.9438,-1.9666,-2.0348,-2.0718,-2.0853,-2.123,-2.1687,-2.1687,-2.1687,-2.1687,-2.1687,-2.1687,-2.1687,-2.1687,-2.1687,-2.1687,-2.1687,-2.1687,-2.1687,-2.1687,-2.1687,-2.1687,-2.1687,-2.1687,-2.1687,-2.1687,-2.1687,-2.1687,-2.1687,-2.1687,-2.1687,-4.4399,-4.3702,-4.2894,-4.2602,-4.2602,-4.2602,-4.2602,-4.2602,-4.2602,-4.2602,-4.246,-4.1559,-4.0591,-3.9758,-3.8745,-3.7843,-3.7275,-3.7327,-3.725,-3.7017,-3.6978,-3.6978,-3.6978,-3.6908,-3.6824,-3.6718,-3.5143,-3.3894,-3.2958,-3.2111,-3.1636,-3.1633,-3.156,-3.1296,-3.0879,-2.9741,-2.894,-2.8306,-2.7125,-2.6481,-2.6485,-2.5483,-2.4891,-2.4851,-2.4187,-2.3937,-2.4278,-2.4259,-2.4212,-2.397,-2.3597,-2.3201,-2.284,-2.2539,-2.2309,-2.2141,-2.2052,-2.1919,-2.1597,-2.0808,-2.0303,-2.0212,-1.9476,-1.9018,-1.8888,-1.8796,-1.8696,-1.8465,-1.8511,-1.8603,-1.8557,-1.8603,-1.7909,-1.6292,-1.6622,-1.6723,-1.6062,-1.5825,-1.6244,-1.7271,-1.8288,-1.9201,-1.9977,-2.0303,-2.0538,-2.1141,-2.1463,-2.1508,-2.1454,-2.1597,-2.1687,-2.1687,-2.1687,-2.1687,-2.1687,-2.1687,-2.1687,-2.1687,-2.1687,-2.1687,-2.1687,-2.1687,-2.1687,-2.1687,-2.1687,-2.1687,-2.1687,-2.1687,-2.1687,-2.1687,-2.1687,-2.1687,-2.1687,-2.1687,-2.1687,-4.4658,-4.4302,-4.3104,-4.2602,-4.2602,-4.2602,-4.2602,-4.2602,-4.2602,-4.2602,-4.2317,-4.0946,-4.0039,-3.9474,-3.8204,-3.7275,-3.7017,-3.707,-3.707,-3.6964,-3.6964,-3.6964,-3.6894,-3.6557,-3.6159,-3.5633,-3.4564,-3.3516,-3.2725,-3.1847,-3.1178,-3.0707,-3.0645,-3.0494,-3.0338,-2.992,-2.9363,-2.8364,-2.7896,-2.7272,-2.643,-2.5315,-2.4742,-2.4615,-2.3858,-2.3458,-2.3418,-2.372,-2.3709,-2.3402,-2.3269,-2.3066,-2.2802,-2.253,-2.2397,-2.2274,-2.2008,-2.1785,-2.1687,-2.1454,-2.1221,-2.1221,-2.0907,-2.0492,-1.9931,-1.984,-1.9521,-1.8972,-1.8796,-1.8796,-1.888,-1.9476,-1.8918,-1.7044,-1.7091,-1.6998,-1.6244,-1.6487,-1.7598,-1.9018,-1.9658,-2.0257,-2.0952,-2.123,-2.132,-2.1597,-2.1687,-2.1687,-2.1687,-2.1687,-2.1687,-2.1687,-2.1687,-2.1687,-2.1687,-2.1687,-2.1687,-2.1687,-2.1687,-2.1687,-2.1687,-2.1687,-2.1687,-2.1687,-2.1687,-2.1687,-2.1687,-2.1687,-2.1687,-2.1687,-2.1687,-2.1687,-2.1687,-2.1687,-2.1687,-4.4804,-4.4642,-4.3201,-4.2602,-4.2602,-4.2602,-4.2602,-4.2571,-4.2285,-4.2174,-4.1835,-4.0297,-3.9454,-3.9094,-3.7782,-3.7109,-3.6978,-3.6978,-3.6866,-3.6708,-3.668,-3.6694,-3.6595,-3.6061,-3.5597,-3.5111,-3.4248,-3.3377,-3.2594,-3.1741,-3.0881,-3.0224,-3.0086,-2.9989,-2.9821,-2.9785,-2.9284,-2.8444,-2.8279,-2.7912,-2.7091,-2.6096,-2.5581,-2.535,-2.4232,-2.3528,-2.3376,-2.3257,-2.3059,-2.2976,-2.2919,-2.2786,-2.2779,-2.253,-2.2397,-2.2353,-2.2087,-2.183,-2.1741,-2.1687,-2.1687,-2.1687,-2.1687,-2.1463,-2.0943,-2.0808,-2.0492,-2.0031,-1.994,-1.9894,-2.0031,-2.0393,-2.0031,-1.8611,-1.8465,-1.7963,-1.7264,-1.7777,-1.8796,-1.9977,-2.0583,-2.1096,-2.1508,-2.1687,-2.1687,-2.1687,-2.1687,-2.1687,-2.1687,-2.1687,-2.1687,-2.1687,-2.1687,-2.1687,-2.1687,-2.1687,-2.1687,-2.1687,-2.1687,-2.1687,-2.1687,-2.1687,-2.1687,-2.1687,-2.1687,-2.1687,-2.1687,-2.1687,-2.1687,-2.1687,-2.1687,-2.1687,-2.1687,-2.1687,-2.1687,-4.4804,-4.4609,-4.3201,-4.2602,-4.2602,-4.2602,-4.2602,-4.2492,-4.1835,-4.1591,-4.1211,-3.9793,-3.8964,-3.859,-3.7734,-3.7187,-3.7042,-3.6852,-3.6638,-3.623,-3.6033,-3.5883,-3.5808,-3.5372,-3.5048,-3.4789,-3.4104,-3.3292,-3.2306,-3.1594,-3.0824,-2.9982,-2.9821,-2.9749,-2.934,-2.9256,-2.8999,-2.8554,-2.8487,-2.8406,-2.8326,-2.7499,-2.7037,-2.6896,-2.5083,-2.3967,-2.3794,-2.2934,-2.2438,-2.2725,-2.2631,-2.2621,-2.2715,-2.2583,-2.2397,-2.2397,-2.222,-2.1963,-2.1776,-2.1687,-2.1687,-2.1687,-2.1687,-2.1687,-2.1553,-2.1508,-2.1463,-2.1365,-2.141,-2.1508,-2.1508,-2.1553,-2.1141,-2.0529,-1.9886,-1.9384,-1.9063,-1.9613,-2.0113,-2.0484,-2.1132,-2.1687,-2.1687,-2.1687,-2.1687,-2.1687,-2.1687,-2.1687,-2.1687,-2.1687,-2.1687,-2.1687,-2.1687,-2.1687,-2.1687,-2.1687,-2.1687,-2.1687,-2.1687,-2.1687,-2.1687,-2.1687,-2.1687,-2.1687,-2.1687,-2.1687,-2.1687,-2.1687,-2.1687,-2.1687,-2.1687,-2.1687,-2.1687,-2.1687,-2.1687,-4.4804,-4.4625,-4.3201,-4.2602,-4.2602,-4.2602,-4.2602,-4.2492,-4.1835,-4.1492,-4.1111,-3.9723,-3.8964,-3.8782,-3.7758,-3.7264,-3.7102,-3.6606,-3.6314,-3.5977,-3.5068,-3.4745,-3.4666,-3.4526,-3.4253,-3.3844,-3.3579,-3.2736,-3.1415,-3.1202,-3.035,-2.896,-2.9044,-2.8907,-2.8727,-2.8751,-2.8655,-2.8534,-2.851,-2.851,-2.8339,-2.7499,-2.6905,-2.6771,-2.5694,-2.4681,-2.392,-2.2906,-2.2441,-2.2759,-2.275,-2.2794,-2.2925,-2.2618,-2.2397,-2.2397,-2.223,-2.2008,-2.1776,-2.1687,-2.1687,-2.1687,-2.1687,-2.1687,-2.1687,-2.1687,-2.1687,-2.1687,-2.1687,-2.1687,-2.1687,-2.1687,-2.1508,-2.123,-2.0257,-1.9567,-1.9886,-2.0121,-2.0538,-2.123,-2.1544,-2.1642,-2.1687,-2.1687,-2.1687,-2.1687,-2.1687,-2.1687,-2.1687,-2.1687,-2.1687,-2.1687,-2.1687,-2.1687,-2.1687,-2.1687,-2.1687,-2.1687,-2.1687,-2.1687,-2.1687,-2.1687,-2.1687,-2.1687,-2.1687,-2.1687,-2.1687,-2.1687,-2.1687,-2.1687,-2.1687,-2.1687,-2.1687,-2.1687,-2.1687,-4.4804,-4.4658,-4.3201,-4.2602,-4.2602,-4.2602,-4.2602,-4.246,-4.1835,-4.1311,-4.0792,-3.9703,-3.8906,-3.8457,-3.7734,-3.738,-3.7179,-3.6461,-3.5991,-3.5489,-3.4436,-3.388,-3.3824,-3.381,-3.3613,-3.3382,-3.3396,-3.2731,-3.17,-3.1217,-3.0329,-2.9339,-2.8697,-2.851,-2.8546,-2.851,-2.851,-2.851,-2.851,-2.851,-2.8431,-2.7874,-2.762,-2.7325,-2.6565,-2.5389,-2.4006,-2.3464,-2.3125,-2.2794,-2.2627,-2.2662,-2.2784,-2.2564,-2.2397,-2.2397,-2.2185,-2.2052,-2.1874,-2.1776,-2.1687,-2.1687,-2.1687,-2.1687,-2.1687,-2.1687,-2.1687,-2.1687,-2.1687,-2.1687,-2.1687,-2.1687,-2.1687,-2.1553,-2.0673,-2.0257,-2.0844,-2.0898,-2.1132,-2.1553,-2.1687,-2.1687,-2.1687,-2.1687,-2.1687,-2.1687,-2.1687,-2.1687,-2.1687,-2.1687,-2.1687,-2.1687,-2.1687,-2.1687,-2.1687,-2.1687,-2.1687,-2.1687,-2.1687,-2.1687,-2.1687,-2.1687,-2.1687,-2.1687,-2.1687,-2.1687,-2.1687,-2.1687,-2.1687,-2.1687,-2.1687,-2.1687,-2.1687,-2.1687,-2.1687,-4.4739,-4.4561,-4.3169,-4.2602,-4.2602,-4.2602,-4.2602,-4.246,-4.1656,-4.0995,-4.0332,-3.9555,-3.8716,-3.7929,-3.7725,-3.7495,-3.7299,-3.6461,-3.5709,-3.4955,-3.4,-3.3375,-3.3389,-3.3473,-3.3466,-3.3431,-3.357,-3.3094,-3.234,-3.1659,-3.0844,-2.9922,-2.9067,-2.8618,-2.855,-2.851,-2.851,-2.851,-2.851,-2.851,-2.851,-2.8339,-2.8299,-2.8139,-2.7191,-2.5975,-2.4755,-2.4221,-2.3854,-2.2652,-2.2476,-2.253,-2.2476,-2.2476,-2.2397,-2.2397,-2.2264,-2.2141,-2.2061,-2.183,-2.1741,-2.1741,-2.1687,-2.1687,-2.1687,-2.1687,-2.1687,-2.1687,-2.1687,-2.1687,-2.1687,-2.1687,-2.1687,-2.1687,-2.1597,-2.1642,-2.1687,-2.1687,-2.1687,-2.1687,-2.1687,-2.1687,-2.1687,-2.1687,-2.1687,-2.1687,-2.1687,-2.1687,-2.1687,-2.1687,-2.1687,-2.1687,-2.1687,-2.1687,-2.1687,-2.1687,-2.1687,-2.1687,-2.1687,-2.1687,-2.1687,-2.1687,-2.1687,-2.1687,-2.1687,-2.1687,-2.1687,-2.1687,-2.1687,-2.1687,-2.1687,-2.1687,-2.1687,-2.1687,-2.1687,-4.4447,-4.3864,-4.2975,-4.2602,-4.2602,-4.2602,-4.2602,-4.246,-4.1211,-4.0622,-4.0139,-3.903,-3.8375,-3.8104,-3.7763,-3.7586,-3.7386,-3.6495,-3.5503,-3.4371,-3.3669,-3.3304,-3.3312,-3.3431,-3.3619,-3.3709,-3.3779,-3.3403,-3.2712,-3.2182,-3.1402,-3.0126,-2.9549,-2.9106,-2.859,-2.851,-2.851,-2.851,-2.851,-2.851,-2.851,-2.851,-2.851,-2.8391,-2.7447,-2.673,-2.6016,-2.4882,-2.4049,-2.3671,-2.3125,-2.2882,-2.2794,-2.2564,-2.2432,-2.2388,-2.2344,-2.2176,-2.1919,-2.1919,-2.1919,-2.1741,-2.1687,-2.1687,-2.1687,-2.1687,-2.1687,-2.1687,-2.1687,-2.1687,-2.1687,-2.1687,-2.1687,-2.1687,-2.1687,-2.1687,-2.1687,-2.1687,-2.1687,-2.1687,-2.1687,-2.1687,-2.1687,-2.1687,-2.1687,-2.1687,-2.1687,-2.1687,-2.1687,-2.1687,-2.1687,-2.1687,-2.1687,-2.1687,-2.1687,-2.1687,-2.1687,-2.1687,-2.1687,-2.1687,-2.1687,-2.1687,-2.1687,-2.1687,-2.1687,-2.1687,-2.1687,-2.1687,-2.1687,-2.1687,-2.1687,-2.1687,-2.1687,-2.1687,-2.1687,-4.4059,-4.3638,-4.2894,-4.2602,-4.2602,-4.2602,-4.2397,-4.2013,-4.1294,-4.0519,-3.9824,-3.9009,-3.8486,-3.8066,-3.7725,-3.7534,-3.7191,-3.6226,-3.5138,-3.4231,-3.3599,-3.3375,-3.3431,-3.3536,-3.3675,-3.3779,-3.3937,-3.3681,-3.3269,-3.2448,-3.1499,-3.0606,-2.9742,-2.8922,-2.859,-2.851,-2.851,-2.851,-2.851,-2.851,-2.851,-2.851,-2.851,-2.8471,-2.7874,-2.7406,-2.6689,-2.611,-2.5052,-2.4296,-2.3767,-2.3353,-2.2969,-2.2618,-2.2441,-2.2388,-2.2264,-2.2185,-2.2008,-2.1874,-2.182,-2.1741,-2.1687,-2.1687,-2.1687,-2.1687,-2.1687,-2.1687,-2.1687,-2.1687,-2.1687,-2.1687,-2.1687,-2.1687,-2.1687,-2.1687,-2.1687,-2.1687,-2.1687,-2.1687,-2.1687,-2.1687,-2.1687,-2.1687,-2.1687,-2.1687,-2.1687,-2.1687,-2.1687,-2.1687,-2.1687,-2.1687,-2.1687,-2.1687,-2.1687,-2.1687,-2.1687,-2.1687,-2.1687,-2.1687,-2.1687,-2.1687,-2.1687,-2.1687,-2.1687,-2.1687,-2.1687,-2.1687,-2.1687,-2.1687,-2.1687,-2.1687,-2.1687,-2.1687,-2.1687,-4.3654,-4.3492,-4.2861,-4.2602,-4.2602,-4.246,-4.2077,-4.1558,-4.1245,-4.0313,-3.9463,-3.9211,-3.856,-3.8028,-3.7701,-3.751,-3.702,-3.6142,-3.5207,-3.4608,-3.3859,-3.3579,-3.3592,-3.3605,-3.3605,-3.364,-3.3937,-3.3991,-3.3618,-3.2577,-3.1769,-3.1204,-2.9653,-2.8803,-2.8578,-2.851,-2.851,-2.851,-2.851,-2.851,-2.851,-2.851,-2.851,-2.8471,-2.8391,-2.7995,-2.7366,-2.6917,-2.6329,-2.4723,-2.4659,-2.4069,-2.3309,-2.2662,-2.2441,-2.2441,-2.2264,-2.2141,-2.1963,-2.1874,-2.1776,-2.1731,-2.1687,-2.1687,-2.1687,-2.1687,-2.1687,-2.1687,-2.1687,-2.1687,-2.1687,-2.1687,-2.1687,-2.1687,-2.1687,-2.1687,-2.1687,-2.1687,-2.1687,-2.1687,-2.1687,-2.1687,-2.1687,-2.1687,-2.1687,-2.1687,-2.1687,-2.1687,-2.1687,-2.1687,-2.1687,-2.1687,-2.1687,-2.1687,-2.1687,-2.1687,-2.1687,-2.1687,-2.1687,-2.1687,-2.1687,-2.1687,-2.1687,-2.1687,-2.1687,-2.1687,-2.1687,-2.1687,-2.1687,-2.1687,-2.1687,-2.1687,-2.1687,-2.1687,-2.1687,-4.3331,-4.2764,-4.2651,-4.2602,-4.2492,-4.1933,-4.1624,-4.1278,-4.0243,-3.957,-3.9247,-3.8642,-3.8352,-3.8066,-3.7725,-3.7495,-3.7143,-3.6415,-3.5829,-3.5257,-3.4467,-3.3917,-3.3691,-3.3585,-3.357,-3.3695,-3.3888,-3.4059,-3.3874,-3.3044,-3.2074,-3.1365,-3.0139,-2.9211,-2.8657,-2.851,-2.851,-2.851,-2.851,-2.851,-2.851,-2.851,-2.851,-2.851,-2.851,-2.8339,-2.8087,-2.7551,-2.701,-2.6629,-2.5944,-2.5158,-2.4241,-2.3299,-2.275,-2.2441,-2.2344,-2.2132,-2.1874,-2.1919,-2.1865,-2.1776,-2.1687,-2.1687,-2.1687,-2.1687,-2.1687,-2.1687,-2.1687,-2.1687,-2.1687,-2.1687,-2.1687,-2.1687,-2.1687,-2.1687,-2.1687,-2.1687,-2.1687,-2.1687,-2.1687,-2.1687,-2.1687,-2.1687,-2.1687,-2.1687,-2.1687,-2.1687,-2.1687,-2.1687,-2.1687,-2.1687,-2.1687,-2.1687,-2.1687,-2.1687,-2.1687,-2.1687,-2.1687,-2.1687,-2.1687,-2.1687,-2.1687,-2.1687,-2.1687,-2.1687,-2.1687,-2.1687,-2.1687,-2.1687,-2.1687,-2.1687,-2.1687,-2.1687,-2.1687,-4.2926,-4.2619,-4.2602,-4.2602,-4.246,-4.1835,-4.1278,-4.0808,-3.9788,-3.9066,-3.873,-3.8375,-3.8127,-3.8028,-3.7853,-3.761,-3.7339,-3.6703,-3.6287,-3.5833,-3.4834,-3.4126,-3.3825,-3.3635,-3.3445,-3.3486,-3.3695,-3.3957,-3.3991,-3.3129,-3.2304,-3.1439,-3.0405,-2.9406,-2.8697,-2.851,-2.851,-2.851,-2.851,-2.851,-2.851,-2.851,-2.851,-2.851,-2.851,-2.851,-2.8431,-2.8179,-2.7644,-2.7185,-2.6753,-2.6038,-2.5189,-2.4274,-2.3299,-2.2608,-2.2309,-2.2087,-2.1785,-2.183,-2.1776,-2.1731,-2.1687,-2.1687,-2.1687,-2.1687,-2.1687,-2.1687,-2.1687,-2.1687,-2.1687,-2.1687,-2.1687,-2.1687,-2.1687,-2.1687,-2.1687,-2.1687,-2.1687,-2.1687,-2.1687,-2.1687,-2.1687,-2.1687,-2.1687,-2.1687,-2.1687,-2.1687,-2.1687,-2.1687,-2.1687,-2.1687,-2.1687,-2.1687,-2.1687,-2.1687,-2.1687,-2.1687,-2.1687,-2.1687,-2.1687,-2.1687,-2.1687,-2.1687,-2.1687,-2.1687,-2.1687,-2.1687,-2.1687,-2.1687,-2.1687,-2.1687,-2.1687,-2.1687,-2.1687,-4.2602,-4.2602,-4.2602,-4.2523,-4.2285,-4.1591,-4.0826,-4.0139,-3.9376,-3.8767,-3.8277,-3.8202,-3.8104,-3.8005,-3.7967,-3.7839,-3.7606,-3.6954,-3.6726,-3.6239,-3.5167,-3.4444,-3.412,-3.3677,-3.3312,-3.3361,-3.3466,-3.3709,-3.375,-3.3094,-3.2282,-3.1402,-3.043,-2.951,-2.8685,-2.851,-2.851,-2.851,-2.851,-2.851,-2.851,-2.851,-2.851,-2.851,-2.851,-2.851,-2.8471,-2.8431,-2.8099,-2.7725,-2.7389,-2.7051,-2.6163,-2.5421,-2.436,-2.2994,-2.2441,-2.2043,-2.1874,-2.1687,-2.1731,-2.1687,-2.1687,-2.1687,-2.1687,-2.1687,-2.1687,-2.1687,-2.1687,-2.1687,-2.1687,-2.1687,-2.1687,-2.1687,-2.1687,-2.1687,-2.1687,-2.1687,-2.1687,-2.1687,-2.1687,-2.1687,-2.1687,-2.1687,-2.1687,-2.1687,-2.1687,-2.1687,-2.1687,-2.1687,-2.1687,-2.1687,-2.1687,-2.1687,-2.1687,-2.1687,-2.1687,-2.1687,-2.1687,-2.1687,-2.1687,-2.1687,-2.1687,-2.1687,-2.1687,-2.1687,-2.1687,-2.1687,-2.1687,-2.1687,-2.1687,-2.1687,-2.1687,-2.1687,-2.1687,-4.2602,-4.2602,-4.2602,-4.2222,-4.1591,-4.086,-4.0154,-3.9427,-3.8716,-3.83,-3.8202,-3.8202,-3.8202,-3.8179,-3.8165,-3.8028,-3.7834,-3.7634,-3.7257,-3.6762,-3.5719,-3.4885,-3.4419,-3.3656,-3.3354,-3.3276,-3.3312,-3.3466,-3.3521,-3.3037,-3.2196,-3.1278,-3.0506,-2.951,-2.8578,-2.851,-2.851,-2.851,-2.851,-2.851,-2.851,-2.851,-2.851,-2.851,-2.851,-2.851,-2.851,-2.851,-2.8351,-2.8351,-2.8299,-2.7886,-2.7214,-2.6958,-2.5788,-2.4264,-2.3038,-2.2274,-2.2052,-2.183,-2.1687,-2.1687,-2.1687,-2.1687,-2.1687,-2.1687,-2.1687,-2.1687,-2.1687,-2.1687,-2.1687,-2.1687,-2.1687,-2.1687,-2.1687,-2.1687,-2.1687,-2.1687,-2.1687,-2.1687,-2.1687,-2.1687,-2.1687,-2.1687,-2.1687,-2.1687,-2.1687,-2.1687,-2.1687,-2.1687,-2.1687,-2.1687,-2.1687,-2.1687,-2.1687,-2.1687,-2.1687,-2.1687,-2.1687,-2.1687,-2.1687,-2.1687,-2.1687,-2.1687,-2.1687,-2.1687,-2.1687,-2.1687,-2.1687,-2.1687,-2.1687,-2.1687,-2.1687,-2.1687,-2.1687,-4.2602,-4.2602,-4.2602,-4.219,-4.1459,-4.069,-3.9964,-3.9233,-3.8509,-3.8202,-3.8202,-3.8202,-3.8202,-3.8202,-3.8202,-3.8104,-3.7929,-3.7815,-3.7534,-3.6958,-3.5994,-3.5195,-3.4699,-3.3867,-3.329,-3.3276,-3.3276,-3.3312,-3.3347,-3.3178,-3.2569,-3.1291,-3.0769,-2.9909,-2.8657,-2.851,-2.851,-2.851,-2.851,-2.851,-2.851,-2.851,-2.851,-2.851,-2.851,-2.851,-2.851,-2.851,-2.851,-2.851,-2.851,-2.8351,-2.7886,-2.7429,-2.6464,-2.5231,-2.4006,-2.3028,-2.222,-2.1874,-2.1741,-2.1687,-2.1687,-2.1687,-2.1687,-2.1687,-2.1687,-2.1687,-2.1687,-2.1687,-2.1687,-2.1687,-2.1687,-2.1687,-2.1687,-2.1687,-2.1687,-2.1687,-2.1687,-2.1687,-2.1687,-2.1687,-2.1687,-2.1687,-2.1687,-2.1687,-2.1687,-2.1687,-2.1687,-2.1687,-2.1687,-2.1687,-2.1687,-2.1687,-2.1687,-2.1687,-2.1687,-2.1687,-2.1687,-2.1687,-2.1687,-2.1687,-2.1687,-2.1687,-2.1687,-2.1687,-2.1687,-2.1687,-2.1687,-2.1687,-2.1687,-2.1687,-2.1687,-2.1687,-2.1687,-4.2602,-4.2602,-4.2602,-4.219,-4.1459,-4.074,-3.9999,-3.9233,-3.8509,-3.8202,-3.8202,-3.8202,-3.8202,-3.8202,-3.8202,-3.8127,-3.7953,-3.7777,-3.7572,-3.6968,-3.6109,-3.5333,-3.479,-3.3972,-3.3276,-3.3276,-3.3276,-3.3312,-3.3347,-3.3227,-3.2618,-3.1217,-3.1106,-3.0101,-2.8961,-2.851,-2.851,-2.851,-2.851,-2.851,-2.851,-2.851,-2.851,-2.851,-2.851,-2.851,-2.851,-2.851,-2.851,-2.851,-2.851,-2.8431,-2.8311,-2.7886,-2.6969,-2.5861,-2.4766,-2.3757,-2.274,-2.2052,-2.182,-2.1731,-2.1687,-2.1687,-2.1687,-2.1687,-2.1687,-2.1687,-2.1687,-2.1687,-2.1687,-2.1687,-2.1687,-2.1687,-2.1687,-2.1687,-2.1687,-2.1687,-2.1687,-2.1687,-2.1687,-2.1687,-2.1687,-2.1687,-2.1687,-2.1687,-2.1687,-2.1687,-2.1687,-2.1687,-2.1687,-2.1687,-2.1687,-2.1687,-2.1687,-2.1687,-2.1687,-2.1687,-2.1687,-2.1687,-2.1687,-2.1687,-2.1687,-2.1687,-2.1687,-2.1687,-2.1687,-2.1687,-2.1687,-2.1687,-2.1687,-2.1687,-2.1687,-2.1687,-2.1687,-4.2602,-4.2602,-4.2586,-4.2158,-4.1426,-4.0706,-3.9964,-3.9175,-3.8472,-3.8202,-3.8202,-3.8202,-3.8202,-3.8202,-3.8202,-3.8165,-3.8127,-3.7967,-3.7739,-3.7135,-3.6253,-3.5436,-3.4854,-3.4092,-3.3312,-3.3276,-3.3326,-3.3326,-3.3276,-3.3312,-3.2367,-3.1143,-3.1106,-3.0024,-2.9028,-2.851,-2.851,-2.851,-2.851,-2.851,-2.851,-2.851,-2.851,-2.851,-2.851,-2.851,-2.851,-2.851,-2.851,-2.851,-2.851,-2.851,-2.8431,-2.8299,-2.7458,-2.6287,-2.5735,-2.4606,-2.3299,-2.2353,-2.1963,-2.1776,-2.1687,-2.1687,-2.1687,-2.1687,-2.1687,-2.1687,-2.1687,-2.1687,-2.1687,-2.1687,-2.1687,-2.1687,-2.1687,-2.1687,-2.1687,-2.1687,-2.1687,-2.1687,-2.1687,-2.1687,-2.1687,-2.1687,-2.1687,-2.1687,-2.1687,-2.1687,-2.1687,-2.1687,-2.1687,-2.1687,-2.1687,-2.1687,-2.1687,-2.1687,-2.1687,-2.1687,-2.1687,-2.1687,-2.1687,-2.1687,-2.1687,-2.1687,-2.1687,-2.1687,-2.1687,-2.1687,-2.1687,-2.1687,-2.1687,-2.1687,-2.1687,-2.1687,-2.1687,-4.2602,-4.2571,-4.211,-4.1492,-4.0808,-4.0519,-3.9733,-3.8679,-3.8337,-3.8202,-3.8202,-3.8202,-3.8202,-3.8202,-3.8202,-3.8127,-3.7991,-3.7815,-3.7687,-3.712,-3.6207,-3.5472,-3.4862,-3.4235,-3.3431,-3.3347,-3.3396,-3.3396,-3.3276,-3.3241,-3.2295,-3.1429,-3.0994,-2.9961,-2.9028,-2.851,-2.851,-2.851,-2.851,-2.851,-2.851,-2.851,-2.851,-2.851,-2.851,-2.851,-2.851,-2.851,-2.851,-2.851,-2.851,-2.851,-2.851,-2.851,-2.7846,-2.6794,-2.6505,-2.5453,-2.3854,-2.2818,-2.2176,-2.1963,-2.182,-2.1687,-2.1687,-2.1687,-2.1687,-2.1687,-2.1687,-2.1687,-2.1696,-2.1696,-2.1687,-2.1687,-2.1731,-2.1731,-2.1687,-2.1687,-2.1687,-2.1687,-2.1687,-2.1687,-2.1687,-2.1687,-2.1687,-2.1687,-2.1687,-2.1687,-2.1687,-2.1687,-2.1687,-2.1687,-2.1687,-2.1687,-2.1687,-2.1687,-2.1687,-2.1687,-2.1687,-2.1687,-2.1687,-2.1687,-2.1687,-2.1687,-2.1687,-2.1687,-2.1687,-2.1687,-2.1687,-2.1687,-2.1687,-2.1687,-2.1687,-2.1687,-2.1687,-4.2602,-4.2508,-4.1803,-4.1211,-4.069,-4.0278,-3.9484,-3.862,-3.83,-3.8202,-3.8202,-3.8202,-3.8202,-3.8202,-3.8202,-3.8127,-3.7991,-3.7839,-3.7596,-3.6944,-3.6148,-3.5455,-3.4938,-3.4328,-3.364,-3.3536,-3.357,-3.357,-3.3396,-3.3157,-3.2173,-3.123,-3.0557,-2.9665,-2.8882,-2.851,-2.851,-2.851,-2.851,-2.851,-2.851,-2.851,-2.851,-2.851,-2.851,-2.851,-2.851,-2.851,-2.851,-2.851,-2.851,-2.851,-2.851,-2.8391,-2.8007,-2.751,-2.6999,-2.6329,-2.4851,-2.328,-2.2397,-2.2097,-2.1963,-2.1785,-2.1741,-2.1687,-2.1687,-2.1687,-2.1687,-2.1731,-2.1785,-2.1874,-2.1874,-2.1874,-2.1874,-2.1874,-2.1731,-2.1687,-2.1687,-2.1687,-2.1687,-2.1687,-2.1687,-2.1687,-2.1687,-2.1687,-2.1687,-2.1687,-2.1687,-2.1687,-2.1687,-2.1687,-2.1687,-2.1687,-2.1687,-2.1687,-2.1687,-2.1687,-2.1687,-2.1687,-2.1687,-2.1687,-2.1687,-2.1687,-2.1687,-2.1687,-2.1687,-2.1687,-2.1687,-2.1687,-2.1687,-2.1687,-2.1687,-2.1687,-2.1687,-4.2586,-4.2508,-4.1739,-4.1379,-4.0986,-3.9929,-3.9269,-3.8972,-3.8486,-3.8202,-3.8202,-3.8202,-3.8202,-3.8202,-3.8202,-3.8121,-3.7982,-3.7838,-3.7532,-3.6819,-3.5925,-3.5332,-3.4853,-3.4282,-3.3848,-3.3882,-3.3848,-3.3779,-3.3585,-3.3143,-3.2087,-3.1119,-3.0418,-2.9471,-2.859,-2.851,-2.851,-2.851,-2.851,-2.851,-2.851,-2.851,-2.851,-2.851,-2.851,-2.851,-2.851,-2.851,-2.851,-2.851,-2.851,-2.851,-2.851,-2.851,-2.8139,-2.747,-2.7348,-2.6794,-2.5746,-2.3661,-2.2731,-2.223,-2.2052,-2.1919,-2.1741,-2.1687,-2.1731,-2.1776,-2.1776,-2.1865,-2.1954,-2.2052,-2.2052,-2.2052,-2.2008,-2.2052,-2.1909,-2.1865,-2.1909,-2.183,-2.1731,-2.1687,-2.1687,-2.1687,-2.1687,-2.1687,-2.1687,-2.1687,-2.1687,-2.1687,-2.1687,-2.1687,-2.1687,-2.1687,-2.1687,-2.1687,-2.1687,-2.1687,-2.1687,-2.1687,-2.1687,-2.1687,-2.1687,-2.1687,-2.1687,-2.1687,-2.1687,-2.1687,-2.1687,-2.1687,-2.1687,-2.1687,-2.1687,-2.1687,-2.1687,-4.2075,-4.1231,-4.0471,-3.9627,-3.8925,-3.9209,-3.903,-3.8583,-3.8315,-3.8188,-3.8202,-3.8202,-3.8202,-3.8202,-3.8101,-3.7941,-3.7599,-3.7393,-3.7016,-3.6476,-3.5619,-3.5189,-3.4765,-3.437,-3.3985,-3.3951,-3.3951,-3.3985,-3.3793,-3.3318,-3.2868,-3.2015,-3.0443,-2.9445,-2.8736,-2.851,-2.851,-2.851,-2.851,-2.851,-2.851,-2.851,-2.851,-2.851,-2.851,-2.851,-2.851,-2.851,-2.851,-2.851,-2.851,-2.851,-2.851,-2.851,-2.8351,-2.8047,-2.8007,-2.7684,-2.6753,-2.5316,-2.391,-2.2984,-2.2353,-2.222,-2.1785,-2.1874,-2.1909,-2.1998,-2.2043,-2.2087,-2.2097,-2.2097,-2.2097,-2.2106,-2.2097,-2.2176,-2.2132,-2.2176,-2.2176,-2.2052,-2.1963,-2.1785,-2.1731,-2.1687,-2.1687,-2.1687,-2.1687,-2.1687,-2.1687,-2.1687,-2.1687,-2.1687,-2.1687,-2.1687,-2.1687,-2.1687,-2.1687,-2.1687,-2.1687,-2.1687,-2.1687,-2.1687,-2.1687,-2.1687,-2.1687,-2.1687,-2.1687,-2.1687,-2.1687,-2.1687,-2.1687,-2.1687,-2.1687,-2.1687,-2.1687,-4.1351,-4.0482,-3.9491,-3.8632,-3.785,-3.8147,-3.7959,-3.7571,-3.7549,-3.7549,-3.752,-3.752,-3.7506,-3.7506,-3.7506,-3.7418,-3.6932,-3.683,-3.6461,-3.5961,-3.5408,-3.5012,-3.4715,-3.4441,-3.4205,-3.4122,-3.4122,-3.4157,-3.3951,-3.3646,-3.2712,-3.1476,-3.0619,-2.951,-2.8803,-2.851,-2.851,-2.851,-2.851,-2.851,-2.851,-2.851,-2.851,-2.851,-2.851,-2.851,-2.851,-2.851,-2.851,-2.851,-2.851,-2.851,-2.851,-2.851,-2.851,-2.851,-2.8431,-2.8018,-2.7133,-2.6712,-2.5231,-2.3877,-2.3377,-2.2818,-2.2344,-2.2476,-2.2388,-2.2388,-2.2388,-2.2353,-2.2318,-2.2318,-2.2318,-2.2318,-2.2318,-2.2397,-2.2353,-2.2353,-2.2309,-2.223,-2.2008,-2.1874,-2.1785,-2.1731,-2.1687,-2.1687,-2.1687,-2.1687,-2.1687,-2.1687,-2.1687,-2.1687,-2.1687,-2.1687,-2.1687,-2.1687,-2.1687,-2.1687,-2.1687,-2.1687,-2.1687,-2.1687,-2.1687,-2.1687,-2.1687,-2.1687,-2.1687,-2.1687,-2.1687,-2.1687,-2.1687,-2.1687,-2.1687,-2.1687,-2.1687,-4.0496,-4.0222,-3.8966,-3.8306,-3.8027,-3.6852,-3.6322,-3.6344,-3.6373,-3.6388,-3.6359,-3.6475,-3.6548,-3.6417,-3.6388,-3.6373,-3.6301,-3.6251,-3.5865,-3.5503,-3.5128,-3.4844,-3.4612,-3.4375,-3.4312,-3.4346,-3.4346,-3.4244,-3.4059,-3.3722,-3.2384,-3.0906,-3.0581,-2.973,-2.9106,-2.8578,-2.855,-2.851,-2.851,-2.851,-2.851,-2.851,-2.851,-2.851,-2.851,-2.851,-2.851,-2.851,-2.851,-2.851,-2.851,-2.851,-2.851,-2.851,-2.851,-2.851,-2.851,-2.8007,-2.7551,-2.7255,-2.667,-2.5484,-2.5515,-2.4382,-2.3454,-2.329,-2.3159,-2.2818,-2.2687,-2.2696,-2.2662,-2.2671,-2.2715,-2.2715,-2.2715,-2.2627,-2.2485,-2.2451,-2.2407,-2.2274,-2.2052,-2.1874,-2.183,-2.1785,-2.1776,-2.1687,-2.1687,-2.1687,-2.1687,-2.1687,-2.1687,-2.1687,-2.1687,-2.1687,-2.1687,-2.1687,-2.1687,-2.1687,-2.1687,-2.1687,-2.1687,-2.1687,-2.1687,-2.1687,-2.1687,-2.1687,-2.1687,-2.1687,-2.1687,-2.1687,-2.1687,-2.1687,-2.1687,-2.1687,-2.1687,-3.9951,-3.9004,-3.8105,-3.7174,-3.6213,-3.5311,-3.5444,-3.6228,-3.6286,-3.6286,-3.6286,-3.6286,-3.617,-3.6286,-3.6301,-3.6011,-3.5778,-3.5595,-3.5198,-3.4922,-3.4777,-3.4603,-3.4486,-3.438,-3.438,-3.438,-3.438,-3.438,-3.4298,-3.3894,-3.3262,-3.2263,-3.1055,-3.0317,-2.951,-2.8831,-2.8618,-2.851,-2.851,-2.851,-2.851,-2.851,-2.851,-2.851,-2.851,-2.851,-2.851,-2.851,-2.851,-2.851,-2.851,-2.851,-2.851,-2.851,-2.851,-2.851,-2.8471,-2.8351,-2.8179,-2.8099,-2.7672,-2.704,-2.7121,-2.6307,-2.5094,-2.4253,-2.4092,-2.3714,-2.3202,-2.3125,-2.3091,-2.3101,-2.2979,-2.2891,-2.2935,-2.2969,-2.2838,-2.2706,-2.2618,-2.2451,-2.223,-2.2087,-2.2052,-2.1963,-2.1963,-2.1776,-2.1687,-2.1731,-2.1687,-2.1687,-2.1687,-2.1687,-2.1687,-2.1687,-2.1687,-2.1687,-2.1687,-2.1687,-2.1687,-2.1687,-2.1687,-2.1687,-2.1687,-2.1687,-2.1687,-2.1687,-2.1687,-2.1687,-2.1687,-2.1687,-2.1687,-2.1687,-2.1687,-2.1687,-2.1687,-3.9207,-3.8426,-3.773,-3.6658,-3.5412,-3.4702,-3.4893,-3.5503,-3.5561,-3.5546,-3.5546,-3.5517,-3.5561,-3.5503,-3.5473,-3.5328,-3.5024,-3.498,-3.4762,-3.4603,-3.438,-3.4395,-3.438,-3.438,-3.438,-3.438,-3.438,-3.438,-3.4298,-3.3859,-3.3192,-3.2155,-3.1389,-3.0392,-2.9433,-2.8724,-2.855,-2.851,-2.851,-2.851,-2.851,-2.851,-2.851,-2.851,-2.851,-2.851,-2.851,-2.851,-2.851,-2.851,-2.851,-2.851,-2.851,-2.851,-2.851,-2.851,-2.851,-2.851,-2.8391,-2.8431,-2.8179,-2.8007,-2.8139,-2.7661,-2.6864,-2.5986,-2.5442,-2.4861,-2.4145,-2.3647,-2.357,-2.344,-2.3188,-2.2979,-2.3144,-2.3353,-2.3178,-2.3013,-2.2838,-2.2671,-2.253,-2.2397,-2.2309,-2.2274,-2.2141,-2.2008,-2.1874,-2.182,-2.1776,-2.1687,-2.1687,-2.1687,-2.1687,-2.1687,-2.1687,-2.1687,-2.1687,-2.1687,-2.1687,-2.1687,-2.1687,-2.1687,-2.1687,-2.1687,-2.1687,-2.1687,-2.1687,-2.1687,-2.1687,-2.1687,-2.1687,-2.1687,-2.1687,-2.1687,-2.1687,-3.8424,-3.8323,-3.7623,-3.6507,-3.5302,-3.4668,-3.4409,-3.438,-3.4496,-3.4409,-3.4501,-3.4424,-3.4559,-3.467,-3.469,-3.4661,-3.4574,-3.4559,-3.4574,-3.438,-3.438,-3.438,-3.438,-3.438,-3.438,-3.438,-3.438,-3.438,-3.4113,-3.3604,-3.267,-3.1499,-3.0606,-2.973,-2.8843,-2.8618,-2.851,-2.851,-2.851,-2.851,-2.851,-2.851,-2.851,-2.851,-2.851,-2.851,-2.851,-2.851,-2.851,-2.851,-2.851,-2.851,-2.851,-2.851,-2.851,-2.851,-2.851,-2.851,-2.851,-2.851,-2.851,-2.8431,-2.8471,-2.8299,-2.7713,-2.6999,-2.6299,-2.5788,-2.5158,-2.4659,-2.4531,-2.4155,-2.382,-2.3527,-2.3484,-2.344,-2.3188,-2.3057,-2.2925,-2.2794,-2.2794,-2.2652,-2.253,-2.2451,-2.2353,-2.223,-2.2097,-2.1998,-2.1954,-2.182,-2.1776,-2.1731,-2.1731,-2.1731,-2.1687,-2.1687,-2.1687,-2.1687,-2.1687,-2.1687,-2.1687,-2.1687,-2.1687,-2.1687,-2.1687,-2.1687,-2.1687,-2.1687,-2.1687,-2.1687,-2.1687,-2.1687,-2.1687,-2.1687,-2.1687,-3.8391,-3.8278,-3.7131,-3.5866,-3.4687,-3.4467,-3.438,-3.438,-3.438,-3.438,-3.438,-3.438,-3.438,-3.438,-3.438,-3.438,-3.438,-3.438,-3.438,-3.438,-3.438,-3.438,-3.438,-3.438,-3.438,-3.438,-3.438,-3.438,-3.4162,-3.3416,-3.242,-3.1499,-3.0506,-2.951,-2.859,-2.851,-2.851,-2.851,-2.851,-2.851,-2.851,-2.851,-2.851,-2.851,-2.851,-2.851,-2.851,-2.851,-2.851,-2.851,-2.851,-2.851,-2.851,-2.851,-2.851,-2.851,-2.851,-2.851,-2.851,-2.851,-2.851,-2.851,-2.851,-2.851,-2.8219,-2.7603,-2.7062,-2.664,-2.6205,-2.5788,-2.5368,-2.4914,-2.4413,-2.4122,-2.3864,-2.357,-2.3232,-2.3101,-2.3013,-2.296,-2.296,-2.2882,-2.2759,-2.2671,-2.2574,-2.2441,-2.2353,-2.2309,-2.2264,-2.2176,-2.1954,-2.1909,-2.1776,-2.1731,-2.1731,-2.1776,-2.182,-2.1776,-2.1776,-2.1731,-2.1687,-2.1687,-2.1687,-2.1687,-2.1687,-2.1687,-2.1687,-2.1687,-2.1687,-2.1687,-2.1687,-2.1687,-2.1687,-2.1687,-2.1687,-3.8221,-3.7799,-3.6523,-3.5546,-3.4872,-3.4534,-3.438,-3.438,-3.438,-3.438,-3.438,-3.438,-3.438,-3.438,-3.438,-3.438,-3.438,-3.438,-3.438,-3.438,-3.438,-3.438,-3.438,-3.438,-3.438,-3.438,-3.438,-3.4346,-3.423,-3.3381,-3.242,-3.1499,-3.0544,-2.9549,-2.8657,-2.851,-2.851,-2.851,-2.851,-2.851,-2.851,-2.851,-2.851,-2.851,-2.851,-2.851,-2.851,-2.851,-2.851,-2.851,-2.851,-2.851,-2.851,-2.851,-2.851,-2.851,-2.851,-2.851,-2.851,-2.851,-2.851,-2.851,-2.851,-2.851,-2.851,-2.7966,-2.7938,-2.751,-2.6928,-2.6464,-2.6205,-2.5788,-2.4999,-2.4456,-2.4616,-2.4616,-2.394,-2.3396,-2.3222,-2.3057,-2.3047,-2.3047,-2.2925,-2.2925,-2.2838,-2.2662,-2.2574,-2.2476,-2.2485,-2.2485,-2.2255,-2.2132,-2.2043,-2.1954,-2.1919,-2.1998,-2.2043,-2.1954,-2.1865,-2.182,-2.1776,-2.1731,-2.1687,-2.1687,-2.1687,-2.1687,-2.1687,-2.1687,-2.1687,-2.1687,-2.1687,-2.1687,-2.1687,-2.1687,-2.1687,-3.796,-3.7117,-3.6024,-3.54,-3.5187,-3.4654,-3.438,-3.438,-3.438,-3.438,-3.438,-3.438,-3.438,-3.438,-3.438,-3.438,-3.438,-3.438,-3.438,-3.438,-3.438,-3.438,-3.438,-3.438,-3.438,-3.438,-3.438,-3.438,-3.438,-3.3416,-3.2456,-3.1573,-3.0581,-2.9588,-2.8922,-2.855,-2.851,-2.851,-2.851,-2.851,-2.851,-2.851,-2.851,-2.851,-2.851,-2.851,-2.851,-2.851,-2.851,-2.851,-2.851,-2.851,-2.851,-2.851,-2.851,-2.851,-2.851,-2.851,-2.851,-2.851,-2.851,-2.851,-2.851,-2.851,-2.8459,-2.8459,-2.8431,-2.8179,-2.7592,-2.7255,-2.6999,-2.6494,-2.5663,-2.5073,-2.5368,-2.5495,-2.4691,-2.3983,-2.3724,-2.3474,-2.3396,-2.343,-2.3353,-2.3309,-2.3057,-2.2925,-2.2794,-2.2662,-2.2608,-2.2652,-2.2608,-2.2574,-2.253,-2.2397,-2.2185,-2.2176,-2.2255,-2.2176,-2.2087,-2.1954,-2.1865,-2.1874,-2.183,-2.1687,-2.1687,-2.1731,-2.1687,-2.1687,-2.1687,-2.1731,-2.1687,-2.1687,-2.1687,-2.1687,-2.1687,-3.7682,-3.6585,-3.6291,-3.5578,-3.4654,-3.4433,-3.438,-3.438,-3.438,-3.438,-3.438,-3.438,-3.438,-3.438,-3.438,-3.438,-3.438,-3.438,-3.438,-3.438,-3.438,-3.438,-3.438,-3.438,-3.438,-3.438,-3.438,-3.438,-3.4346,-3.3485,-3.2826,-3.2456,-3.0732,-2.9922,-2.9704,-2.9184,-2.851,-2.851,-2.851,-2.851,-2.851,-2.851,-2.851,-2.851,-2.851,-2.851,-2.851,-2.851,-2.851,-2.851,-2.851,-2.851,-2.851,-2.851,-2.851,-2.851,-2.851,-2.851,-2.851,-2.851,-2.851,-2.851,-2.851,-2.851,-2.851,-2.851,-2.8471,-2.8471,-2.8099,-2.8099,-2.7794,-2.7214,-2.6464,-2.6205,-2.6246,-2.5997,-2.5453,-2.52,-2.5062,-2.4776,-2.4531,-2.4402,-2.4241,-2.3907,-2.3266,-2.3135,-2.3057,-2.2925,-2.2872,-2.2916,-2.2925,-2.2882,-2.2882,-2.2706,-2.2441,-2.2397,-2.2432,-2.2353,-2.2309,-2.2176,-2.2097,-2.2052,-2.1963,-2.183,-2.1776,-2.1776,-2.1731,-2.1865,-2.1776,-2.1776,-2.1731,-2.1687,-2.1687,-2.1687,-2.1687]},{"header":{"parameterUnit":"m.s-1","parameterCategory":1,"la1":31.0,"la2":29.5877,"lo1":-88.7671,"lo2":-86.6584,"dy":0.0162,"dx":0.0185,"nx":115,"ny":88,"refTime":"2023-07-02T06:00:00:Z","depth":0,"parameterNumber":3,"parameterNumberName":"V-component_of_WINDS"},"data":[0.0,0.0,0.0,0.0,0.0,0.0,0.0,0.0,0.0,0.0,0.0,0.0,0.0,0.0,0.0,0.0,0.0,0.0,0.0,0.0,0.0,0.0,0.0,0.0,0.0,0.0,0.0,0.0,0.0,0.0,0.0,0.0,0.0,0.0,0.0,0.0,0.0,0.0,0.0,0.0,0.0,0.0,0.0,0.0,0.0,0.0,0.0,0.0,0.0,0.0,0.0,0.0,0.0,0.0,0.0,0.0,0.0,0.0,0.0,0.0,0.0,0.0,0.0,0.0,0.0,0.0,0.0,0.0,0.0,0.0,0.0,0.0,0.0,0.0,0.0,0.0,0.0,0.0,0.0,0.0,0.0,0.0,0.0,0.0,0.0,0.0,0.0,0.0,0.0,0.0,0.0,0.0,0.0,0.0,0.0,0.0,0.0,0.0,0.0,0.0,0.0,0.0,0.0,0.0,0.0,0.0,0.0,0.0,0.0,0.0,0.0,0.0,0.0,0.0,0.0,0.0,0.0,0.0,0.0,0.0,0.0,0.0,0.0,0.0,0.0,0.0,0.0,0.0,0.0,0.0,0.0,0.0,0.0,0.0,0.0,0.0,0.0,0.0,0.0,0.0,0.0,0.0,0.0,0.0,0.0,0.0,0.0,0.0,0.0,0.0,0.0,0.0,0.0,0.0,0.0,0.0,0.0,0.0,0.0,0.0,0.0,0.0,0.0,0.0,0.0,0.0,0.0,0.0,0.0,0.0,0.0,0.0,0.0,0.0,0.0,0.0,0.0,0.0,0.0,0.0,0.0,0.0,0.0,0.0,0.0,0.0,0.0,0.0,0.0,0.0,0.0,0.0,0.0,0.0,0.0,0.0,0.0,0.0,0.0,0.0,0.0,0.0,0.0,0.0,0.0,0.0,0.0,0.0,0.0,0.0,0.0,0.0,0.0,0.0,0.0,0.0,0.0,0.0,0.0,0.0,0.0,0.0,0.0,0.0,0.0,0.0,0.0,0.0,0.0,0.0,0.0,0.0,0.0,0.0,0.0,0.0,0.0,0.0,0.0,0.0,0.0,0.0,0.0,0.0,0.0,0.0,0.0,0.0,0.0,0.0,0.0,0.0,0.0,0.0,0.0,0.0,0.0,0.0,0.0,0.0,0.0,0.0,0.0,0.0,0.0,0.0,0.0,0.0,0.0,0.0,0.0,0.0,0.0,0.0,0.0,0.0,0.0,0.0,0.0,0.0,0.0,0.0,0.0,0.0,0.0,0.0,0.0,0.0,0.0,0.0,0.0,0.0,0.0,0.0,0.0,0.0,0.0,0.0,0.0,0.0,0.0,0.0,0.0,0.0,0.0,0.0,0.0,0.0,0.0,0.0,0.0,0.0,0.0,0.0,0.0,0.0,0.0,0.0,0.0,0.0,0.0,0.0,0.0,0.0,0.0,0.0,0.0,0.0,0.0,0.0,0.0,0.0,0.0,0.0,0.0,0.0,0.0,0.0,0.0,0.0,0.0,0.0,0.0,0.0,0.0,0.0,0.0,0.0,0.0,0.0,0.0,0.0,0.0,0.0,0.0,0.0,0.0,0.0,0.0,0.0,0.0,0.0,0.0,0.0,0.0,0.0,0.0,0.0,0.0,0.0,0.0,0.0,0.0,0.0,0.0,0.0,0.0,0.0,0.0,0.0,0.0,0.0,0.0,0.0,0.0,0.0,0.0,0.0,0.0,0.0,0.0,0.0,0.0,0.0,0.0,0.0,0.0,0.0,0.0,0.0,0.0,0.0,0.0,0.0,0.0,0.0,0.0,0.0,0.0,0.0,0.0,0.0,0.0,0.0,0.0,0.0,0.0,0.0,0.0,0.0,0.0,0.0,0.0,0.0,0.0,0.0,0.0,0.0,0.0,0.0,0.0,0.0,0.0,0.0,0.0,0.0,0.0,0.0,0.0,0.0,0.0,0.0,0.0,0.0,0.0,0.0,0.0,0.0,0.0,0.0,0.0,0.0,0.0,0.0,0.0,0.0,0.0,0.0,0.0,0.0,0.0,0.0,0.0,0.0,0.0,0.0,0.0,0.0,0.0,0.0,0.0,0.0,0.0,0.0,0.0,0.0,0.0,0.0,0.0,0.0,0.0,0.0,0.0,0.0,0.0,0.0,0.0,0.0,0.0,0.0,0.0,0.0,0.0,0.0,0.0,0.0,0.0,0.0,0.0,0.0,0.0,0.0,0.0,0.0,0.0,0.0,0.0,0.0,0.0,0.0,0.0,0.0,0.0,0.0,0.0,0.0,0.0,0.0,0.0,0.0,0.0,0.0,0.0,0.0,0.0,0.0,0.0,0.0,0.0,0.0,0.0,0.0,0.0,0.0,0.0,0.0,0.0,0.0,0.0,0.0,0.0,0.0,0.0,0.0,0.0,0.0,0.0,0.0,0.0,0.0,0.0,0.0,0.0,0.0,0.0,0.0,0.0,0.0,0.0,0.0,0.0,0.0,0.0,0.0,0.0,0.0,0.0,0.0,0.0,0.0,0.0,0.0,0.0,0.0,0.0,0.0,0.0,0.0,0.0,0.0,0.0,0.0,0.0,0.0,0.0,0.0,0.0,0.0,0.0,0.0,0.0,0.0,0.0,0.0,0.0,0.0,0.0,0.0,0.0,0.0,0.0,0.0,0.0,0.0,0.0,0.0,0.0,0.0,0.0,0.0,0.0,0.0,0.0,0.0,0.0,0.0,0.0,0.0,0.0,0.0,0.0,0.0,0.0,0.0,0.0,0.0,0.0,0.0,0.0,0.0,0.0,0.0,0.0,0.0,0.0,0.0,0.0,0.0,0.0,0.0,0.0,0.0,0.0,0.0,0.0,0.0,0.0,0.0,0.0,0.0,0.0,0.0,0.0,0.0,0.0,0.0,0.0,0.0,0.0,0.0,0.0,0.0,0.0,0.0,0.0,0.0,0.0,0.0,0.0,0.0,0.0,0.0,0.0,0.0,0.0,0.0,0.0,0.0,0.0,0.0,0.0,0.0,0.0,0.0,0.0,0.0,0.0,0.0,0.0,0.0,0.0,0.0,0.0,0.0,0.0,0.0,0.0,0.0,0.0,0.0,0.0,0.0,0.0,0.0,0.0,0.0,0.0,0.0,0.0,0.0,0.0,0.0,0.0,0.0,0.0,0.0,0.0,0.0,0.0,0.0,0.0,0.0,0.0,0.0,0.0,0.0,0.0,0.0,0.0,0.0,0.0,0.0,0.0,0.0,0.0,0.0,0.0,0.0,0.0,0.0,0.0,0.0,0.0,0.0,0.0,0.0,0.0,0.0,0.0,0.0,0.0,0.0,0.0,0.0,0.0,0.0,0.0,0.0,0.0,0.0,0.0,0.0,0.0,0.0,0.0,0.0,0.0,0.0,0.0,0.0,0.0,0.0,0.0,0.0,0.0,0.0,0.0,0.0,0.0,0.0,0.0,0.0,0.0,0.0,0.0,0.0,0.0,0.0,0.0,0.0,0.0,0.0,0.0,0.0,0.0,0.0,0.0,0.0,0.0,0.0,0.0,0.0,0.0,0.0,0.0,0.0,0.0,0.0,0.0,0.0,0.0,0.0,0.0,0.0,0.0,0.0,0.0,0.0,0.0,0.0,0.0,0.0,0.0,0.0,0.0,0.0,0.0,0.0,0.0,0.0,0.0,0.0,0.0,0.0,0.0,0.0,0.0,0.0,0.0,0.0,0.0,0.0,0.0,0.0,0.0,0.0,0.0,0.0,0.0,0.0,0.0,0.0,0.0,0.0,0.0,0.0,0.0,0.0,0.0,0.0,0.0,0.0,0.0,0.0,0.0,0.0,0.0,0.0,0.0,0.0,0.0,0.0,0.0,0.0,0.0,0.0,0.0,0.0,0.0,0.0,0.0,0.0,0.0,0.0,0.0,0.0,0.0,0.0,0.0,0.0,0.0,0.0,0.0,0.0,0.0,0.0,0.0,0.0,0.0,0.0,0.0,0.0,0.0,0.0,0.0,0.0,0.0,0.0,0.0,0.0,0.0,0.0,0.0,0.0,0.0,0.0,0.0,0.0,0.0,0.0,0.0,0.0,0.0,0.0,0.0,0.0,0.0,0.0,0.0,0.0,0.0,0.0,0.0,0.0,0.0,0.0,0.0,0.0,0.0,0.0,0.0,0.0,0.0,0.0,0.0,0.0,0.0,0.0,0.0,0.0,0.0,0.0,0.0,0.0,0.0,0.0,0.0,0.0,0.0,0.0,0.0,0.0,0.0,0.0,0.0,0.0,-1.3941,0.0,0.0,0.0,0.0,0.0,0.0,0.0,0.0,0.0,0.0,0.0,0.0,0.0,0.0,0.0,0.0,0.0,0.0,0.0,0.0,0.0,0.0,0.0,0.0,0.0,0.0,0.0,0.0,0.0,0.0,0.0,0.0,0.0,0.0,0.0,0.0,0.0,0.0,0.0,0.0,0.0,0.0,0.0,0.0,0.0,0.0,0.0,0.0,0.0,0.0,0.0,0.0,0.0,0.0,0.0,0.0,0.0,0.0,0.0,0.0,0.0,0.0,0.0,0.0,0.0,0.0,0.0,0.0,0.0,0.0,0.0,0.0,0.0,0.0,0.0,0.0,0.0,0.0,0.0,0.0,0.0,0.0,0.0,0.0,0.0,0.0,0.0,0.0,0.0,0.0,0.0,0.0,0.0,0.0,0.0,0.0,0.0,0.0,0.0,0.0,0.0,0.0,0.0,0.0,0.0,0.0,0.0,0.0,0.0,0.0,-1.4192,-1.4628,-1.454,-1.4647,-1.5029,0.0,0.0,0.0,0.0,0.0,0.0,0.0,0.0,0.0,0.0,0.0,0.0,0.0,0.0,0.0,0.0,0.0,0.0,0.0,0.0,0.0,0.0,0.0,0.0,0.0,0.0,0.0,0.0,0.0,0.0,0.0,0.0,0.0,0.0,0.0,0.0,0.0,0.0,0.0,0.0,0.0,0.0,0.0,0.0,0.0,0.0,0.0,0.0,0.0,0.0,0.0,0.0,0.0,0.0,0.0,0.0,0.0,0.0,0.0,0.0,0.0,0.0,0.0,0.0,0.0,0.0,0.0,0.0,0.0,0.0,0.0,0.0,0.0,0.0,0.0,0.0,0.0,0.0,0.0,0.0,0.0,0.0,0.0,0.0,0.0,0.0,0.0,0.0,0.0,0.0,0.0,0.0,0.0,0.0,0.0,0.0,0.0,0.0,0.0,0.0,0.0,0.0,0.0,0.0,0.0,0.0,0.0,0.0,0.0,0.0,0.0,0.0,-1.5157,-1.54,-1.5885,0.0,0.0,0.0,0.0,0.0,0.0,0.0,0.0,0.0,0.0,0.0,0.0,0.0,0.0,0.0,0.0,0.0,0.0,0.0,0.0,0.0,0.0,0.0,0.0,0.0,0.0,0.0,0.0,0.0,0.0,0.0,0.0,0.0,0.0,0.0,0.0,0.0,0.0,0.0,0.0,0.0,0.0,0.0,0.0,0.0,0.0,0.0,0.0,0.0,0.0,0.0,0.0,0.0,0.0,0.0,0.0,0.0,0.0,0.0,0.0,0.0,0.0,0.0,0.0,0.0,0.0,0.0,0.0,0.0,0.0,0.0,0.0,0.0,0.0,0.0,0.0,0.0,0.0,0.0,0.0,0.0,0.0,0.0,0.0,0.0,0.0,0.0,0.0,0.0,0.0,0.0,0.0,0.0,0.0,0.0,0.0,0.0,0.0,0.0,0.0,0.0,0.0,0.0,0.0,0.0,0.0,0.0,0.0,0.0,0.0,-1.4715,-1.4765,-1.5526,0.0,-1.5914,0.0,0.0,0.0,0.0,0.0,0.0,0.0,0.0,0.0,0.0,0.0,0.0,0.0,0.0,0.0,0.0,0.0,0.0,0.0,0.0,0.0,0.0,0.0,0.0,0.0,0.0,0.0,0.0,0.0,0.0,0.0,0.0,0.0,0.0,0.0,0.0,0.0,0.0,0.0,0.0,0.0,0.0,0.0,0.0,0.0,0.0,0.0,0.0,0.0,0.0,0.0,0.0,0.0,0.0,0.0,0.0,0.0,0.0,0.0,0.0,0.0,0.0,0.0,0.0,0.0,0.0,0.0,0.0,0.0,0.0,0.0,0.0,0.0,0.0,0.0,0.0,0.0,0.0,0.0,0.0,0.0,0.0,0.0,0.0,0.0,0.0,0.0,0.0,0.0,0.0,0.0,0.0,0.0,0.0,0.0,0.0,0.0,0.0,0.0,0.0,0.0,0.0,0.0,0.0,0.0,0.0,0.0,0.0,0.0,0.0,-1.5128,-1.4834,-1.5478,-1.5875,0.0,0.0,0.0,0.0,0.0,0.0,0.0,0.0,0.0,0.0,0.0,0.0,0.0,0.0,0.0,0.0,0.0,0.0,0.0,0.0,0.0,0.0,0.0,0.0,0.0,0.0,0.0,0.0,0.0,0.0,0.0,0.0,0.0,0.0,0.0,0.0,0.0,0.0,0.0,0.0,0.0,0.0,0.0,0.0,0.0,0.0,0.0,0.0,0.0,0.0,0.0,0.0,0.0,0.0,0.0,0.0,0.0,0.0,0.0,0.0,0.0,0.0,0.0,0.0,0.0,0.0,0.0,0.0,0.0,0.0,0.0,0.0,0.0,0.0,0.0,0.0,0.0,0.0,0.0,0.0,0.0,0.0,0.0,0.0,0.0,0.0,0.0,0.0,0.0,0.0,0.0,0.0,0.0,0.0,0.0,0.0,0.0,0.0,0.0,0.0,0.0,0.0,0.0,0.0,0.0,0.0,0.0,0.0,0.0,0.0,-1.5218,-1.5517,-1.5389,-1.5812,-1.6148,-1.6335,0.0,0.0,0.0,0.0,0.0,0.0,0.0,0.0,0.0,0.0,0.0,0.0,0.0,0.0,0.0,0.0,0.0,0.0,0.0,0.0,0.0,0.0,0.0,0.0,0.0,0.0,0.0,0.0,0.0,0.0,0.0,0.0,0.0,0.0,0.0,0.0,0.0,0.0,0.0,0.0,0.0,0.0,0.0,0.0,0.0,0.0,0.0,0.0,0.0,0.0,0.0,0.0,0.0,0.0,0.0,0.0,0.0,0.0,0.0,0.0,0.0,0.0,0.0,0.0,0.0,0.0,0.0,0.0,0.0,0.0,0.0,0.0,0.0,0.0,0.0,0.0,0.0,0.0,0.0,0.0,0.0,0.0,0.0,0.0,0.0,0.0,0.0,0.0,0.0,0.0,0.0,0.0,0.0,0.0,0.0,0.0,0.0,0.0,0.0,0.0,0.0,0.0,0.0,0.0,0.0,0.0,0.0,0.0,-1.5852,-1.5511,-1.5722,-1.6457,-1.6777,-1.711,0.0,0.0,0.0,0.0,0.0,0.0,0.0,0.0,0.0,0.0,0.0,0.0,0.0,0.0,0.0,0.0,0.0,0.0,0.0,0.0,0.0,0.0,0.0,0.0,0.0,0.0,0.0,0.0,0.0,0.0,0.0,0.0,0.0,0.0,0.0,0.0,0.0,0.0,0.0,0.0,0.0,0.0,0.0,0.0,0.0,0.0,0.0,0.0,0.0,0.0,0.0,0.0,0.0,0.0,0.0,0.0,0.0,0.0,0.0,0.0,0.0,0.0,0.0,0.0,0.0,0.0,0.0,0.0,0.0,0.0,0.0,0.0,0.0,0.0,0.0,0.0,0.0,0.0,0.0,0.0,0.0,0.0,0.0,0.0,0.0,0.0,0.0,0.0,0.0,0.0,0.0,0.0,0.0,0.0,0.0,0.0,0.0,0.0,0.0,0.0,0.0,0.0,0.0,0.0,0.0,0.0,0.0,0.0,0.0,-1.5495,-1.5669,-1.5987,-1.6527,-1.7039,-1.7471,0.0,0.0,0.0,0.0,0.0,0.0,0.0,0.0,0.0,0.0,0.0,0.0,0.0,0.0,0.0,0.0,0.0,0.0,0.0,0.0,0.0,0.0,0.0,0.0,0.0,0.0,0.0,0.0,0.0,0.0,0.0,0.0,0.0,0.0,0.0,0.0,0.0,0.0,0.0,0.0,0.0,0.0,0.0,0.0,0.0,0.0,0.0,0.0,0.0,0.0,0.0,0.0,0.0,0.0,0.0,0.0,0.0,0.0,0.0,0.0,0.0,0.0,0.0,0.0,0.0,0.0,0.0,0.0,0.0,0.0,0.0,0.0,0.0,0.0,0.0,0.0,0.0,0.0,0.0,0.0,0.0,0.0,0.0,0.0,0.0,0.0,0.0,0.0,0.0,0.0,0.0,0.0,0.0,0.0,0.0,0.0,0.0,0.0,0.0,0.0,0.0,0.0,0.0,0.0,0.0,0.0,0.0,0.0,0.0,-1.6118,0.0,-1.7041,-1.7159,-1.7744,-1.8175,0.0,0.0,0.0,0.0,0.0,0.0,0.0,0.0,0.0,0.0,0.0,0.0,0.0,0.0,0.0,0.0,0.0,0.0,0.0,0.0,0.0,0.0,0.0,0.0,0.0,0.0,0.0,0.0,0.0,0.0,0.0,0.0,0.0,0.0,0.0,0.0,0.0,0.0,0.0,0.0,0.0,0.0,0.0,0.0,0.0,0.0,0.0,0.0,0.0,0.0,0.0,0.0,0.0,0.0,0.0,0.0,0.0,0.0,0.0,0.0,0.0,0.0,0.0,0.0,0.0,0.0,0.0,0.0,0.0,0.0,0.0,0.0,0.0,0.0,0.0,0.0,0.0,0.0,0.0,0.0,0.0,0.0,0.0,0.0,0.0,0.0,0.0,0.0,0.0,0.0,0.0,0.0,0.0,0.0,0.0,0.0,0.0,0.0,0.0,0.0,0.0,0.0,0.0,0.0,0.0,0.0,0.0,0.0,-1.7764,-1.7896,-1.8609,-1.8816,-1.8508,-1.898,-1.9287,0.0,0.0,0.0,0.0,0.0,0.0,0.0,0.0,0.0,0.0,0.0,0.0,0.0,0.0,0.0,0.0,0.0,0.0,0.0,0.0,0.0,0.0,0.0,0.0,0.0,0.0,0.0,0.0,0.0,0.0,0.0,0.0,0.0,0.0,0.0,0.0,0.0,0.0,0.0,0.0,0.0,0.0,0.0,0.0,0.0,0.0,0.0,0.0,0.0,0.0,0.0,0.0,0.0,0.0,0.0,0.0,0.0,0.0,0.0,0.0,0.0,0.0,0.0,0.0,0.0,0.0,0.0,0.0,0.0,0.0,0.0,0.0,0.0,0.0,0.0,0.0,0.0,0.0,0.0,0.0,0.0,0.0,0.0,0.0,0.0,0.0,0.0,0.0,0.0,0.0,0.0,0.0,0.0,0.0,0.0,0.0,0.0,0.0,0.0,0.0,0.0,0.0,0.0,0.0,0.0,0.0,0.0,0.0,0.0,-1.8118,-1.8839,-1.9114,-1.8891,-1.9388,-1.9648,0.0,0.0,0.0,0.0,0.0,0.0,0.0,0.0,0.0,0.0,0.0,0.0,0.0,0.0,0.0,0.0,0.0,0.0,0.0,0.0,0.0,0.0,0.0,0.0,0.0,0.0,0.0,0.0,0.0,0.0,0.0,0.0,0.0,0.0,0.0,0.0,0.0,0.0,0.0,0.0,0.0,0.0,0.0,0.0,0.0,0.0,0.0,0.0,0.0,0.0,0.0,0.0,0.0,0.0,0.0,0.0,0.0,0.0,0.0,0.0,0.0,0.0,0.0,0.0,0.0,0.0,0.0,0.0,0.0,0.0,0.0,0.0,0.0,0.0,0.0,0.0,0.0,0.0,0.0,0.0,0.0,0.0,0.0,0.0,0.0,0.0,0.0,0.0,0.0,0.0,0.0,0.0,0.0,0.0,0.0,0.0,0.0,0.0,0.0,0.0,0.0,0.0,0.0,0.0,0.0,0.0,0.0,0.0,0.0,-1.9493,-1.9902,-2.0105,-1.998,-2.0261,-2.0167,-1.9626,0.0,0.0,0.0,0.0,0.0,0.0,0.0,0.0,0.0,0.0,0.0,0.0,0.0,0.0,0.0,0.0,0.0,0.0,0.0,0.0,0.0,0.0,0.0,0.0,0.0,0.0,0.0,0.0,0.0,0.0,0.0,0.0,0.0,0.0,0.0,0.0,0.0,0.0,0.0,0.0,0.0,0.0,0.0,0.0,0.0,0.0,0.0,0.0,0.0,0.0,0.0,0.0,0.0,0.0,0.0,0.0,0.0,0.0,0.0,0.0,0.0,0.0,0.0,0.0,0.0,0.0,0.0,0.0,0.0,0.0,0.0,0.0,0.0,0.0,0.0,0.0,0.0,0.0,0.0,0.0,0.0,0.0,0.0,0.0,0.0,0.0,0.0,0.0,0.0,0.0,0.0,0.0,0.0,0.0,0.0,0.0,0.0,0.0,0.0,0.0,0.0,0.0,0.0,0.0,0.0,0.0,0.0,0.0,-2.1701,-2.1734,-2.1734,-2.1658,-2.1393,-2.0812,0.0,0.0,0.0,0.0,0.0,0.0,0.0,0.0,0.0,0.0,0.0,0.0,0.0,0.0,0.0,0.0,0.0,0.0,0.0,0.0,0.0,0.0,0.0,0.0,0.0,0.0,0.0,0.0,0.0,0.0,0.0,0.0,0.0,0.0,0.0,0.0,0.0,0.0,0.0,0.0,0.0,0.0,0.0,0.0,0.0,0.0,0.0,0.0,0.0,0.0,0.0,0.0,0.0,0.0,0.0,0.0,0.0,0.0,0.0,0.0,0.0,0.0,0.0,0.0,0.0,0.0,0.0,0.0,0.0,0.0,0.0,0.0,0.0,0.0,0.0,0.0,0.0,0.0,0.0,0.0,0.0,0.0,0.0,0.0,0.0,0.0,0.0,0.0,0.0,0.0,0.0,0.0,0.0,0.0,0.0,0.0,0.0,0.0,0.0,0.0,0.0,0.0,0.0,0.0,0.0,0.0,0.0,0.0,0.0,-2.3106,-2.3536,-2.3383,-2.2652,-2.1621,-2.1196,0.0,0.0,0.0,0.0,0.0,0.0,0.0,0.0,0.0,0.0,0.0,0.0,0.0,0.0,0.0,0.0,0.0,0.0,0.0,0.0,0.0,0.0,0.0,0.0,0.0,0.0,0.0,0.0,0.0,0.0,0.0,0.0,0.0,0.0,0.0,0.0,0.0,0.0,0.0,0.0,0.0,0.0,0.0,0.0,0.0,0.0,0.0,0.0,0.0,0.0,0.0,0.0,0.0,0.0,0.0,0.0,0.0,0.0,0.0,0.0,0.0,0.0,0.0,0.0,0.0,0.0,0.0,0.0,0.0,0.0,0.0,0.0,0.0,0.0,0.0,0.0,0.0,0.0,0.0,0.0,0.0,0.0,0.0,0.0,0.0,0.0,0.0,0.0,0.0,0.0,0.0,0.0,0.0,0.0,0.0,0.0,0.0,0.0,0.0,0.0,0.0,0.0,0.0,0.0,0.0,0.0,0.0,0.0,-2.3138,-2.3694,-2.4618,-2.4992,-2.4759,-2.287,-2.1928,0.0,0.0,0.0,0.0,0.0,0.0,0.0,0.0,0.0,0.0,0.0,0.0,0.0,0.0,0.0,0.0,0.0,0.0,0.0,0.0,0.0,0.0,0.0,0.0,0.0,0.0,0.0,0.0,0.0,0.0,0.0,0.0,0.0,0.0,0.0,0.0,0.0,0.0,0.0,0.0,0.0,0.0,0.0,0.0,0.0,0.0,0.0,0.0,0.0,0.0,0.0,0.0,0.0,0.0,0.0,0.0,0.0,0.0,0.0,0.0,0.0,0.0,0.0,0.0,0.0,0.0,0.0,0.0,0.0,0.0,0.0,0.0,0.0,0.0,0.0,0.0,0.0,0.0,0.0,0.0,0.0,0.0,0.0,0.0,0.0,0.0,0.0,0.0,0.0,0.0,0.0,0.0,0.0,0.0,0.0,0.0,0.0,0.0,0.0,0.0,0.0,0.0,0.0,0.0,0.0,0.0,0.0,0.0,-2.3974,-2.4155,-2.547,-2.6539,-2.7209,-2.4591,-2.2918,0.0,0.0,0.0,0.0,0.0,0.0,0.0,0.0,0.0,0.0,0.0,0.0,0.0,0.0,0.0,0.0,0.0,0.0,0.0,0.0,0.0,0.0,0.0,0.0,0.0,0.0,0.0,0.0,0.0,0.0,0.0,0.0,0.0,0.0,0.0,0.0,0.0,0.0,0.0,0.0,0.0,0.0,0.0,0.0,0.0,0.0,0.0,0.0,0.0,0.0,0.0,0.0,0.0,0.0,0.0,0.0,0.0,0.0,0.0,0.0,0.0,0.0,0.0,0.0,0.0,0.0,0.0,0.0,0.0,0.0,0.0,0.0,0.0,0.0,0.0,0.0,0.0,0.0,0.0,0.0,0.0,0.0,0.0,0.0,0.0,0.0,0.0,0.0,0.0,0.0,0.0,0.0,0.0,0.0,0.0,0.0,0.0,0.0,0.0,0.0,0.0,0.0,0.0,0.0,0.0,0.0,0.0,0.0,-2.5797,-2.6836,-2.753,-2.7947,-2.8148,-2.537,-2.4351,0.0,0.0,0.0,0.0,0.0,0.0,0.0,0.0,0.0,0.0,0.0,0.0,0.0,0.0,0.0,0.0,0.0,0.0,0.0,0.0,0.0,0.0,0.0,0.0,0.0,0.0,0.0,0.0,0.0,0.0,0.0,0.0,0.0,0.0,0.0,0.0,0.0,0.0,0.0,0.0,0.0,0.0,0.0,0.0,0.0,0.0,0.0,0.0,-3.3889,0.0,0.0,0.0,0.0,0.0,0.0,0.0,0.0,0.0,0.0,0.0,0.0,0.0,0.0,0.0,0.0,0.0,0.0,0.0,0.0,0.0,0.0,0.0,0.0,0.0,0.0,0.0,0.0,0.0,0.0,0.0,0.0,0.0,0.0,0.0,0.0,0.0,0.0,0.0,0.0,0.0,0.0,0.0,0.0,0.0,0.0,0.0,0.0,0.0,0.0,0.0,0.0,0.0,0.0,0.0,0.0,0.0,0.0,0.0,-2.6621,-2.7659,-2.815,-2.8585,-2.8903,-2.7112,-2.6139,0.0,0.0,0.0,0.0,0.0,0.0,0.0,0.0,0.0,0.0,0.0,0.0,0.0,0.0,0.0,0.0,0.0,0.0,0.0,0.0,0.0,0.0,0.0,0.0,0.0,0.0,0.0,0.0,0.0,0.0,0.0,0.0,0.0,0.0,0.0,0.0,0.0,0.0,0.0,0.0,0.0,0.0,0.0,0.0,0.0,0.0,0.0,0.0,0.0,0.0,0.0,0.0,0.0,0.0,0.0,0.0,0.0,0.0,0.0,0.0,0.0,0.0,0.0,0.0,0.0,0.0,0.0,0.0,0.0,0.0,0.0,0.0,0.0,0.0,0.0,0.0,0.0,0.0,0.0,0.0,0.0,0.0,0.0,0.0,0.0,0.0,0.0,0.0,0.0,0.0,0.0,0.0,0.0,0.0,0.0,0.0,0.0,0.0,0.0,0.0,0.0,0.0,0.0,0.0,0.0,0.0,0.0,-2.6684,-2.7265,-2.8165,-2.859,-2.9147,-2.9845,-2.9063,-2.8027,-2.6771,0.0,0.0,0.0,0.0,0.0,0.0,0.0,0.0,0.0,0.0,0.0,0.0,0.0,0.0,0.0,0.0,0.0,0.0,0.0,0.0,0.0,0.0,0.0,0.0,0.0,0.0,0.0,0.0,0.0,0.0,0.0,0.0,0.0,0.0,0.0,0.0,0.0,0.0,-3.1657,-3.1767,0.0,0.0,0.0,0.0,0.0,0.0,0.0,0.0,-3.6288,0.0,0.0,0.0,0.0,0.0,0.0,0.0,0.0,0.0,0.0,0.0,0.0,0.0,0.0,0.0,0.0,0.0,0.0,0.0,0.0,0.0,0.0,0.0,0.0,0.0,0.0,0.0,0.0,0.0,0.0,0.0,0.0,0.0,0.0,0.0,0.0,0.0,0.0,0.0,0.0,0.0,0.0,0.0,0.0,0.0,0.0,0.0,0.0,0.0,0.0,0.0,0.0,0.0,0.0,0.0,0.0,-2.7593,-2.7656,-2.8598,-3.0416,-3.0532,-3.0621,-3.0772,-3.0288,-2.9567,-2.8595,0.0,0.0,0.0,0.0,0.0,0.0,0.0,0.0,0.0,0.0,0.0,0.0,0.0,0.0,0.0,0.0,0.0,0.0,0.0,0.0,0.0,0.0,0.0,0.0,0.0,0.0,0.0,0.0,0.0,0.0,0.0,0.0,0.0,0.0,0.0,0.0,0.0,0.0,0.0,-3.3456,-3.3813,0.0,0.0,0.0,0.0,0.0,0.0,0.0,0.0,-3.7104,0.0,0.0,0.0,0.0,0.0,0.0,0.0,0.0,0.0,0.0,0.0,0.0,0.0,0.0,0.0,0.0,0.0,0.0,0.0,0.0,0.0,0.0,0.0,0.0,0.0,0.0,0.0,0.0,0.0,0.0,0.0,0.0,0.0,0.0,0.0,0.0,0.0,0.0,0.0,0.0,0.0,0.0,0.0,0.0,0.0,0.0,0.0,0.0,0.0,0.0,0.0,0.0,0.0,0.0,0.0,-2.8277,-2.8691,-2.9547,-3.0947,-3.1468,-3.1713,-3.1736,-3.1388,-3.0899,0.0,0.0,0.0,0.0,0.0,0.0,0.0,0.0,0.0,0.0,0.0,0.0,0.0,0.0,0.0,0.0,0.0,0.0,0.0,0.0,0.0,0.0,0.0,0.0,0.0,0.0,0.0,0.0,0.0,0.0,0.0,0.0,0.0,0.0,0.0,0.0,0.0,0.0,0.0,0.0,-3.4921,-3.5191,-3.6805,0.0,0.0,0.0,0.0,0.0,0.0,-3.7654,-3.7485,0.0,0.0,0.0,0.0,0.0,0.0,0.0,0.0,0.0,0.0,0.0,0.0,0.0,0.0,0.0,0.0,0.0,0.0,0.0,0.0,0.0,0.0,0.0,0.0,0.0,0.0,0.0,0.0,0.0,0.0,0.0,0.0,0.0,0.0,0.0,0.0,0.0,0.0,0.0,0.0,0.0,0.0,0.0,0.0,0.0,0.0,0.0,0.0,0.0,0.0,0.0,0.0,0.0,0.0,0.0,-2.869,-2.9616,-3.0482,-3.127,-3.2196,-3.2635,-3.2656,-3.2152,-3.171,0.0,0.0,0.0,0.0,0.0,0.0,0.0,0.0,0.0,0.0,0.0,0.0,0.0,0.0,0.0,0.0,0.0,0.0,0.0,0.0,0.0,0.0,0.0,0.0,0.0,0.0,0.0,0.0,0.0,0.0,0.0,0.0,0.0,0.0,0.0,0.0,0.0,0.0,0.0,0.0,0.0,-3.6575,-3.8517,-3.7551,0.0,0.0,0.0,0.0,-3.7957,-3.7966,0.0,0.0,0.0,0.0,0.0,0.0,0.0,0.0,0.0,0.0,0.0,0.0,0.0,0.0,0.0,0.0,0.0,0.0,0.0,0.0,0.0,0.0,0.0,0.0,0.0,0.0,0.0,0.0,0.0,0.0,0.0,0.0,0.0,0.0,0.0,0.0,0.0,0.0,0.0,0.0,0.0,0.0,0.0,0.0,0.0,0.0,0.0,0.0,0.0,0.0,0.0,0.0,0.0,0.0,0.0,0.0,-2.8713,-3.0246,-3.1428,-3.2227,-3.3094,-3.3567,-3.3518,-3.219,-3.1471,0.0,0.0,0.0,0.0,0.0,0.0,0.0,0.0,0.0,0.0,0.0,0.0,0.0,0.0,0.0,0.0,0.0,0.0,0.0,0.0,0.0,0.0,0.0,0.0,0.0,0.0,0.0,0.0,0.0,0.0,0.0,0.0,0.0,0.0,0.0,0.0,0.0,0.0,0.0,0.0,0.0,-3.7719,-3.876,-3.8173,-3.7627,0.0,0.0,-3.8699,-3.8673,-3.9098,0.0,0.0,0.0,0.0,0.0,0.0,0.0,0.0,0.0,0.0,0.0,0.0,0.0,0.0,0.0,0.0,0.0,0.0,0.0,0.0,0.0,0.0,0.0,0.0,0.0,0.0,0.0,0.0,0.0,0.0,0.0,0.0,0.0,0.0,0.0,0.0,0.0,0.0,0.0,0.0,0.0,0.0,0.0,0.0,0.0,0.0,0.0,0.0,0.0,0.0,0.0,0.0,0.0,0.0,0.0,-2.8811,-2.9693,-3.1113,-3.2301,-3.3101,-3.4013,-3.4499,-3.4485,-3.3064,-3.2411,0.0,0.0,0.0,0.0,0.0,0.0,0.0,0.0,0.0,0.0,0.0,0.0,0.0,0.0,0.0,0.0,0.0,0.0,0.0,0.0,0.0,0.0,0.0,0.0,0.0,0.0,0.0,0.0,0.0,0.0,0.0,0.0,0.0,0.0,0.0,0.0,0.0,0.0,0.0,0.0,0.0,0.0,-3.9091,-3.9184,0.0,0.0,0.0,-3.9556,-3.9159,0.0,0.0,0.0,0.0,0.0,0.0,0.0,0.0,0.0,0.0,0.0,0.0,0.0,0.0,0.0,0.0,0.0,0.0,0.0,0.0,0.0,0.0,0.0,0.0,0.0,0.0,0.0,0.0,0.0,0.0,0.0,0.0,0.0,0.0,0.0,0.0,0.0,0.0,0.0,0.0,0.0,0.0,0.0,0.0,0.0,0.0,0.0,0.0,0.0,0.0,0.0,0.0,0.0,0.0,0.0,0.0,0.0,-3.0542,-3.2187,-3.3408,-3.4047,-3.4963,-3.5464,-3.5434,-3.4279,0.0,0.0,0.0,0.0,0.0,0.0,0.0,0.0,0.0,0.0,0.0,0.0,0.0,0.0,0.0,0.0,0.0,0.0,0.0,0.0,0.0,0.0,0.0,0.0,0.0,0.0,0.0,-3.2748,0.0,0.0,0.0,0.0,0.0,0.0,0.0,0.0,0.0,0.0,0.0,0.0,0.0,0.0,-3.9101,-3.929,-3.9886,-4.0285,0.0,0.0,-4.0115,-3.9524,-3.9842,-3.9805,0.0,0.0,0.0,0.0,0.0,0.0,0.0,0.0,0.0,0.0,0.0,0.0,0.0,0.0,0.0,0.0,0.0,0.0,0.0,0.0,0.0,0.0,0.0,0.0,0.0,0.0,0.0,0.0,0.0,0.0,0.0,0.0,0.0,0.0,0.0,0.0,0.0,0.0,0.0,0.0,0.0,0.0,0.0,0.0,0.0,0.0,0.0,0.0,0.0,0.0,0.0,0.0,0.0,0.0,0.0,-3.0962,-3.3545,-3.4945,-3.5059,-3.5928,-3.6429,-3.6414,-3.5828,-3.4984,0.0,0.0,0.0,0.0,0.0,0.0,0.0,0.0,0.0,0.0,0.0,0.0,0.0,0.0,0.0,0.0,0.0,0.0,0.0,0.0,0.0,0.0,0.0,0.0,0.0,0.0,0.0,0.0,0.0,0.0,0.0,0.0,0.0,0.0,0.0,0.0,0.0,0.0,0.0,0.0,0.0,-3.9308,-3.9136,-3.9778,-4.0201,0.0,0.0,-4.0184,-3.9914,-4.0418,-4.0666,-4.0206,0.0,0.0,0.0,0.0,0.0,0.0,0.0,0.0,0.0,0.0,0.0,0.0,0.0,0.0,0.0,0.0,0.0,0.0,0.0,0.0,0.0,0.0,0.0,0.0,0.0,0.0,0.0,0.0,0.0,0.0,0.0,0.0,0.0,0.0,0.0,0.0,0.0,0.0,0.0,0.0,0.0,0.0,0.0,0.0,0.0,0.0,0.0,0.0,0.0,0.0,0.0,0.0,0.0,-3.1307,-3.1882,-3.4006,-3.5385,-3.5959,-3.6693,-3.7089,-3.7074,-3.6558,-3.5718,0.0,0.0,0.0,0.0,0.0,0.0,0.0,0.0,0.0,0.0,0.0,0.0,0.0,0.0,0.0,0.0,0.0,0.0,0.0,0.0,0.0,0.0,0.0,0.0,0.0,0.0,0.0,0.0,-3.7594,-3.7846,-3.7772,0.0,0.0,0.0,0.0,0.0,0.0,0.0,0.0,0.0,0.0,-3.9211,-3.9773,-4.042,0.0,0.0,-4.0774,-4.0819,-4.0814,-4.1086,-4.1061,-4.0464,-4.0411,0.0,0.0,0.0,0.0,0.0,0.0,0.0,0.0,0.0,0.0,0.0,0.0,0.0,0.0,0.0,0.0,0.0,0.0,0.0,0.0,0.0,0.0,0.0,0.0,0.0,0.0,0.0,0.0,0.0,0.0,0.0,0.0,0.0,0.0,0.0,0.0,0.0,0.0,0.0,0.0,0.0,0.0,0.0,0.0,0.0,0.0,0.0,0.0,0.0,0.0,0.0,0.0,-3.2331,-3.2942,-3.4656,-3.5928,-3.6754,-3.7178,-3.749,-3.765,-3.748,-3.6869,0.0,0.0,0.0,0.0,0.0,0.0,0.0,0.0,0.0,0.0,0.0,0.0,0.0,0.0,0.0,0.0,0.0,0.0,0.0,0.0,0.0,0.0,0.0,0.0,0.0,0.0,0.0,0.0,-3.8465,-3.879,-3.8887,0.0,0.0,0.0,0.0,0.0,0.0,0.0,0.0,0.0,0.0,-3.9672,-4.033,-4.0955,-4.1351,-4.1351,-4.1468,-4.1574,-4.1569,-4.1574,-4.1385,-4.0875,0.0,0.0,0.0,0.0,0.0,0.0,0.0,0.0,0.0,0.0,0.0,0.0,0.0,0.0,0.0,0.0,0.0,0.0,0.0,0.0,0.0,0.0,0.0,0.0,0.0,0.0,0.0,0.0,0.0,0.0,0.0,0.0,0.0,0.0,0.0,0.0,0.0,0.0,0.0,0.0,0.0,0.0,0.0,0.0,0.0,0.0,0.0,0.0,0.0,0.0,0.0,0.0,0.0,-3.3615,-3.3967,-3.5609,-3.6769,-3.7358,-3.7401,-3.7709,-3.825,-3.8832,-3.8558,-3.7291,0.0,0.0,0.0,0.0,0.0,0.0,0.0,0.0,0.0,0.0,0.0,0.0,0.0,0.0,0.0,0.0,0.0,0.0,0.0,0.0,0.0,0.0,0.0,0.0,0.0,0.0,-3.6783,-3.7634,-3.8691,0.0,0.0,0.0,0.0,0.0,0.0,0.0,0.0,0.0,0.0,-4.0002,-4.0864,-4.0731,-4.128,-4.1666,-4.1687,-4.205,-4.2257,-4.199,-4.1839,-4.1692,0.0,0.0,0.0,0.0,0.0,0.0,0.0,0.0,0.0,0.0,0.0,0.0,0.0,0.0,0.0,0.0,0.0,0.0,0.0,0.0,0.0,0.0,0.0,0.0,0.0,0.0,0.0,-2.5856,-2.5922,0.0,0.0,0.0,0.0,0.0,0.0,0.0,0.0,0.0,0.0,0.0,-2.7937,-2.8137,0.0,0.0,0.0,0.0,0.0,0.0,0.0,0.0,0.0,0.0,0.0,0.0,-3.4157,-3.422,-3.6076,-3.7178,-3.7401,-3.8197,-3.8701,-3.8876,-3.9487,-3.9215,-3.7903,0.0,0.0,0.0,0.0,0.0,0.0,0.0,0.0,0.0,0.0,0.0,0.0,0.0,0.0,0.0,0.0,0.0,0.0,0.0,0.0,0.0,0.0,0.0,0.0,0.0,-3.8204,0.0,0.0,0.0,0.0,0.0,0.0,0.0,0.0,0.0,0.0,0.0,-3.9719,-4.0119,-4.0391,-4.0693,-4.1099,-4.1416,-4.1591,0.0,0.0,0.0,0.0,0.0,0.0,0.0,0.0,0.0,0.0,0.0,0.0,0.0,0.0,-3.8891,-3.8538,-3.81,-3.7818,-3.7836,0.0,0.0,0.0,0.0,0.0,0.0,0.0,0.0,0.0,0.0,0.0,0.0,0.0,0.0,0.0,0.0,-2.6329,0.0,0.0,0.0,0.0,0.0,0.0,0.0,0.0,-2.7458,-2.8123,-2.885,-2.9052,-2.9437,0.0,-2.9735,-2.9971,0.0,0.0,0.0,0.0,0.0,0.0,0.0,0.0,-3.4771,-3.4931,-3.6535,-3.7608,-3.8026,-3.8783,-3.9312,-3.9513,-3.9893,-3.9708,-3.8873,-3.7704,-3.6663,0.0,0.0,0.0,0.0,0.0,0.0,0.0,0.0,0.0,0.0,0.0,0.0,0.0,0.0,0.0,0.0,0.0,0.0,0.0,0.0,0.0,0.0,0.0,-3.8986,0.0,0.0,0.0,0.0,0.0,0.0,0.0,0.0,0.0,-3.9424,-3.9903,-4.0524,-4.1002,-4.1064,-4.123,-4.1682,0.0,0.0,0.0,0.0,0.0,0.0,0.0,-4.2374,-4.2103,-4.2187,-4.2086,-4.1453,-4.1233,-4.1117,-4.1105,0.0,0.0,-3.9287,-3.8874,-3.8594,-3.8594,-3.8594,-3.8594,-3.8594,-3.8594,-3.8594,0.0,0.0,0.0,0.0,0.0,0.0,0.0,0.0,-2.5329,-2.612,0.0,-2.7071,0.0,0.0,0.0,0.0,0.0,0.0,0.0,0.0,-2.7664,-2.8607,-3.0421,-3.0077,-3.0658,-3.2169,-3.1631,-3.2017,-3.3115,-3.2159,0.0,0.0,0.0,0.0,0.0,0.0,-3.5546,-3.6105,-3.7025,-3.8026,-3.9125,-3.9206,-3.9513,-4.007,-4.0121,-4.0129,-4.0062,-3.9085,-3.8446,-3.8218,-3.6796,0.0,0.0,0.0,0.0,0.0,0.0,0.0,0.0,0.0,0.0,0.0,0.0,0.0,0.0,0.0,0.0,0.0,0.0,0.0,0.0,-3.8845,0.0,0.0,0.0,0.0,0.0,0.0,0.0,0.0,0.0,0.0,-4.0032,-4.0955,-4.1631,-4.1442,0.0,0.0,0.0,0.0,-4.2394,-4.2328,-4.247,-4.2591,-4.2634,-4.2613,-4.2589,-4.255,0.0,0.0,-4.0995,-4.1006,-4.1047,-4.0935,-4.0877,-4.0694,-4.0066,-3.9306,-3.8772,-3.8755,-3.8789,-3.8703,-3.8703,-3.8836,-3.8784,-2.658,0.0,0.0,0.0,0.0,-2.6362,-2.6265,-2.5991,-2.6114,-2.6206,-2.6183,-2.6199,0.0,0.0,0.0,0.0,0.0,0.0,-2.6601,-2.7529,-2.8187,-2.9466,-3.1211,-3.1841,-3.2586,-3.3393,-3.323,-3.3675,-3.4565,-3.4295,-3.4097,-3.4032,0.0,0.0,0.0,0.0,-3.6213,-3.6722,-3.7994,-3.8865,-3.9162,-3.9618,-3.9901,-4.0113,-4.0473,-4.0679,-4.0679,-4.0764,-4.0416,-3.9611,-3.9309,0.0,0.0,0.0,0.0,0.0,0.0,0.0,0.0,0.0,0.0,0.0,0.0,0.0,0.0,0.0,0.0,0.0,0.0,0.0,-3.8776,-4.0267,-4.0969,0.0,0.0,0.0,0.0,0.0,0.0,0.0,0.0,0.0,-4.1827,-4.1812,-4.1836,0.0,0.0,-4.2148,-4.231,-4.2452,-4.2571,-4.2575,0.0,0.0,0.0,-4.236,-4.232,-4.1687,-4.1408,-4.1215,-4.107,-4.0982,-4.0942,-4.0894,-4.0894,-4.0808,-4.0659,-4.0435,-4.0239,-4.0239,-4.0256,-4.0239,-4.0256,-4.0256,-4.0198,-2.6825,-2.6823,-2.6768,-2.6693,-2.6528,-2.6805,-2.6652,-2.6249,-2.6249,-2.6176,-2.6061,-2.591,-2.5974,-2.6227,-2.6227,0.0,0.0,0.0,-2.6559,-2.7702,-2.8756,-3.0162,-3.1798,-3.2896,-3.3593,-3.3894,-3.4224,-3.4812,-3.5598,-3.5787,-3.5957,-3.6045,0.0,0.0,-3.5672,-3.6755,-3.7567,-3.8075,-3.9388,-4.0176,-4.0418,-4.0508,-4.0637,-4.0878,-4.0922,-4.1018,-4.1246,-4.1643,-4.152,-4.0795,-4.0641,-3.9895,0.0,0.0,0.0,0.0,0.0,0.0,0.0,0.0,0.0,0.0,0.0,-3.733,-3.6485,0.0,0.0,0.0,-3.9244,-3.9863,-4.0222,-4.1153,0.0,0.0,0.0,0.0,0.0,0.0,0.0,-4.177,-4.2251,-4.2609,-4.2589,-4.2353,-4.2254,-4.2512,-4.2743,-4.292,-4.2999,0.0,-4.3746,-4.3669,-4.3371,-4.3185,-4.3266,-4.3492,-4.3344,-4.2247,-4.1588,-4.1215,-4.1029,-4.0976,-4.0894,-4.0894,-4.0894,-4.0894,-4.0894,-4.0894,-4.0894,-4.0894,-4.0894,-4.0894,-4.0894,-4.0894,-4.0894,-2.7315,-2.7283,-2.7231,-2.6907,-2.6501,-2.6467,-2.6249,-2.5895,-2.5895,-2.6093,-2.6404,-2.6052,-2.6343,-2.7103,-2.7185,0.0,0.0,-2.6738,-2.7454,-2.8592,-2.9622,-3.0914,-3.2447,-3.3484,-3.4002,-3.4095,-3.4849,-3.5608,-3.6272,-3.6775,-3.7484,-3.8295,-3.753,-3.6908,-3.6585,-3.8157,-3.9263,-3.9886,-4.0882,-4.1738,-4.2349,-4.1757,-4.1663,-4.2163,-4.1505,-4.1383,-4.1853,-4.2041,-4.2062,-4.1923,-4.1286,-4.088,-4.0712,0.0,0.0,0.0,0.0,0.0,0.0,0.0,0.0,0.0,0.0,0.0,0.0,0.0,0.0,0.0,-4.0511,0.0,-4.197,-4.166,0.0,0.0,0.0,-4.1756,-4.2318,-4.2416,-4.2494,-4.2571,0.0,0.0,0.0,0.0,-4.2803,-4.3251,-4.3926,-4.4325,-4.4225,-4.4959,-4.5489,-4.5126,-4.5059,-4.5077,-4.4933,-4.5028,-4.4631,-4.3494,-4.2379,-4.1462,-4.1092,-4.0929,-4.0912,-4.0894,-4.0894,-4.0894,-4.0894,-4.0894,-4.0894,-4.0894,-4.0894,-4.0894,-4.0894,-4.0894,-4.0894,-2.7315,-2.7293,-2.7271,-2.7017,-2.6537,-2.6175,-2.5979,-2.5895,-2.5895,-2.5937,-2.6021,-2.5937,-2.6021,-2.626,-2.7051,-2.7644,-2.7962,-2.8719,-2.993,-3.1379,-3.1672,-3.2685,-3.4151,-3.4454,-3.4816,-3.5315,-3.6075,-3.6613,-3.6903,-3.7636,-3.8213,-3.8671,-3.8905,-3.8686,-3.8051,-3.9261,-4.0081,-4.0482,-4.118,-4.2038,-4.3019,-4.3347,-4.327,-4.2802,-4.3059,-4.2954,-4.2498,-4.2903,-4.3123,-4.3105,-4.2923,-4.2359,-4.1354,-4.0294,0.0,0.0,0.0,0.0,0.0,0.0,0.0,0.0,0.0,-3.8853,-3.7893,0.0,-4.0231,0.0,-4.1289,-4.2359,-4.2539,-4.244,0.0,0.0,-4.1955,-4.1976,-4.2218,-4.2557,-4.271,-4.2476,-4.2729,-4.2901,-4.2901,-4.2883,-4.3268,-4.4199,-4.416,-4.4296,-4.5029,-4.5381,-4.5623,-4.566,-4.5174,-4.471,-4.4848,-4.42,-4.3839,-4.3764,-4.2719,-4.186,-4.174,-4.1274,-4.0894,-4.0894,-4.0894,-4.0894,-4.0894,-4.0894,-4.0894,-4.0894,-4.0894,-4.0894,-4.0894,-4.0894,-4.0894,-2.796,-2.7938,-2.7719,-2.7456,-2.7184,-2.6736,-2.6529,-2.6529,-2.6529,-2.6529,-2.6529,-2.6518,-2.6529,-2.6572,-2.7135,-2.7893,-2.8724,-2.9296,-3.0454,-3.199,-3.2557,-3.3393,-3.4459,-3.4968,-3.5544,-3.6243,-3.7078,-3.7665,-3.8105,-3.8887,-3.9364,-3.9568,-4.0579,-4.0752,-4.0115,-4.0712,-4.1081,-4.1292,-4.2117,-4.3107,-4.4229,-4.4299,-4.4002,-4.343,-4.3461,-4.3051,-4.216,-4.2523,-4.2734,-4.2659,-4.2659,-4.2308,-4.1566,-4.0574,-3.973,0.0,0.0,0.0,0.0,0.0,0.0,0.0,0.0,0.0,0.0,0.0,-4.1138,0.0,-4.1912,0.0,-4.242,-4.2382,-4.2382,-4.24,-4.24,-4.2482,-4.2751,-4.2995,-4.3105,-4.292,-4.3087,-4.3232,-4.3214,-4.3232,-4.3725,-4.5058,-4.4985,-4.5145,-4.6062,-4.6596,-4.6834,-4.6663,-4.649,-4.6253,-4.6124,-4.5134,-4.439,-4.4278,-4.3349,-4.243,-4.2085,-4.1671,-4.1309,-4.0981,-4.0894,-4.0894,-4.0894,-4.0894,-4.0894,-4.0894,-4.0894,-4.0894,-4.0894,-4.0894,-4.0894,-2.8803,-2.8771,-2.8309,-2.8134,-2.8045,-2.7676,-2.7424,-2.7315,-2.7315,-2.7315,-2.7315,-2.7315,-2.7315,-2.7315,-2.7426,-2.8105,-2.9176,-2.9506,-3.0417,-3.1878,-3.3055,-3.3821,-3.4236,-3.5237,-3.6057,-3.678,-3.7648,-3.8473,-3.9175,-4.0076,-4.0524,-4.0593,-4.1965,-4.2443,-4.2013,-4.2091,-4.2146,-4.2163,-4.3365,-4.4496,-4.5442,-4.4912,-4.4359,-4.3913,-4.3377,-4.2612,-4.153,-4.1647,-4.1729,-4.1629,-4.1607,-4.1629,-4.1715,-4.0403,-3.9761,0.0,-3.8764,0.0,0.0,0.0,0.0,0.0,0.0,0.0,0.0,-4.1424,-4.1814,-4.1916,-4.24,-4.2559,-4.2223,-4.2185,-4.2402,-4.2902,-4.2994,-4.3105,-4.3444,-4.3479,-4.3479,-4.3479,-4.3479,-4.3479,-4.3479,-4.3479,-4.4102,-4.5516,-4.581,-4.6159,-4.7113,-4.7867,-4.8138,-4.7754,-4.8135,-4.7875,-4.737,-4.6535,-4.5658,-4.5062,-4.4093,-4.312,-4.2499,-4.224,-4.193,-4.1274,-4.1101,-4.105,-4.0929,-4.0894,-4.0894,-4.0894,-4.0894,-4.0894,-4.0894,-4.0894,-4.0894,-2.8803,-2.8781,-2.8705,-2.8615,-2.865,-2.8563,-2.8036,-2.7315,-2.7315,-2.7315,-2.7315,-2.7315,-2.7315,-2.7348,-2.8223,-2.8991,-2.9744,-3.1559,-3.2778,-3.3566,-3.4723,-3.5319,-3.5399,-3.5588,-3.579,-3.6017,-3.7396,-3.8175,-3.8361,-3.9814,-4.0593,-4.0749,-4.1574,-4.2029,-4.2126,0.0,0.0,0.0,-4.4311,-4.5117,-4.5312,-4.5583,-4.5133,-4.3943,-4.3795,0.0,-4.1817,-4.1668,-4.169,-4.175,-4.156,0.0,0.0,0.0,0.0,0.0,0.0,0.0,0.0,0.0,0.0,0.0,-4.1562,-4.1474,-4.158,-4.1722,-4.2,-4.248,-4.2635,-4.2846,-4.3178,-4.3232,-4.3249,-4.3375,-4.3375,-4.341,-4.3479,-4.3479,-4.3479,-4.3479,-4.3479,-4.3479,-4.3479,-4.3479,-4.4103,-4.5608,-4.5902,-4.6507,-4.7865,-4.8215,-4.8287,-4.8172,-4.7997,-4.7488,-4.6631,-4.6306,-4.5943,-4.5363,-4.4664,-4.4069,-4.381,-4.3327,-4.2706,-4.1947,-4.1792,-4.1585,-4.105,-4.0894,-4.0894,-4.0894,-4.0894,-4.0894,-4.0894,-4.0894,-4.0894,-2.8803,0.0,-2.8803,-2.8803,0.0,-2.8803,-2.8519,-2.8025,-2.807,-2.8025,-2.8025,-2.8025,-2.8025,-2.807,-2.8623,-2.966,-3.1081,-3.2201,-3.345,-3.4841,-3.5399,-3.571,-3.571,-3.571,-3.6123,-3.6908,-3.771,-3.8509,-3.932,-4.0111,-4.0558,-4.0662,-4.1804,-4.2426,-4.2584,-4.3634,-4.3914,-4.3429,-4.4254,-4.503,-4.5815,-4.6077,-4.5823,-4.504,0.0,0.0,0.0,0.0,0.0,0.0,0.0,0.0,0.0,0.0,0.0,-4.2085,-4.1754,-4.1732,-4.2183,-4.2147,-4.2251,-4.262,-4.2639,-4.2523,-4.2264,-4.2501,-4.2753,-4.3069,-4.3087,-4.3214,-4.3462,-4.3479,-4.3479,-4.3479,-4.3479,-4.3479,-4.3479,-4.3479,-4.3479,-4.3479,-4.3479,-4.3479,-4.3479,-4.3479,-4.4157,-4.559,-4.5902,-4.6489,-4.7939,-4.8363,-4.8401,-4.8402,-4.7759,-4.715,-4.6712,-4.6376,-4.6045,-4.5494,-4.5096,-4.4716,-4.4363,-4.4,-4.35,-4.2758,-4.2292,-4.1836,-4.1509,-4.117,-4.0894,-4.0894,-4.0894,-4.0894,-4.0894,-4.0894,-4.0894,-2.8803,-2.8803,-2.8803,-2.8803,-2.8803,-2.8803,-2.8803,-2.8803,0.0,0.0,0.0,-2.8803,-2.8803,-2.8803,-2.8803,-2.9977,-3.1948,-3.2209,-3.3411,-3.5372,-3.5575,-3.571,-3.571,-3.571,-3.6387,-3.7648,-3.7951,-3.8782,-4.0076,-4.0335,-4.0489,-4.0646,-4.2173,-4.3089,-4.3436,-4.4552,-4.4769,-4.4035,-4.4076,-4.4814,-4.6192,-4.6216,-4.6129,-4.5922,-4.6046,-4.5394,-4.3913,-4.343,-4.3085,-4.2838,-4.2172,-4.1774,-4.1775,-4.1672,-4.1676,-4.1905,-4.1842,-4.2106,-4.2789,-4.2679,-4.2848,-4.3462,-4.3479,-4.3322,-4.2864,-4.3232,-4.3479,-4.3479,-4.3479,-4.3479,-4.3479,-4.3479,-4.3479,-4.3479,-4.3479,-4.3479,-4.3479,-4.3479,-4.3479,-4.3479,-4.3479,-4.3479,-4.3479,-4.3479,-4.4011,-4.5333,-4.5792,-4.6471,-4.7902,-4.8382,-4.842,-4.8288,-4.7679,-4.7088,-4.6837,-4.6531,-4.6077,-4.5511,-4.5397,-4.5173,-4.4682,-4.4475,-4.4207,-4.3517,-4.2844,-4.2413,-4.2026,-4.1509,-4.1067,-4.0929,-4.0894,-4.0894,-4.0894,-4.0894,-4.0894,-2.8803,-2.8803,-2.8803,-2.8803,-2.8803,-2.8803,-2.8803,-2.8803,-2.8803,-2.8803,-2.8803,-2.8803,-2.8803,-2.8803,-2.8803,-2.9498,-3.0798,-3.1816,-3.2986,0.0,-3.5237,-3.571,-3.571,-3.571,-3.5831,-3.6123,-3.7434,-3.8213,-3.8546,-3.9849,-4.0489,-4.0681,-4.2062,-4.3453,-4.4642,-4.4951,-4.4896,-4.4665,-4.4692,-4.4998,-4.5597,-4.552,-4.5374,-4.5251,-4.5308,-4.4954,-4.4169,-4.3988,-4.3576,-4.3001,-4.2648,-4.2487,-4.2554,-4.2368,-4.2546,-4.316,-4.3214,-4.3267,-4.3356,-4.3375,-4.3374,-4.3479,-4.3479,-4.3462,-4.3392,-4.3444,-4.3479,-4.3479,-4.3479,-4.3479,-4.3479,-4.3479,-4.3479,-4.3479,-4.3479,-4.3479,-4.3479,-4.3479,-4.3479,-4.3479,-4.3479,-4.3479,-4.3479,-4.3479,-4.3828,-4.4745,-4.5516,-4.6471,-4.7719,-4.8306,-4.8152,-4.7838,-4.7614,-4.7186,-4.6543,-4.6291,-4.5963,-4.5502,-4.5414,-4.5363,-4.519,-4.5139,-4.4906,-4.4276,-4.3897,-4.3362,-4.2319,-4.1964,-4.1516,-4.105,-4.0894,-4.0894,-4.0894,-4.0894,-4.0894,-2.8803,-2.8803,-2.8803,-2.8803,-2.8803,-2.8803,-2.8803,-2.8803,-2.8803,-2.8803,-2.8803,-2.8803,-2.8803,-2.8803,-2.8803,-2.9806,-3.1509,-3.2079,-3.3267,-3.4883,-3.5453,-3.571,-3.571,-3.571,-3.5951,-3.6401,-3.7548,-3.8324,-3.8818,-3.992,-4.0489,-4.0612,-4.2126,-4.3643,-4.5015,-4.5167,-4.5157,-4.5005,-4.4886,-4.5025,-4.5485,-4.5511,-4.5782,-4.6329,-4.644,-4.6453,-4.6406,-4.5952,-4.5533,-4.5231,-4.4263,-4.3748,-4.3761,-4.3287,-4.3141,-4.3462,-4.3479,-4.3479,-4.3479,-4.3479,-4.3479,-4.3479,-4.3479,-4.3479,-4.3479,-4.3479,-4.3479,-4.3479,-4.3479,-4.3479,-4.3479,-4.3479,-4.3479,-4.3479,-4.3479,-4.3479,-4.3479,-4.3479,-4.3479,-4.3479,-4.3479,-4.3479,-4.3479,-4.3479,-4.3791,-4.4599,-4.5388,-4.6214,-4.6892,-4.6832,-4.6928,-4.7412,-4.7204,-4.6707,-4.6224,-4.593,-4.5693,-4.5423,-4.5414,-4.5414,-4.5414,-4.5397,-4.5207,-4.4906,-4.4285,-4.35,-4.2672,-4.193,-4.136,-4.1067,-4.0894,-4.0894,-4.0894,-4.0894,-4.0894,-2.8891,-2.8803,-2.8803,-2.8803,-2.8803,-2.8803,-2.8803,-2.8803,-2.8803,-2.8803,-2.8803,-2.8803,-2.8803,-2.8803,-2.8803,-3.0079,-3.2079,-3.2296,-3.3496,-3.5548,-3.571,-3.571,-3.571,-3.571,-3.6031,-3.6702,-3.7625,-3.8436,-3.9088,-4.0005,-4.0612,-4.0904,-4.2093,-4.3449,-4.4899,-4.5042,-4.5096,-4.5123,-4.4968,-4.5079,-4.5588,-4.5648,-4.6161,-4.7084,-4.7299,-4.753,-4.7822,-4.7314,-4.6972,-4.685,-4.5698,-4.4949,-4.4691,-4.4103,-4.3698,-4.3516,-4.3479,-4.3479,-4.3479,-4.3479,-4.3479,-4.3479,-4.3479,-4.3479,-4.3479,-4.3479,-4.3479,-4.3479,-4.3479,-4.3479,-4.3479,-4.3479,-4.3479,-4.3479,-4.3479,-4.3479,-4.3479,-4.3479,-4.3479,-4.3479,-4.3479,-4.3479,-4.3479,-4.3479,-4.3828,-4.4599,-4.5259,-4.5627,-4.57,-4.5412,-4.5694,-4.6216,-4.6127,-4.5596,-4.5555,-4.5145,-4.4889,-4.4906,-4.4828,-4.4785,-4.4803,-4.4872,-4.4889,-4.4665,-4.3958,-4.3207,-4.2896,-4.2068,-4.1257,-4.0981,-4.0894,-4.0894,-4.0894,-4.0894,-4.0894,-2.915,-2.8836,-2.8814,-2.8803,-2.8803,-2.8803,-2.8803,-2.8803,-2.8803,-2.8803,-2.8803,-2.8803,-2.8803,-2.8803,-2.8803,-3.0068,-3.2209,-3.2296,-3.3509,-3.5535,-3.571,-3.571,-3.571,-3.571,-3.575,-3.6017,-3.7357,-3.8175,-3.8361,-3.9778,-4.0904,-4.1607,-4.1852,-4.2676,-4.3951,-4.414,-4.4412,-4.5005,-4.5005,-4.5249,-4.5817,-4.5749,-4.5957,-4.6478,-4.6671,-4.6717,-4.6664,-4.6669,-4.6601,-4.6302,-4.6148,-4.5626,-4.4821,-4.4618,-4.4251,-4.3535,-4.3479,-4.3479,-4.3479,-4.3479,-4.3479,-4.3479,-4.3479,-4.3479,-4.3479,-4.3479,-4.3479,-4.3479,-4.3479,-4.3479,-4.3479,-4.3479,-4.3479,-4.3479,-4.3479,-4.3479,-4.3479,-4.3479,-4.3479,-4.3479,-4.3479,-4.3479,-4.3479,-4.3479,-4.3791,-4.4452,-4.4619,-4.4839,-4.505,-4.4664,-4.426,-4.4306,-4.4109,-4.3984,-4.3749,-4.3506,-4.3603,-4.3552,-4.3465,-4.3586,-4.3655,-4.3603,-4.3448,-4.381,-4.3379,-4.2896,-4.243,-4.1888,-4.1619,-4.1032,-4.0894,-4.0894,-4.0894,-4.0894,-4.0894,-2.9368,-2.9208,-2.8924,-2.8803,-2.8803,-2.8803,-2.8803,-2.8803,-2.8803,-2.8803,-2.8803,-2.8803,-2.8803,-2.8803,-2.8803,-3.0079,-3.2209,-3.2296,-3.3509,-3.5588,-3.571,-3.571,-3.571,-3.571,-3.571,-3.5871,-3.7319,-3.8086,-3.8361,-3.9728,-4.0938,-4.1722,-4.1819,-4.2332,-4.336,-4.3877,-4.4266,-4.4535,-4.4934,-4.5257,-4.5433,-4.5354,-4.5477,-4.5815,-4.6098,-4.6341,-4.6578,-4.6753,-4.6707,-4.6481,-4.6118,-4.5455,-4.4507,-4.4081,-4.3525,-4.2841,-4.2995,-4.3142,-4.316,-4.3357,-4.3479,-4.3479,-4.3479,-4.3479,-4.3479,-4.3479,-4.3479,-4.3479,-4.3479,-4.3479,-4.3479,-4.3479,-4.3479,-4.3479,-4.3479,-4.3479,-4.3479,-4.3479,-4.3479,-4.3479,-4.3479,-4.3479,-4.3479,-4.3479,-4.3626,-4.3903,-4.3797,-4.3777,-4.3842,-4.3227,-4.2714,-4.2487,-4.2294,-4.2506,-4.2946,-4.3207,-4.3172,-4.3172,-4.3207,-4.3207,-4.3138,-4.3189,-4.3207,-4.3155,-4.2775,-4.243,-4.2137,-4.1602,-4.1222,-4.0912,-4.0894,-4.0894,-4.0894,-4.0894,-4.0894,-2.9598,-2.9412,-2.9011,-2.8803,-2.8803,-2.8803,-2.8803,-2.8803,-2.8803,-2.8803,-2.8803,-2.8803,-2.8978,-2.9233,-2.9198,-3.0474,-3.2469,-3.2698,-3.3775,-3.5548,-3.571,-3.571,-3.571,-3.571,-3.571,-3.5977,-3.7319,-3.8324,-3.8818,-3.9849,-4.0851,-4.1376,-4.1442,-4.1836,-4.2582,-4.3433,-4.3963,-4.4152,-4.4862,-4.5203,-4.5167,-4.5086,-4.5133,-4.5311,-4.5528,-4.5835,-4.614,-4.6304,-4.64,-4.6412,-4.5758,-4.5047,-4.4299,-4.3622,-4.2956,-4.2325,-4.2518,-4.2729,-4.2711,-4.3087,-4.3339,-4.3358,-4.341,-4.3479,-4.3479,-4.3479,-4.3479,-4.3479,-4.3479,-4.3479,-4.3479,-4.3479,-4.3479,-4.3479,-4.3479,-4.3479,-4.3479,-4.3479,-4.3479,-4.3479,-4.3479,-4.3444,-4.3357,-4.3322,-4.3304,-4.3123,-4.2882,-4.2634,-4.2478,-4.198,-4.1542,-4.1356,-4.1082,-4.1408,-4.2344,-4.2447,-4.2551,-4.2551,-4.2447,-4.243,-4.2568,-4.2551,-4.2551,-4.2068,-4.1861,-4.174,-4.1585,-4.117,-4.0946,-4.0912,-4.0894,-4.0894,-4.0894,-4.0894,-4.0894,-2.9915,-2.9493,-2.9011,-2.8803,-2.8803,-2.8803,-2.8803,-2.8803,-2.8803,-2.8803,-2.8803,-2.8896,-2.9406,-3.0406,-3.0294,-3.1444,-3.3395,-3.3577,-3.4304,-3.5629,-3.571,-3.571,-3.571,-3.571,-3.571,-3.5831,-3.7242,-3.8745,-4.0146,-4.042,-4.0539,-4.0593,-4.0627,-4.0938,-4.1641,-4.2567,-4.3317,-4.3823,-4.478,-4.5247,-4.5086,-4.514,-4.5086,-4.4923,-4.4978,-4.5059,-4.4978,-4.5059,-4.5302,-4.5724,-4.5043,-4.4469,-4.4079,-4.3456,-4.28,-4.2243,-4.2198,-4.2236,-4.2279,-4.2673,-4.292,-4.2975,-4.3196,-4.3462,-4.3427,-4.3427,-4.3444,-4.3479,-4.3479,-4.3479,-4.3479,-4.3479,-4.3479,-4.3479,-4.3479,-4.3479,-4.3479,-4.3479,-4.3479,-4.3479,-4.3462,-4.3268,-4.2994,-4.292,-4.275,-4.246,-4.2259,-4.2133,-4.1778,-4.1556,-4.1328,-4.1088,-4.0942,-4.0946,-4.1032,-4.136,-4.1274,-4.1326,-4.1498,-4.1205,-4.105,-4.0998,-4.1084,-4.1136,-4.1153,-4.1119,-4.0998,-4.0946,-4.0912,-4.0894,-4.0894,-4.0894,-4.0894,-4.0894,-4.0894,-3.0188,-2.9445,-2.9011,-2.8803,-2.8803,-2.8803,-2.8803,-2.8803,-2.8803,-2.8803,-2.8932,-2.9543,-3.0451,-3.142,-3.2122,-3.2968,-3.3817,-3.3901,-3.4553,-3.5629,-3.571,-3.571,-3.571,-3.571,-3.571,-3.5871,-3.6805,-3.8167,-3.9657,-4.0216,-4.0489,-4.0489,-4.0489,-4.0646,-4.099,-4.1771,-4.2583,-4.33,-4.4192,-4.4818,-4.5133,-4.5318,-4.5238,-4.5076,-4.5005,-4.4995,-4.4923,-4.4978,-4.4864,-4.4578,-4.4363,-4.374,-4.2611,-4.1916,-4.1487,-4.1295,-4.1556,-4.1756,-4.1799,-4.2177,-4.2458,-4.2458,-4.2559,-4.2827,-4.305,-4.3105,-4.3214,-4.341,-4.3479,-4.3479,-4.3479,-4.3479,-4.3479,-4.3479,-4.3479,-4.3479,-4.3479,-4.3479,-4.3479,-4.3444,-4.3286,-4.2939,-4.2577,-4.2476,-4.2398,-4.2198,-4.1948,-4.1692,-4.1512,-4.1305,-4.1047,-4.0942,-4.0894,-4.0894,-4.0894,-4.0929,-4.0929,-4.0929,-4.0963,-4.0998,-4.0929,-4.0912,-4.1015,-4.1032,-4.0912,-4.0912,-4.0929,-4.0929,-4.0894,-4.0894,-4.0894,-4.0894,-4.0894,-4.0894,-4.0894,-3.0209,-2.9467,-2.9,-2.8803,-2.8803,-2.8803,-2.8803,-2.8803,-2.8803,-2.8803,-2.9024,-3.0011,-3.1066,-3.2122,-3.3254,-3.4124,-3.4498,-3.4511,-3.4896,-3.5669,-3.571,-3.571,-3.571,-3.571,-3.571,-3.5911,-3.6805,-3.8003,-3.9233,-4.0095,-4.0489,-4.0489,-4.0489,-4.0382,-4.0368,-4.1045,-4.1645,-4.2026,-4.2738,-4.3412,-4.3851,-4.4173,-4.4226,-4.4173,-4.4217,-4.438,-4.4646,-4.4646,-4.4278,-4.3585,-4.3322,-4.2604,-4.1306,-4.0825,-4.0648,-4.0745,-4.1047,-4.126,-4.1333,-4.1713,-4.1969,-4.199,-4.2136,-4.2358,-4.2653,-4.2673,-4.2826,-4.3014,-4.3087,-4.3087,-4.3087,-4.3069,-4.3196,-4.3392,-4.3392,-4.3375,-4.348,-4.3479,-4.3427,-4.325,-4.2902,-4.2498,-4.2074,-4.199,-4.1924,-4.1817,-4.149,-4.1328,-4.126,-4.1111,-4.0894,-4.0894,-4.0894,-4.0894,-4.0894,-4.0894,-4.0894,-4.0894,-4.0894,-4.0894,-4.0894,-4.0894,-4.0894,-4.0894,-4.0894,-4.0894,-4.0894,-4.0894,-4.0894,-4.0894,-4.0894,-4.0894,-4.0894,-4.0894,-4.0894,-2.9947,-2.9478,-2.9,-2.8803,-2.8803,-2.8803,-2.8803,-2.8803,-2.8803,-2.8803,-2.8978,-3.0056,-3.1288,-3.2339,-3.3606,-3.4677,-3.5372,-3.5345,-3.5426,-3.5669,-3.571,-3.571,-3.571,-3.5642,-3.556,-3.5614,-3.7195,-3.8311,-3.9017,-3.9742,-4.0221,-4.0397,-4.0305,-3.9967,-3.9524,-4.0193,-4.0293,-4.0145,-4.0788,-4.107,-4.0881,-4.1788,-4.2257,-4.2189,-4.2641,-4.3184,-4.3799,-4.3877,-4.3456,-4.2584,-4.192,-4.1112,-4.0576,-4.0453,-4.0558,-4.0673,-4.0721,-4.0793,-4.0942,-4.1283,-4.1512,-4.1556,-4.1885,-4.2095,-4.2175,-4.2216,-4.2239,-4.234,-4.232,-4.2279,-4.23,-4.2279,-4.2578,-4.3286,-4.316,-4.3142,-4.3392,-4.3479,-4.3303,-4.2883,-4.2438,-4.2011,-4.1648,-4.1512,-4.1418,-4.1157,-4.1012,-4.0989,-4.0995,-4.0942,-4.0894,-4.0894,-4.0894,-4.0894,-4.0894,-4.0894,-4.0894,-4.0894,-4.0894,-4.0894,-4.0894,-4.0894,-4.0894,-4.0894,-4.0894,-4.0894,-4.0894,-4.0894,-4.0894,-4.0894,-4.0894,-4.0894,-4.0894,-4.0894,-4.0894,-3.0122,-2.9882,-2.9142,-2.8803,-2.8803,-2.8803,-2.8803,-2.8803,-2.8803,-2.8803,-2.9152,-3.0855,-3.1991,-3.2685,-3.4249,-3.5372,-3.5669,-3.5642,-3.5642,-3.5696,-3.5696,-3.5696,-3.5628,-3.5303,-3.4843,-3.4712,-3.5559,-3.6496,-3.7233,-3.8038,-3.8588,-3.9039,-3.9136,-3.9031,-3.8831,-3.908,-3.9232,-3.9673,-3.9932,-4.0337,-4.0894,-4.1616,-4.2004,-4.2102,-4.2602,-4.2757,-4.2356,-4.2791,-4.2663,-4.1895,-4.1656,-4.1188,-4.0508,-4.0436,-4.051,-4.06,-4.0745,-4.0864,-4.0894,-4.0995,-4.1094,-4.1094,-4.1255,-4.144,-4.167,-4.1713,-4.1864,-4.2115,-4.2216,-4.2216,-4.2157,-4.1885,-4.2118,-4.2995,-4.2976,-4.3013,-4.3303,-4.3232,-4.275,-4.2095,-4.1799,-4.1534,-4.1232,-4.1111,-4.1065,-4.0942,-4.0894,-4.0894,-4.0894,-4.0894,-4.0894,-4.0894,-4.0894,-4.0894,-4.0894,-4.0894,-4.0894,-4.0894,-4.0894,-4.0894,-4.0894,-4.0894,-4.0894,-4.0894,-4.0894,-4.0894,-4.0894,-4.0894,-4.0894,-4.0894,-4.0894,-4.0894,-4.0894,-4.0894,-4.0894,-3.022,-3.0111,-2.9208,-2.8803,-2.8803,-2.8803,-2.8803,-2.885,-2.9198,-2.9325,-2.9772,-3.1697,-3.2741,-3.3169,-3.4772,-3.5602,-3.571,-3.571,-3.5601,-3.5371,-3.5344,-3.5358,-3.5263,-3.4748,-3.4301,-3.4129,-3.4775,-3.5559,-3.6199,-3.7001,-3.7797,-3.8424,-3.8508,-3.8385,-3.8169,-3.8123,-3.8337,-3.8528,-3.848,-3.8772,-3.9326,-3.9993,-4.0348,-4.047,-4.124,-4.1376,-4.09,-4.1529,-4.1706,-4.1238,-4.1136,-4.0897,-4.0364,-4.0436,-4.051,-4.0534,-4.068,-4.084,-4.0888,-4.0894,-4.0894,-4.0894,-4.0894,-4.1012,-4.1214,-4.1283,-4.144,-4.1644,-4.1687,-4.1709,-4.1644,-4.1468,-4.1644,-4.2297,-4.234,-4.2577,-4.2865,-4.2655,-4.2216,-4.1648,-4.1396,-4.118,-4.0989,-4.0894,-4.0894,-4.0894,-4.0894,-4.0894,-4.0894,-4.0894,-4.0894,-4.0894,-4.0894,-4.0894,-4.0894,-4.0894,-4.0894,-4.0894,-4.0894,-4.0894,-4.0894,-4.0894,-4.0894,-4.0894,-4.0894,-4.0894,-4.0894,-4.0894,-4.0894,-4.0894,-4.0894,-4.0894,-4.0894,-4.0894,-4.0894,-3.022,-3.0089,-2.9208,-2.8803,-2.8803,-2.8803,-2.8803,-2.8932,-2.9772,-3.0079,-3.0564,-3.2296,-3.3352,-3.3843,-3.4881,-3.5521,-3.5615,-3.5588,-3.5303,-3.491,-3.4721,-3.4651,-3.4504,-3.4084,-3.3772,-3.3816,-3.4478,-3.5236,-3.588,-3.6586,-3.7642,-3.8117,-3.8169,-3.8077,-3.7554,-3.7446,-3.72,-3.6878,-3.6708,-3.677,-3.6832,-3.7333,-3.7644,-3.7793,-3.8997,-3.9692,-3.9796,-4.0433,-4.0688,-4.0372,-4.0514,-4.0497,-4.0355,-4.0429,-4.051,-4.051,-4.0607,-4.0769,-4.0847,-4.0894,-4.0894,-4.0894,-4.0894,-4.0894,-4.0965,-4.0989,-4.1012,-4.1041,-4.1018,-4.0989,-4.0989,-4.0965,-4.1157,-4.1401,-4.1692,-4.1927,-4.2074,-4.1821,-4.1583,-4.1423,-4.114,-4.0894,-4.0894,-4.0894,-4.0894,-4.0894,-4.0894,-4.0894,-4.0894,-4.0894,-4.0894,-4.0894,-4.0894,-4.0894,-4.0894,-4.0894,-4.0894,-4.0894,-4.0894,-4.0894,-4.0894,-4.0894,-4.0894,-4.0894,-4.0894,-4.0894,-4.0894,-4.0894,-4.0894,-4.0894,-4.0894,-4.0894,-4.0894,-4.0894,-4.0894,-3.022,-3.01,-2.9208,-2.8803,-2.8803,-2.8803,-2.8803,-2.8932,-2.9772,-3.0215,-3.0699,-3.2383,-3.3352,-3.3564,-3.4827,-3.544,-3.544,-3.5196,-3.4992,-3.4666,-3.3865,-3.3552,-3.355,-3.3414,-3.3078,-3.2826,-3.307,-3.3605,-3.4737,-3.5112,-3.5851,-3.6983,-3.7091,-3.6999,-3.6769,-3.6799,-3.6676,-3.6522,-3.6492,-3.6492,-3.66,-3.7163,-3.7546,-3.7618,-3.8362,-3.9022,-3.9516,-4.0179,-4.0485,-4.033,-4.0313,-4.0288,-4.0213,-4.0387,-4.051,-4.051,-4.0624,-4.0745,-4.0847,-4.0894,-4.0894,-4.0894,-4.0894,-4.0894,-4.0894,-4.0894,-4.0894,-4.0894,-4.0894,-4.0894,-4.0894,-4.0894,-4.0989,-4.1111,-4.1534,-4.1842,-4.1692,-4.16,-4.1418,-4.1111,-4.0948,-4.0918,-4.0894,-4.0894,-4.0894,-4.0894,-4.0894,-4.0894,-4.0894,-4.0894,-4.0894,-4.0894,-4.0894,-4.0894,-4.0894,-4.0894,-4.0894,-4.0894,-4.0894,-4.0894,-4.0894,-4.0894,-4.0894,-4.0894,-4.0894,-4.0894,-4.0894,-4.0894,-4.0894,-4.0894,-4.0894,-4.0894,-4.0894,-4.0894,-4.0894,-3.022,-3.0122,-2.9208,-2.8803,-2.8803,-2.8803,-2.8803,-2.8978,-2.9772,-3.0429,-3.1089,-3.2438,-3.345,-3.4024,-3.4881,-3.5318,-3.5359,-3.498,-3.468,-3.4272,-3.3254,-3.2789,-3.2735,-3.2721,-3.2531,-3.2236,-3.2109,-3.2731,-3.3624,-3.3993,-3.4813,-3.5829,-3.632,-3.6492,-3.6538,-3.6492,-3.6492,-3.6492,-3.6492,-3.6492,-3.6554,-3.6906,-3.7072,-3.7266,-3.7764,-3.8541,-3.9463,-3.9833,-4.0054,-4.0288,-4.0404,-4.0362,-4.0271,-4.0395,-4.051,-4.051,-4.0648,-4.0721,-4.0817,-4.0847,-4.0894,-4.0894,-4.0894,-4.0894,-4.0894,-4.0894,-4.0894,-4.0894,-4.0894,-4.0894,-4.0894,-4.0894,-4.0894,-4.0965,-4.1351,-4.1534,-4.1243,-4.1237,-4.114,-4.0965,-4.0894,-4.0894,-4.0894,-4.0894,-4.0894,-4.0894,-4.0894,-4.0894,-4.0894,-4.0894,-4.0894,-4.0894,-4.0894,-4.0894,-4.0894,-4.0894,-4.0894,-4.0894,-4.0894,-4.0894,-4.0894,-4.0894,-4.0894,-4.0894,-4.0894,-4.0894,-4.0894,-4.0894,-4.0894,-4.0894,-4.0894,-4.0894,-4.0894,-4.0894,-4.0894,-3.0177,-3.0057,-2.9186,-2.8803,-2.8803,-2.8803,-2.8803,-2.8978,-2.9988,-3.0822,-3.1653,-3.2679,-3.3729,-3.4756,-3.4949,-3.5195,-3.5318,-3.498,-3.4409,-3.3756,-3.2833,-3.23,-3.2314,-3.2254,-3.2177,-3.2073,-3.1927,-3.2309,-3.2981,-3.3581,-3.4331,-3.519,-3.5975,-3.6383,-3.646,-3.6492,-3.6492,-3.6492,-3.6492,-3.6492,-3.6492,-3.66,-3.6631,-3.6754,-3.734,-3.8149,-3.8951,-3.9332,-3.9601,-4.0345,-4.0444,-4.0436,-4.0444,-4.0444,-4.051,-4.051,-4.0583,-4.0673,-4.0738,-4.084,-4.0888,-4.0888,-4.0894,-4.0894,-4.0894,-4.0894,-4.0894,-4.0894,-4.0894,-4.0894,-4.0894,-4.0894,-4.0894,-4.0894,-4.0942,-4.0918,-4.0894,-4.0894,-4.0894,-4.0894,-4.0894,-4.0894,-4.0894,-4.0894,-4.0894,-4.0894,-4.0894,-4.0894,-4.0894,-4.0894,-4.0894,-4.0894,-4.0894,-4.0894,-4.0894,-4.0894,-4.0894,-4.0894,-4.0894,-4.0894,-4.0894,-4.0894,-4.0894,-4.0894,-4.0894,-4.0894,-4.0894,-4.0894,-4.0894,-4.0894,-4.0894,-4.0894,-4.0894,-4.0894,-4.0894,-2.998,-2.9587,-2.9055,-2.8803,-2.8803,-2.8803,-2.8803,-2.8978,-3.0564,-3.1311,-3.1928,-3.3335,-3.4176,-3.4535,-3.4908,-3.5127,-3.5169,-3.486,-3.4285,-3.3264,-3.2585,-3.2232,-3.2169,-3.2073,-3.1904,-3.178,-3.1706,-3.2046,-3.264,-3.3108,-3.3822,-3.4963,-3.5529,-3.5943,-3.6429,-3.6492,-3.6492,-3.6492,-3.6492,-3.6492,-3.6492,-3.6492,-3.6492,-3.6585,-3.7177,-3.7648,-3.8121,-3.887,-3.9437,-3.9688,-4.0054,-4.0238,-4.0288,-4.0395,-4.0468,-4.0493,-4.0517,-4.0631,-4.0793,-4.0793,-4.0793,-4.0888,-4.0894,-4.0894,-4.0894,-4.0894,-4.0894,-4.0894,-4.0894,-4.0894,-4.0894,-4.0894,-4.0894,-4.0894,-4.0894,-4.0894,-4.0894,-4.0894,-4.0894,-4.0894,-4.0894,-4.0894,-4.0894,-4.0894,-4.0894,-4.0894,-4.0894,-4.0894,-4.0894,-4.0894,-4.0894,-4.0894,-4.0894,-4.0894,-4.0894,-4.0894,-4.0894,-4.0894,-4.0894,-4.0894,-4.0894,-4.0894,-4.0894,-4.0894,-4.0894,-4.0894,-4.0894,-4.0894,-4.0894,-4.0894,-4.0894,-4.0894,-4.0894,-4.0894,-4.0894,-2.9718,-2.9434,-2.9,-2.8803,-2.8803,-2.8803,-2.9071,-2.9555,-3.0486,-3.1444,-3.2321,-3.339,-3.405,-3.4577,-3.4949,-3.5154,-3.5062,-3.4604,-3.3932,-3.3129,-3.2517,-3.2159,-3.2073,-3.1963,-3.1817,-3.1706,-3.1508,-3.1753,-3.2128,-3.2875,-3.3705,-3.4518,-3.5367,-3.6116,-3.6429,-3.6492,-3.6492,-3.6492,-3.6492,-3.6492,-3.6492,-3.6492,-3.6492,-3.6523,-3.6906,-3.7207,-3.7677,-3.808,-3.8761,-3.9262,-3.9653,-3.9944,-4.0188,-4.0387,-4.0485,-4.0493,-4.0583,-4.0648,-4.0745,-4.0817,-4.0823,-4.0888,-4.0894,-4.0894,-4.0894,-4.0894,-4.0894,-4.0894,-4.0894,-4.0894,-4.0894,-4.0894,-4.0894,-4.0894,-4.0894,-4.0894,-4.0894,-4.0894,-4.0894,-4.0894,-4.0894,-4.0894,-4.0894,-4.0894,-4.0894,-4.0894,-4.0894,-4.0894,-4.0894,-4.0894,-4.0894,-4.0894,-4.0894,-4.0894,-4.0894,-4.0894,-4.0894,-4.0894,-4.0894,-4.0894,-4.0894,-4.0894,-4.0894,-4.0894,-4.0894,-4.0894,-4.0894,-4.0894,-4.0894,-4.0894,-4.0894,-4.0894,-4.0894,-4.0894,-4.0894,-2.9445,-2.9336,-2.8978,-2.8803,-2.8803,-2.8978,-2.9463,-3.0125,-3.0519,-3.1709,-3.2821,-3.3122,-3.3966,-3.4618,-3.5003,-3.5208,-3.513,-3.4523,-3.3777,-3.313,-3.2698,-3.2285,-3.2017,-3.189,-3.189,-3.1853,-3.1508,-3.1421,-3.1763,-3.272,-3.3478,-3.3979,-3.5417,-3.6211,-3.6414,-3.6492,-3.6492,-3.6492,-3.6492,-3.6492,-3.6492,-3.6492,-3.6492,-3.6523,-3.6585,-3.6815,-3.7237,-3.7562,-3.7953,-3.8995,-3.9082,-3.947,-3.9969,-4.0362,-4.0485,-4.0485,-4.0583,-4.0673,-4.0769,-4.0817,-4.0847,-4.0871,-4.0894,-4.0894,-4.0894,-4.0894,-4.0894,-4.0894,-4.0894,-4.0894,-4.0894,-4.0894,-4.0894,-4.0894,-4.0894,-4.0894,-4.0894,-4.0894,-4.0894,-4.0894,-4.0894,-4.0894,-4.0894,-4.0894,-4.0894,-4.0894,-4.0894,-4.0894,-4.0894,-4.0894,-4.0894,-4.0894,-4.0894,-4.0894,-4.0894,-4.0894,-4.0894,-4.0894,-4.0894,-4.0894,-4.0894,-4.0894,-4.0894,-4.0894,-4.0894,-4.0894,-4.0894,-4.0894,-4.0894,-4.0894,-4.0894,-4.0894,-4.0894,-4.0894,-4.0894,-2.9296,-2.8913,-2.8836,-2.8803,-2.8932,-2.9635,-3.0034,-3.0474,-3.1797,-3.2692,-3.3079,-3.3814,-3.423,-3.4577,-3.4949,-3.5195,-3.517,-3.4632,-3.4001,-3.3384,-3.2995,-3.261,-3.2112,-3.194,-3.1927,-3.1767,-3.1532,-3.1347,-3.1519,-3.2331,-3.3213,-3.3856,-3.4978,-3.5832,-3.6352,-3.6492,-3.6492,-3.6492,-3.6492,-3.6492,-3.6492,-3.6492,-3.6492,-3.6492,-3.6492,-3.66,-3.6769,-3.7148,-3.7519,-3.7767,-3.8193,-3.8739,-3.9365,-3.9952,-4.0313,-4.0485,-4.0517,-4.0655,-4.0817,-4.0793,-4.0799,-4.0847,-4.0894,-4.0894,-4.0894,-4.0894,-4.0894,-4.0894,-4.0894,-4.0894,-4.0894,-4.0894,-4.0894,-4.0894,-4.0894,-4.0894,-4.0894,-4.0894,-4.0894,-4.0894,-4.0894,-4.0894,-4.0894,-4.0894,-4.0894,-4.0894,-4.0894,-4.0894,-4.0894,-4.0894,-4.0894,-4.0894,-4.0894,-4.0894,-4.0894,-4.0894,-4.0894,-4.0894,-4.0894,-4.0894,-4.0894,-4.0894,-4.0894,-4.0894,-4.0894,-4.0894,-4.0894,-4.0894,-4.0894,-4.0894,-4.0894,-4.0894,-4.0894,-4.0894,-4.0894,-2.9022,-2.8814,-2.8803,-2.8803,-2.8978,-2.9772,-3.0474,-3.1101,-3.2364,-3.3292,-3.3742,-3.4176,-3.4481,-3.4618,-3.4839,-3.5072,-3.5048,-3.4754,-3.4285,-3.3856,-3.3347,-3.2955,-3.2452,-3.2199,-3.2086,-3.1986,-3.1767,-3.1458,-3.1421,-3.2273,-3.3017,-3.3788,-3.4747,-3.5672,-3.632,-3.6492,-3.6492,-3.6492,-3.6492,-3.6492,-3.6492,-3.6492,-3.6492,-3.6492,-3.6492,-3.6492,-3.6554,-3.6723,-3.7104,-3.7417,-3.7679,-3.8153,-3.8695,-3.9322,-3.9952,-4.037,-4.0558,-4.068,-4.0864,-4.084,-4.0847,-4.0871,-4.0894,-4.0894,-4.0894,-4.0894,-4.0894,-4.0894,-4.0894,-4.0894,-4.0894,-4.0894,-4.0894,-4.0894,-4.0894,-4.0894,-4.0894,-4.0894,-4.0894,-4.0894,-4.0894,-4.0894,-4.0894,-4.0894,-4.0894,-4.0894,-4.0894,-4.0894,-4.0894,-4.0894,-4.0894,-4.0894,-4.0894,-4.0894,-4.0894,-4.0894,-4.0894,-4.0894,-4.0894,-4.0894,-4.0894,-4.0894,-4.0894,-4.0894,-4.0894,-4.0894,-4.0894,-4.0894,-4.0894,-4.0894,-4.0894,-4.0894,-4.0894,-4.0894,-4.0894,-2.8803,-2.8803,-2.8803,-2.8885,-2.9198,-3.0079,-3.1045,-3.1928,-3.2895,-3.37,-3.4314,-3.4397,-3.4535,-3.4673,-3.4714,-3.4825,-3.4991,-3.4687,-3.4473,-3.4165,-3.3592,-3.3189,-3.2878,-3.2521,-3.2169,-3.2146,-3.2036,-3.178,-3.168,-3.2309,-3.3066,-3.3822,-3.4699,-3.5561,-3.6305,-3.6492,-3.6492,-3.6492,-3.6492,-3.6492,-3.6492,-3.6492,-3.6492,-3.6492,-3.6492,-3.6492,-3.6523,-3.6554,-3.6785,-3.7043,-3.7268,-3.749,-3.8067,-3.859,-3.9269,-4.0129,-4.0485,-4.0704,-4.0817,-4.0894,-4.0871,-4.0894,-4.0894,-4.0894,-4.0894,-4.0894,-4.0894,-4.0894,-4.0894,-4.0894,-4.0894,-4.0894,-4.0894,-4.0894,-4.0894,-4.0894,-4.0894,-4.0894,-4.0894,-4.0894,-4.0894,-4.0894,-4.0894,-4.0894,-4.0894,-4.0894,-4.0894,-4.0894,-4.0894,-4.0894,-4.0894,-4.0894,-4.0894,-4.0894,-4.0894,-4.0894,-4.0894,-4.0894,-4.0894,-4.0894,-4.0894,-4.0894,-4.0894,-4.0894,-4.0894,-4.0894,-4.0894,-4.0894,-4.0894,-4.0894,-4.0894,-4.0894,-4.0894,-4.0894,-4.0894,-2.8803,-2.8803,-2.8803,-2.929,-3.0079,-3.1,-3.194,-3.2864,-3.3729,-3.4259,-3.4397,-3.4397,-3.4397,-3.4452,-3.4439,-3.4618,-3.4744,-3.4788,-3.4591,-3.4206,-3.3748,-3.3322,-3.2877,-3.243,-3.2209,-3.2205,-3.2169,-3.2036,-3.195,-3.2395,-3.3122,-3.391,-3.4633,-3.5561,-3.6414,-3.6492,-3.6492,-3.6492,-3.6492,-3.6492,-3.6492,-3.6492,-3.6492,-3.6492,-3.6492,-3.6492,-3.6492,-3.6492,-3.6616,-3.6616,-3.6631,-3.6922,-3.7371,-3.7533,-3.8322,-3.9305,-4.0104,-4.06,-4.0721,-4.084,-4.0894,-4.0894,-4.0894,-4.0894,-4.0894,-4.0894,-4.0894,-4.0894,-4.0894,-4.0894,-4.0894,-4.0894,-4.0894,-4.0894,-4.0894,-4.0894,-4.0894,-4.0894,-4.0894,-4.0894,-4.0894,-4.0894,-4.0894,-4.0894,-4.0894,-4.0894,-4.0894,-4.0894,-4.0894,-4.0894,-4.0894,-4.0894,-4.0894,-4.0894,-4.0894,-4.0894,-4.0894,-4.0894,-4.0894,-4.0894,-4.0894,-4.0894,-4.0894,-4.0894,-4.0894,-4.0894,-4.0894,-4.0894,-4.0894,-4.0894,-4.0894,-4.0894,-4.0894,-4.0894,-4.0894,-2.8803,-2.8803,-2.8803,-2.9336,-3.026,-3.1223,-3.2147,-3.3066,-3.3995,-3.4397,-3.4397,-3.4397,-3.4397,-3.4397,-3.4397,-3.4535,-3.4756,-3.488,-3.4925,-3.454,-3.4083,-3.3619,-3.329,-3.2634,-3.2218,-3.2205,-3.2205,-3.2169,-3.2132,-3.225,-3.2783,-3.3925,-3.4399,-3.5175,-3.6352,-3.6492,-3.6492,-3.6492,-3.6492,-3.6492,-3.6492,-3.6492,-3.6492,-3.6492,-3.6492,-3.6492,-3.6492,-3.6492,-3.6492,-3.6492,-3.6492,-3.6616,-3.6922,-3.7238,-3.7883,-3.8668,-3.9463,-4.0087,-4.0607,-4.0817,-4.0888,-4.0894,-4.0894,-4.0894,-4.0894,-4.0894,-4.0894,-4.0894,-4.0894,-4.0894,-4.0894,-4.0894,-4.0894,-4.0894,-4.0894,-4.0894,-4.0894,-4.0894,-4.0894,-4.0894,-4.0894,-4.0894,-4.0894,-4.0894,-4.0894,-4.0894,-4.0894,-4.0894,-4.0894,-4.0894,-4.0894,-4.0894,-4.0894,-4.0894,-4.0894,-4.0894,-4.0894,-4.0894,-4.0894,-4.0894,-4.0894,-4.0894,-4.0894,-4.0894,-4.0894,-4.0894,-4.0894,-4.0894,-4.0894,-4.0894,-4.0894,-4.0894,-4.0894,-4.0894,-4.0894,-2.8803,-2.8803,-2.8803,-2.9336,-3.026,-3.119,-3.2103,-3.3066,-3.3995,-3.4397,-3.4397,-3.4397,-3.4397,-3.4397,-3.4397,-3.4481,-3.4701,-3.4921,-3.5113,-3.4929,-3.4416,-3.3898,-3.345,-3.2806,-3.2205,-3.2205,-3.2205,-3.2169,-3.2132,-3.2228,-3.2761,-3.3993,-3.4095,-3.5011,-3.6085,-3.6492,-3.6492,-3.6492,-3.6492,-3.6492,-3.6492,-3.6492,-3.6492,-3.6492,-3.6492,-3.6492,-3.6492,-3.6492,-3.6492,-3.6492,-3.6492,-3.6554,-3.6647,-3.6922,-3.7549,-3.825,-3.8968,-3.9636,-4.0296,-4.0721,-4.0823,-4.0871,-4.0894,-4.0894,-4.0894,-4.0894,-4.0894,-4.0894,-4.0894,-4.0894,-4.0894,-4.0894,-4.0894,-4.0894,-4.0894,-4.0894,-4.0894,-4.0894,-4.0894,-4.0894,-4.0894,-4.0894,-4.0894,-4.0894,-4.0894,-4.0894,-4.0894,-4.0894,-4.0894,-4.0894,-4.0894,-4.0894,-4.0894,-4.0894,-4.0894,-4.0894,-4.0894,-4.0894,-4.0894,-4.0894,-4.0894,-4.0894,-4.0894,-4.0894,-4.0894,-4.0894,-4.0894,-4.0894,-4.0894,-4.0894,-4.0894,-4.0894,-4.0894,-4.0894,-4.0894,-2.8803,-2.8803,-2.8792,-2.9382,-3.0306,-3.1235,-3.2147,-3.3164,-3.4037,-3.4397,-3.4397,-3.4397,-3.4397,-3.4397,-3.4397,-3.4439,-3.4481,-3.4714,-3.4962,-3.478,-3.4178,-3.3848,-3.3439,-3.285,-3.2169,-3.2205,-3.2182,-3.2182,-3.2205,-3.2169,-3.3009,-3.4061,-3.4095,-3.5077,-3.6006,-3.6492,-3.6492,-3.6492,-3.6492,-3.6492,-3.6492,-3.6492,-3.6492,-3.6492,-3.6492,-3.6492,-3.6492,-3.6492,-3.6492,-3.6492,-3.6492,-3.6492,-3.6554,-3.6631,-3.7193,-3.7982,-3.8334,-3.9092,-3.9952,-4.0534,-4.0769,-4.0847,-4.0894,-4.0894,-4.0894,-4.0894,-4.0894,-4.0894,-4.0894,-4.0894,-4.0894,-4.0894,-4.0894,-4.0894,-4.0894,-4.0894,-4.0894,-4.0894,-4.0894,-4.0894,-4.0894,-4.0894,-4.0894,-4.0894,-4.0894,-4.0894,-4.0894,-4.0894,-4.0894,-4.0894,-4.0894,-4.0894,-4.0894,-4.0894,-4.0894,-4.0894,-4.0894,-4.0894,-4.0894,-4.0894,-4.0894,-4.0894,-4.0894,-4.0894,-4.0894,-4.0894,-4.0894,-4.0894,-4.0894,-4.0894,-4.0894,-4.0894,-4.0894,-4.0894,-4.0894,-2.8803,-2.885,-2.9417,-3.0215,-3.1101,-3.1444,-3.2463,-3.3771,-3.4217,-3.4397,-3.4397,-3.4397,-3.4397,-3.4397,-3.4397,-3.4481,-3.466,-3.488,-3.499,-3.4767,-3.4284,-3.3809,-3.3374,-3.2701,-3.2073,-3.2132,-3.2109,-3.2109,-3.2205,-3.2241,-3.308,-3.3851,-3.4197,-3.5157,-3.6006,-3.6492,-3.6492,-3.6492,-3.6492,-3.6492,-3.6492,-3.6492,-3.6492,-3.6492,-3.6492,-3.6492,-3.6492,-3.6492,-3.6492,-3.6492,-3.6492,-3.6492,-3.6492,-3.6492,-3.6952,-3.765,-3.7854,-3.8546,-3.9601,-4.0229,-4.0631,-4.0769,-4.0823,-4.0894,-4.0894,-4.0894,-4.0894,-4.0894,-4.0894,-4.0894,-4.0912,-4.0912,-4.0894,-4.0894,-4.0871,-4.0871,-4.0894,-4.0894,-4.0894,-4.0894,-4.0894,-4.0894,-4.0894,-4.0894,-4.0894,-4.0894,-4.0894,-4.0894,-4.0894,-4.0894,-4.0894,-4.0894,-4.0894,-4.0894,-4.0894,-4.0894,-4.0894,-4.0894,-4.0894,-4.0894,-4.0894,-4.0894,-4.0894,-4.0894,-4.0894,-4.0894,-4.0894,-4.0894,-4.0894,-4.0894,-4.0894,-4.0894,-4.0894,-4.0894,-4.0894,-2.8803,-2.8943,-2.9818,-3.0564,-3.1223,-3.1753,-3.2766,-3.3869,-3.4259,-3.4397,-3.4397,-3.4397,-3.4397,-3.4397,-3.4397,-3.4481,-3.466,-3.4825,-3.4829,-3.4526,-3.4005,-3.3572,-3.3011,-3.2434,-3.1853,-3.1963,-3.1927,-3.1927,-3.2109,-3.23,-3.3171,-3.4007,-3.4614,-3.5432,-3.6148,-3.6492,-3.6492,-3.6492,-3.6492,-3.6492,-3.6492,-3.6492,-3.6492,-3.6492,-3.6492,-3.6492,-3.6492,-3.6492,-3.6492,-3.6492,-3.6492,-3.6492,-3.6492,-3.6585,-3.6831,-3.7178,-3.7504,-3.7953,-3.8914,-3.9919,-4.051,-4.0697,-4.0769,-4.0864,-4.0888,-4.0894,-4.0894,-4.0894,-4.0894,-4.0871,-4.0864,-4.0817,-4.0817,-4.0817,-4.0817,-4.0817,-4.0871,-4.0894,-4.0894,-4.0894,-4.0894,-4.0894,-4.0894,-4.0894,-4.0894,-4.0894,-4.0894,-4.0894,-4.0894,-4.0894,-4.0894,-4.0894,-4.0894,-4.0894,-4.0894,-4.0894,-4.0894,-4.0894,-4.0894,-4.0894,-4.0894,-4.0894,-4.0894,-4.0894,-4.0894,-4.0894,-4.0894,-4.0894,-4.0894,-4.0894,-4.0894,-4.0894,-4.0894,-4.0894,-4.0894,-2.8792,-2.8943,-2.9841,-3.0271,-3.0606,-3.219,-3.3023,-3.3433,-3.405,-3.4397,-3.4397,-3.4397,-3.4397,-3.4397,-3.4397,-3.44,-3.435,-3.4596,-3.4467,-3.3886,-3.35,-3.3019,-3.2501,-3.1969,-3.1633,-3.1596,-3.1633,-3.1706,-3.194,-3.2286,-3.3227,-3.4109,-3.4762,-3.5593,-3.6429,-3.6492,-3.6492,-3.6492,-3.6492,-3.6492,-3.6492,-3.6492,-3.6492,-3.6492,-3.6492,-3.6492,-3.6492,-3.6492,-3.6492,-3.6492,-3.6492,-3.6492,-3.6492,-3.6492,-3.6754,-3.7208,-3.7298,-3.765,-3.8351,-3.9671,-4.0279,-4.0624,-4.0721,-4.0793,-4.0888,-4.0894,-4.0871,-4.0847,-4.0847,-4.0799,-4.0752,-4.0721,-4.0721,-4.0721,-4.0745,-4.0721,-4.0776,-4.0799,-4.0776,-4.084,-4.0871,-4.0894,-4.0894,-4.0894,-4.0894,-4.0894,-4.0894,-4.0894,-4.0894,-4.0894,-4.0894,-4.0894,-4.0894,-4.0894,-4.0894,-4.0894,-4.0894,-4.0894,-4.0894,-4.0894,-4.0894,-4.0894,-4.0894,-4.0894,-4.0894,-4.0894,-4.0894,-4.0894,-4.0894,-4.0894,-4.0894,-4.0894,-4.0894,-4.0894,-4.0894,-2.8918,-2.9207,-3.0152,-3.0683,-3.1101,-3.2393,-3.3335,-3.3911,-3.4272,-3.4384,-3.4397,-3.4397,-3.4397,-3.4397,-3.4306,-3.4162,-3.3929,-3.404,-3.3845,-3.3132,-3.2854,-3.26,-3.2137,-3.1702,-3.1485,-3.1522,-3.1522,-3.1485,-3.172,-3.2105,-3.2511,-3.3297,-3.4714,-3.564,-3.6289,-3.6492,-3.6492,-3.6492,-3.6492,-3.6492,-3.6492,-3.6492,-3.6492,-3.6492,-3.6492,-3.6492,-3.6492,-3.6492,-3.6492,-3.6492,-3.6492,-3.6492,-3.6492,-3.6492,-3.6616,-3.68,-3.6831,-3.7074,-3.7679,-3.8613,-3.9499,-4.0112,-4.0534,-4.0607,-4.0864,-4.0817,-4.0776,-4.0728,-4.0704,-4.068,-4.0697,-4.0697,-4.0697,-4.0714,-4.0697,-4.0631,-4.0655,-4.0631,-4.0631,-4.0721,-4.0769,-4.0864,-4.0871,-4.0894,-4.0894,-4.0894,-4.0894,-4.0894,-4.0894,-4.0894,-4.0894,-4.0894,-4.0894,-4.0894,-4.0894,-4.0894,-4.0894,-4.0894,-4.0894,-4.0894,-4.0894,-4.0894,-4.0894,-4.0894,-4.0894,-4.0894,-4.0894,-4.0894,-4.0894,-4.0894,-4.0894,-4.0894,-4.0894,-4.0894,-4.0894,-2.842,-2.8743,-2.9961,-3.0592,-3.1063,-3.2294,-3.3289,-3.3755,-3.3809,-3.3809,-3.3783,-3.3783,-3.377,-3.377,-3.377,-3.3692,-3.3327,-3.3381,-3.3119,-3.245,-3.2304,-3.2013,-3.1672,-3.1422,-3.1275,-3.1336,-3.1336,-3.1299,-3.1522,-3.179,-3.264,-3.3754,-3.4533,-3.5561,-3.6211,-3.6492,-3.6492,-3.6492,-3.6492,-3.6492,-3.6492,-3.6492,-3.6492,-3.6492,-3.6492,-3.6492,-3.6492,-3.6492,-3.6492,-3.6492,-3.6492,-3.6492,-3.6492,-3.6492,-3.6492,-3.6492,-3.6554,-3.6846,-3.7431,-3.7709,-3.8668,-3.9542,-3.9885,-4.0229,-4.0517,-4.0444,-4.0493,-4.0493,-4.0493,-4.0534,-4.0576,-4.0576,-4.0576,-4.0576,-4.0576,-4.051,-4.0534,-4.0534,-4.0558,-4.0624,-4.0745,-4.0817,-4.0864,-4.0871,-4.0894,-4.0894,-4.0894,-4.0894,-4.0894,-4.0894,-4.0894,-4.0894,-4.0894,-4.0894,-4.0894,-4.0894,-4.0894,-4.0894,-4.0894,-4.0894,-4.0894,-4.0894,-4.0894,-4.0894,-4.0894,-4.0894,-4.0894,-4.0894,-4.0894,-4.0894,-4.0894,-4.0894,-4.0894,-4.0894,-4.0894,-2.7315,-2.7579,-2.923,-2.9995,-3.0316,-3.1824,-3.2633,-3.2725,-3.2751,-3.2764,-3.2738,-3.2842,-3.2908,-3.279,-3.2764,-3.2751,-3.2685,-3.2712,-3.2293,-3.1967,-3.1769,-3.1443,-3.1233,-3.1088,-3.1099,-3.1061,-3.1061,-3.1174,-3.1347,-3.1653,-3.2883,-3.425,-3.4566,-3.5352,-3.5943,-3.6414,-3.646,-3.6492,-3.6492,-3.6492,-3.6492,-3.6492,-3.6492,-3.6492,-3.6492,-3.6492,-3.6492,-3.6492,-3.6492,-3.6492,-3.6492,-3.6492,-3.6492,-3.6492,-3.6492,-3.6492,-3.6492,-3.6831,-3.7148,-3.7342,-3.7738,-3.8502,-3.8458,-3.9209,-3.9817,-3.9935,-4.0011,-4.0229,-4.0303,-4.032,-4.0362,-4.0379,-4.0355,-4.0355,-4.0355,-4.0404,-4.0461,-4.0502,-4.0527,-4.06,-4.0721,-4.0817,-4.084,-4.0864,-4.0847,-4.0894,-4.0894,-4.0894,-4.0894,-4.0894,-4.0894,-4.0894,-4.0894,-4.0894,-4.0894,-4.0894,-4.0894,-4.0894,-4.0894,-4.0894,-4.0894,-4.0894,-4.0894,-4.0894,-4.0894,-4.0894,-4.0894,-4.0894,-4.0894,-4.0894,-4.0894,-4.0894,-4.0894,-4.0894,-4.0894,-2.7457,-2.7822,-2.8976,-2.9569,-2.9918,-3.1035,-3.1914,-3.262,-3.2672,-3.2672,-3.2672,-3.2672,-3.2568,-3.2672,-3.2685,-3.2424,-3.2215,-3.198,-3.1692,-3.1444,-3.1313,-3.1156,-3.1052,-3.1024,-3.1024,-3.1024,-3.1024,-3.1024,-3.1086,-3.1468,-3.2051,-3.2975,-3.4114,-3.4798,-3.5561,-3.6164,-3.6383,-3.6492,-3.6492,-3.6492,-3.6492,-3.6492,-3.6492,-3.6492,-3.6492,-3.6492,-3.6492,-3.6492,-3.6492,-3.6492,-3.6492,-3.6492,-3.6492,-3.6492,-3.6492,-3.6492,-3.6523,-3.6616,-3.6723,-3.6785,-3.7058,-3.7474,-3.7415,-3.7921,-3.8734,-3.9289,-3.9411,-3.9662,-3.9986,-4.0054,-4.0096,-4.0113,-4.0205,-4.0255,-4.023,-4.0188,-4.0263,-4.0337,-4.0387,-4.0502,-4.0624,-4.068,-4.0721,-4.0769,-4.0769,-4.0847,-4.0894,-4.0871,-4.0894,-4.0894,-4.0894,-4.0894,-4.0894,-4.0894,-4.0894,-4.0894,-4.0894,-4.0894,-4.0894,-4.0894,-4.0894,-4.0894,-4.0894,-4.0894,-4.0894,-4.0894,-4.0894,-4.0894,-4.0894,-4.0894,-4.0894,-4.0894,-4.0894,-4.0894,-4.0894,-2.6884,-2.722,-2.8046,-2.8899,-2.978,-3.0634,-3.1418,-3.1967,-3.2019,-3.2006,-3.2006,-3.198,-3.2019,-3.1967,-3.194,-3.181,-3.1535,-3.1496,-3.13,-3.1156,-3.1024,-3.1037,-3.1024,-3.1024,-3.1024,-3.1024,-3.1024,-3.1024,-3.1086,-3.1505,-3.2123,-3.308,-3.3808,-3.4732,-3.5625,-3.6274,-3.646,-3.6492,-3.6492,-3.6492,-3.6492,-3.6492,-3.6492,-3.6492,-3.6492,-3.6492,-3.6492,-3.6492,-3.6492,-3.6492,-3.6492,-3.6492,-3.6492,-3.6492,-3.6492,-3.6492,-3.6492,-3.6492,-3.6585,-3.6554,-3.6723,-3.6831,-3.6754,-3.7042,-3.7576,-3.8165,-3.853,-3.893,-3.9401,-3.9747,-3.9816,-3.9893,-4.0062,-4.0205,-4.0087,-3.9944,-4.0045,-4.0163,-4.0263,-4.0379,-4.0436,-4.051,-4.0558,-4.06,-4.0673,-4.0745,-4.0817,-4.0823,-4.0847,-4.0894,-4.0894,-4.0894,-4.0894,-4.0894,-4.0894,-4.0894,-4.0894,-4.0894,-4.0894,-4.0894,-4.0894,-4.0894,-4.0894,-4.0894,-4.0894,-4.0894,-4.0894,-4.0894,-4.0894,-4.0894,-4.0894,-4.0894,-4.0894,-4.0894,-4.0894,-2.5917,-2.6032,-2.6899,-2.8395,-2.9819,-3.0672,-3.105,-3.1024,-3.1129,-3.105,-3.1065,-3.1063,-3.1117,-3.1286,-3.1235,-3.1209,-3.113,-3.1117,-3.113,-3.1024,-3.1024,-3.1024,-3.1024,-3.1024,-3.1024,-3.1024,-3.1024,-3.1024,-3.1259,-3.175,-3.2599,-3.3705,-3.4518,-3.5352,-3.6179,-3.6383,-3.6492,-3.6492,-3.6492,-3.6492,-3.6492,-3.6492,-3.6492,-3.6492,-3.6492,-3.6492,-3.6492,-3.6492,-3.6492,-3.6492,-3.6492,-3.6492,-3.6492,-3.6492,-3.6492,-3.6492,-3.6492,-3.6492,-3.6492,-3.6492,-3.6492,-3.6554,-3.6523,-3.6631,-3.7028,-3.7504,-3.7998,-3.8322,-3.8739,-3.9082,-3.9162,-3.9418,-3.9644,-3.9841,-3.9867,-3.9893,-4.0062,-4.0138,-4.0213,-4.0288,-4.0288,-4.0345,-4.0436,-4.0502,-4.0534,-4.0624,-4.0697,-4.0728,-4.0752,-4.0823,-4.0847,-4.0871,-4.0871,-4.0871,-4.0894,-4.0894,-4.0894,-4.0894,-4.0894,-4.0894,-4.0894,-4.0894,-4.0894,-4.0894,-4.0894,-4.0894,-4.0894,-4.0894,-4.0894,-4.0894,-4.0894,-4.0894,-4.0894,-4.0894,-4.0894,-2.5895,-2.6063,-2.7476,-2.9108,-3.0621,-3.0898,-3.1024,-3.1024,-3.1024,-3.1024,-3.1024,-3.1024,-3.1024,-3.1024,-3.1024,-3.1024,-3.1024,-3.1024,-3.1024,-3.1024,-3.1024,-3.1024,-3.1024,-3.1024,-3.1024,-3.1024,-3.1024,-3.1024,-3.1235,-3.1919,-3.2847,-3.3705,-3.4633,-3.5561,-3.6429,-3.6492,-3.6492,-3.6492,-3.6492,-3.6492,-3.6492,-3.6492,-3.6492,-3.6492,-3.6492,-3.6492,-3.6492,-3.6492,-3.6492,-3.6492,-3.6492,-3.6492,-3.6492,-3.6492,-3.6492,-3.6492,-3.6492,-3.6492,-3.6492,-3.6492,-3.6492,-3.6492,-3.6492,-3.6492,-3.6693,-3.7134,-3.7506,-3.7783,-3.8039,-3.8322,-3.8601,-3.892,-3.9259,-3.9461,-3.9618,-3.9816,-4.0037,-4.0113,-4.0163,-4.0171,-4.0171,-4.0238,-4.033,-4.0379,-4.0412,-4.0485,-4.0534,-4.0558,-4.0583,-4.0631,-4.0752,-4.0776,-4.0847,-4.0871,-4.0871,-4.0847,-4.0823,-4.0847,-4.0847,-4.0871,-4.0894,-4.0894,-4.0894,-4.0894,-4.0894,-4.0894,-4.0894,-4.0894,-4.0894,-4.0894,-4.0894,-4.0894,-4.0894,-4.0894,-4.0894,-2.6146,-2.6652,-2.8279,-2.9498,-3.0381,-3.0823,-3.1024,-3.1024,-3.1024,-3.1024,-3.1024,-3.1024,-3.1024,-3.1024,-3.1024,-3.1024,-3.1024,-3.1024,-3.1024,-3.1024,-3.1024,-3.1024,-3.1024,-3.1024,-3.1024,-3.1024,-3.1024,-3.1061,-3.1161,-3.1955,-3.2847,-3.3705,-3.4599,-3.5529,-3.6352,-3.6492,-3.6492,-3.6492,-3.6492,-3.6492,-3.6492,-3.6492,-3.6492,-3.6492,-3.6492,-3.6492,-3.6492,-3.6492,-3.6492,-3.6492,-3.6492,-3.6492,-3.6492,-3.6492,-3.6492,-3.6492,-3.6492,-3.6492,-3.6492,-3.6492,-3.6492,-3.6492,-3.6492,-3.6492,-3.6492,-3.6861,-3.6907,-3.7178,-3.7578,-3.7883,-3.8039,-3.8322,-3.8865,-3.9232,-3.9109,-3.9109,-3.9549,-3.9918,-4.002,-4.0138,-4.0121,-4.0121,-4.0213,-4.0213,-4.0263,-4.0362,-4.0412,-4.0444,-4.0461,-4.0461,-4.0566,-4.0655,-4.0704,-4.0752,-4.0793,-4.0728,-4.0704,-4.0752,-4.0799,-4.0823,-4.0847,-4.0871,-4.0894,-4.0894,-4.0894,-4.0894,-4.0894,-4.0894,-4.0894,-4.0894,-4.0894,-4.0894,-4.0894,-4.0894,-4.0894,-2.6456,-2.7528,-2.8912,-2.9704,-2.9986,-3.0659,-3.1024,-3.1024,-3.1024,-3.1024,-3.1024,-3.1024,-3.1024,-3.1024,-3.1024,-3.1024,-3.1024,-3.1024,-3.1024,-3.1024,-3.1024,-3.1024,-3.1024,-3.1024,-3.1024,-3.1024,-3.1024,-3.1024,-3.1024,-3.1919,-3.2812,-3.3636,-3.4566,-3.5497,-3.6116,-3.646,-3.6492,-3.6492,-3.6492,-3.6492,-3.6492,-3.6492,-3.6492,-3.6492,-3.6492,-3.6492,-3.6492,-3.6492,-3.6492,-3.6492,-3.6492,-3.6492,-3.6492,-3.6492,-3.6492,-3.6492,-3.6492,-3.6492,-3.6492,-3.6492,-3.6492,-3.6492,-3.6492,-3.6492,-3.6507,-3.6507,-3.6554,-3.6723,-3.7118,-3.7342,-3.7504,-3.7838,-3.8407,-3.8794,-3.8601,-3.8518,-3.9038,-3.9523,-3.9679,-3.985,-3.9918,-3.9876,-3.9944,-3.9969,-4.0138,-4.0213,-4.0288,-4.0362,-4.037,-4.0345,-4.037,-4.0412,-4.0436,-4.051,-4.0648,-4.0631,-4.0566,-4.0631,-4.068,-4.0752,-4.0799,-4.0817,-4.084,-4.0894,-4.0894,-4.0871,-4.0894,-4.0894,-4.0894,-4.0871,-4.0894,-4.0894,-4.0894,-4.0894,-4.0894,-2.6816,-2.8199,-2.8545,-2.9459,-3.0659,-3.0936,-3.1024,-3.1024,-3.1024,-3.1024,-3.1024,-3.1024,-3.1024,-3.1024,-3.1024,-3.1024,-3.1024,-3.1024,-3.1024,-3.1024,-3.1024,-3.1024,-3.1024,-3.1024,-3.1024,-3.1024,-3.1024,-3.1024,-3.1061,-3.1846,-3.247,-3.2812,-3.4432,-3.519,-3.54,-3.5879,-3.6492,-3.6492,-3.6492,-3.6492,-3.6492,-3.6492,-3.6492,-3.6492,-3.6492,-3.6492,-3.6492,-3.6492,-3.6492,-3.6492,-3.6492,-3.6492,-3.6492,-3.6492,-3.6492,-3.6492,-3.6492,-3.6492,-3.6492,-3.6492,-3.6492,-3.6492,-3.6492,-3.6492,-3.6492,-3.6492,-3.6523,-3.6523,-3.6785,-3.6785,-3.6967,-3.7371,-3.7883,-3.8039,-3.801,-3.8181,-3.8546,-3.8712,-3.8778,-3.8984,-3.9162,-3.9242,-3.9365,-3.9592,-3.9995,-4.007,-4.0138,-4.0213,-4.0221,-4.0196,-4.0213,-4.0238,-4.0238,-4.0337,-4.0485,-4.051,-4.0468,-4.0534,-4.0558,-4.0631,-4.0697,-4.0721,-4.0769,-4.084,-4.0847,-4.0847,-4.0871,-4.0799,-4.0847,-4.0847,-4.0871,-4.0894,-4.0894,-4.0894,-4.0894]}]]